GFSSW_925_temp_000.txt.gz
Temp
20 20 20 21 21 21 22 22 23 23 24 24 24 24 24 24 23 21 28 31 30 29 29 30 30 32 33 35 37 37 34 25 27 27 35 38 39 40 37 27 25 29 31 33 31
20 20 20 21 21 21 21 22 23 24 24 24 24 23 23 22 19 25 29 30 29 29 29 32 32 34 35 36 37 37 29 25 32 35 39 40 40 40 30 25 23 29 30 32 31
19 20 20 20 21 22 22 23 23 24 24 24 24 23 22 20 25 34 30 30 29 29 30 32 34 35 35 37 38 38 29 29 32 40 40 40 40 40 31 29 29 27 29 32 32
19 19 20 21 21 21 22 23 24 24 24 25 24 22 21 18 34 30 29 29 28 28 31 34 35 35 35 36 39 37 39 34 40 40 40 40 40 40 40 31 32 30 30 30 33
19 19 20 20 21 21 22 23 24 24 25 25 24 22 19 28 34 30 30 29 28 28 32 34 35 35 35 37 39 38 39 40 40 40 40 40 39 39 38 33 32 32 30 32 33
18 19 20 20 21 21 22 23 24 24 24 24 23 22 21 32 32 29 28 27 30 30 33 35 36 37 37 38 38 40 40 39 40 40 40 40 37 37 37 38 37 36 35 35 34
18 19 19 20 21 21 22 23 24 24 23 23 22 19 28 33 33 30 30 30 32 32 35 35 36 37 37 37 39 39 38 39 39 40 40 40 34 33 34 34 37 37 36 36 35
18 18 19 20 21 22 22 23 23 23 21 22 21 19 30 33 33 32 32 33 34 34 35 36 36 36 37 38 38 38 38 36 39 40 40 39 34 31 36 35 37 37 37 36 35
18 19 19 20 21 22 23 24 23 22 21 20 19 23 33 31 33 33 34 35 34 34 34 35 35 35 37 36 36 38 36 37 29 30 40 39 36 35 35 34 37 37 37 36 35
17 19 20 20 21 22 24 24 23 20 21 19 23 28 33 34 35 34 34 34 34 35 34 34 34 34 35 36 35 37 37 32 26 29 39 39 38 37 38 39 38 37 37 36 35
17 18 19 21 22 23 24 24 25 26 25 32 33 34 36 35 34 35 34 35 35 34 33 34 33 34 36 37 38 38 38 38 28 33 38 38 38 39 39 36 39 38 36 35 36
16 17 19 21 22 24 23 28 29 28 28 33 34 35 36 35 34 35 34 34 33 33 34 35 33 36 37 38 38 38 37 37 38 39 38 38 38 37 30 24 27 33 37 36 36
16 17 18 21 23 24 26 29 27 28 29 33 36 36 36 36 35 35 35 34 34 33 34 34 37 38 37 37 37 37 37 37 37 39 39 38 37 37 27 26 29 35 37 37 37
16 16 18 21 22 24 28 28 28 28 28 33 35 35 37 36 34 37 35 35 35 34 35 36 37 37 36 36 37 36 38 38 37 37 36 38 35 37 30 30 32 32 37 37 37
15 16 18 18 18 25 28 28 27 29 28 36 36 36 36 34 37 36 36 35 34 35 35 35 36 36 36 36 38 36 39 38 37 36 36 36 36 32 34 31 30 30 32 37 36
16 16 17 20 18 23 26 27 28 28 29 35 35 34 35 35 36 37 36 36 36 35 37 36 39 38 37 38 38 38 37 37 36 36 34 36 36 32 28 31 29 32 37 36 32
16 17 17 16 24 24 25 27 27 28 35 35 35 35 35 35 35 36 35 34 33 32 33 36 36 38 37 37 38 37 35 33 33 34 34 36 37 35 36 34 34 35 36 34 31
16 18 18 19 22 24 25 27 26 31 32 36 36 36 35 36 36 36 35 33 34 35 35 34 34 37 38 36 36 36 35 34 32 33 33 30 33 34 37 37 37 37 36 33 30
16 20 20 20 21 22 25 25 28 30 34 35 36 34 35 36 37 36 35 34 35 35 34 35 36 39 39 38 37 36 35 37 35 36 34 29 34 36 37 36 35 36 36 34 31
13 19 24 24 23 23 25 24 30 32 34 34 32 34 33 35 36 35 35 36 36 37 37 36 34 38 39 39 38 36 38 34 35 32 32 35 35 33 31 29 34 35 35 34 31
15 24 27 25 24 25 24 27 29 32 33 32 32 32 34 35 36 35 36 37 37 37 38 37 35 35 38 36 36 36 35 36 36 36 34 34 30 31 28 29 29 34 35 34 31
20 23 26 25 24 26 26 27 27 32 33 32 31 32 32 34 35 35 35 37 39 38 36 37 35 34 36 38 37 37 36 36 34 34 35 35 30 32 26 26 28 31 34 34 31
20 25 26 26 24 26 27 28 30 31 31 31 31 31 33 32 32 34 35 38 38 37 36 37 34 33 34 37 37 36 37 37 36 34 34 33 34 33 26 25 32 34 33 33 30
19 24 26 26 26 26 27 29 29 31 31 31 32 32 32 31 33 32 34 36 36 37 30 33 34 33 34 35 35 35 36 37 36 34 35 35 30 30 28 27 24 31 33 31 29
20 23 25 25 26 26 26 27 29 29 30 30 30 31 31 30 31 32 33 35 36 31 34 35 32 34 35 36 36 36 36 37 36 36 35 35 33 28 25 26 25 23 31 30 28
19 20 22 22 23 24 24 26 27 29 30 30 29 31 31 31 31 31 33 33 33 35 34 34 32 33 33 35 36 36 37 37 37 37 37 37 26 25 24 25 25 24 28 29 28
16 17 19 19 22 24 26 27 27 28 30 31 31 30 30 31 32 33 34 33 34 33 33 32 32 32 32 34 35 34 36 36 37 37 37 33 27 25 25 25 23 27 28 28 27

GFSSW_925_temp_003.txt.gz
Temp
19 20 20 21 21 22 22 23 24 24 24 25 25 24 24 24 24 23 23 29 29 30 29 29 29 30 31 32 33 33 27 26 29 30 31 34 33 31 34 31 32 30 28 29 29
19 20 20 20 21 22 22 23 24 24 24 25 25 25 24 23 22 23 30 29 30 30 29 30 31 31 30 32 32 31 25 28 31 32 33 34 35 32 32 29 29 29 30 30 29
19 20 20 21 21 21 22 23 24 24 25 25 25 24 23 21 21 31 31 30 30 29 29 31 33 33 31 32 33 33 30 32 33 33 34 32 35 32 31 30 28 28 29 30 29
19 20 20 20 21 21 22 23 23 24 25 25 25 23 22 19 31 30 30 29 29 29 29 31 32 32 32 32 34 33 36 35 34 34 34 37 36 31 35 33 33 30 29 30 29
19 19 20 20 21 21 22 23 23 24 25 25 24 23 20 23 29 31 30 29 29 29 29 31 32 32 31 33 34 35 36 37 36 36 38 38 36 35 34 34 33 31 30 30 29
19 19 20 20 21 21 22 23 23 24 24 24 23 22 19 27 31 31 30 29 29 29 30 31 33 33 33 33 33 35 36 37 36 37 39 36 36 36 33 33 33 31 29 28 30
18 19 20 20 21 21 22 23 23 23 24 23 22 20 23 28 32 31 29 29 30 30 31 34 35 33 32 32 35 35 34 35 34 34 36 36 35 34 34 32 31 31 30 29 29
18 19 20 20 21 22 23 23 23 24 23 22 21 18 24 32 32 30 30 30 31 32 32 34 35 32 32 33 34 34 33 31 33 33 34 32 33 33 33 33 32 32 32 31 29
17 18 20 20 21 22 23 24 24 24 22 21 20 20 27 32 32 32 32 32 32 33 34 34 34 32 32 31 29 32 30 29 30 34 33 31 31 34 33 33 31 27 33 31 29
17 18 20 21 22 23 24 24 23 21 21 18 20 23 27 32 33 33 33 33 33 32 33 33 30 29 29 29 28 31 30 29 28 32 33 33 31 33 31 29 26 23 21 23 30
16 18 20 21 22 23 23 22 20 22 20 26 28 30 34 34 34 34 33 34 33 32 29 30 28 27 29 31 33 34 34 32 31 33 32 31 31 34 32 30 27 21 21 20 30
16 17 19 21 23 23 23 22 27 27 24 28 30 31 33 35 33 34 34 31 31 29 30 29 27 31 34 35 34 34 33 33 34 33 31 31 34 30 30 28 29 23 22 22 26
15 16 18 21 23 24 24 26 27 28 24 28 31 32 32 34 33 32 32 32 31 30 30 29 31 35 34 34 34 33 33 33 33 35 33 35 32 28 28 27 29 27 26 24 24
15 16 17 19 22 22 24 27 27 27 22 29 31 33 34 34 33 36 34 33 32 31 31 31 33 34 34 34 34 31 34 35 35 34 31 34 28 28 27 27 29 27 26 25 25
15 16 17 17 18 19 24 26 27 27 24 34 34 37 35 33 34 34 35 33 31 32 32 31 33 33 34 34 35 32 35 34 35 31 29 31 29 28 27 29 29 27 25 25 26
15 16 17 17 18 22 24 25 26 23 24 33 34 33 33 33 34 35 34 33 34 32 33 33 35 35 34 36 35 36 35 32 34 30 27 29 30 27 27 28 28 28 26 26 25
15 16 16 16 18 23 23 23 22 23 31 33 32 32 31 32 32 33 32 30 29 28 28 32 33 35 37 34 33 34 32 26 26 26 26 31 30 27 29 30 30 28 28 28 27
16 17 19 19 20 21 23 21 22 28 28 32 33 33 32 32 32 33 32 30 31 30 29 28 29 33 35 33 32 32 29 26 28 27 29 28 29 25 24 32 30 30 28 27 24
16 17 18 21 21 21 20 20 23 27 31 32 32 32 32 33 33 33 32 31 32 30 28 29 31 36 36 36 33 32 30 30 29 30 28 27 29 29 28 32 31 29 28 26 26
14 15 19 22 21 21 19 21 25 29 30 30 29 31 31 32 32 32 31 33 33 34 32 30 29 33 37 36 34 33 33 30 27 28 28 27 27 25 26 28 32 30 28 27 26
13 18 24 23 22 20 19 22 26 28 30 29 29 29 30 30 31 31 32 34 35 35 33 32 28 31 33 34 32 32 31 31 28 27 26 27 27 25 26 25 27 27 29 26 25
15 19 24 24 20 20 21 24 24 27 28 29 30 29 28 29 29 30 32 33 36 35 33 32 29 29 31 34 35 35 31 29 26 28 27 28 28 28 25 26 25 24 23 24 24
13 19 25 25 21 22 23 25 26 27 28 28 29 30 29 28 27 30 31 35 35 35 32 33 28 28 29 30 33 33 32 32 28 27 28 27 26 26 23 23 25 26 22 22 24
14 19 22 23 23 22 22 24 26 28 28 29 29 29 28 27 27 28 30 34 34 32 30 30 29 28 28 30 32 33 33 33 29 26 28 28 27 24 23 23 21 23 21 21 24
16 19 19 20 22 21 22 23 24 25 28 29 28 28 27 26 26 27 29 31 33 31 34 30 29 30 30 32 34 34 33 35 31 30 28 29 28 26 23 21 21 22 18 21 24
16 15 17 17 20 21 21 22 24 26 27 28 27 28 28 25 27 27 29 28 30 30 32 31 28 30 29 32 33 33 34 34 35 34 32 30 26 25 24 24 22 21 20 17 22
13 13 15 17 19 20 22 23 25 25 27 28 28 28 27 28 28 28 28 28 30 30 28 28 27 28 27 29 31 29 32 33 33 33 32 29 26 24 26 25 23 23 23 25 24

GFSSW_925_temp_006.txt.gz
Temp
20 20 20 21 21 21 22 23 23 24 24 24 24 24 25 25 24 23 21 30 29 29 29 28 28 29 29 28 31 30 25 25 28 28 31 31 30 30 32 30 30 29 27 28 28
20 20 20 21 21 21 22 23 23 24 24 24 24 24 24 24 22 20 30 29 29 29 29 28 28 28 27 30 30 28 25 27 30 31 31 34 32 31 31 28 28 29 28 28 27
19 20 20 20 21 21 22 23 23 24 24 25 25 24 23 21 21 28 30 29 29 29 30 29 30 30 29 30 30 29 29 30 32 33 33 33 33 33 31 28 27 27 27 28 26
19 19 20 20 21 21 22 23 23 23 24 25 24 24 22 21 31 31 31 30 29 29 29 29 30 30 30 31 32 32 32 33 34 34 32 31 32 32 32 32 31 28 28 28 26
19 19 20 20 20 21 22 23 23 23 24 24 24 23 21 23 27 31 30 28 28 29 29 29 29 30 30 31 31 32 33 34 34 34 33 33 32 32 32 31 30 29 28 27 26
18 19 19 20 21 21 22 22 23 23 24 24 23 22 20 27 31 31 30 28 29 29 29 29 29 31 30 31 31 32 33 33 33 32 33 35 32 33 33 30 29 29 28 28 26
18 18 20 20 21 21 22 22 23 24 24 23 21 20 20 27 31 31 30 30 30 30 29 30 31 32 31 30 32 32 32 32 33 32 32 34 33 31 30 30 29 29 27 26 27
18 18 19 20 21 21 22 23 24 24 24 22 21 19 23 30 30 30 30 30 30 31 31 32 32 31 31 31 30 31 29 29 32 32 32 32 31 32 29 30 25 26 25 23 20
17 17 19 20 21 22 23 23 24 23 22 21 20 20 25 29 29 31 31 30 30 31 31 31 32 30 31 28 26 27 29 30 31 32 32 33 32 31 28 27 23 24 24 23 22
16 17 18 20 21 22 23 24 22 21 20 19 19 23 25 29 31 31 31 32 30 30 30 32 27 27 25 25 26 28 29 29 29 32 31 31 31 31 28 26 24 25 23 22 23
15 16 18 20 21 22 24 23 20 22 20 23 25 25 29 32 32 32 32 31 32 30 28 29 26 25 26 26 29 30 30 30 30 31 32 30 30 31 25 25 23 22 22 23 25
15 16 17 20 22 22 23 21 25 25 22 24 25 27 28 30 30 31 33 30 29 28 29 27 25 28 29 29 30 30 30 30 31 32 30 30 30 27 26 23 22 23 23 23 23
15 16 16 19 22 22 22 23 26 27 22 24 26 27 28 29 30 30 30 30 30 28 28 26 29 31 30 30 30 30 31 31 31 32 30 29 29 28 26 25 24 24 23 23 23
15 15 16 18 21 20 22 24 25 26 20 24 26 28 30 30 30 32 32 30 30 28 28 27 30 31 31 31 31 29 31 32 33 30 29 30 27 28 26 25 23 24 23 23 22
14 15 16 16 16 17 22 24 25 24 24 31 29 32 29 30 31 31 33 31 28 29 28 28 31 31 31 31 32 30 32 31 33 30 29 29 26 26 27 26 26 25 24 22 24
15 15 15 15 16 21 21 24 25 21 23 30 32 30 29 30 32 32 30 31 30 29 29 29 31 32 31 33 33 34 33 28 26 25 26 28 27 25 25 27 27 26 26 26 24
15 16 15 16 17 21 22 20 19 20 27 30 31 30 29 29 30 31 29 28 27 27 26 28 30 31 32 31 32 31 26 24 26 24 25 27 27 26 26 29 28 27 26 26 26
16 17 18 18 20 20 21 18 21 24 25 29 29 30 29 29 30 30 28 27 27 28 25 26 26 30 33 31 30 30 26 24 27 26 26 26 28 27 26 27 28 27 26 25 22
15 16 16 20 20 19 16 18 19 22 27 28 27 29 28 30 30 29 27 29 30 27 26 26 27 32 32 33 32 31 29 27 26 25 25 25 27 27 26 28 27 26 25 24 22
13 13 16 21 20 19 16 17 21 26 26 26 26 27 26 27 29 28 28 29 30 30 27 27 27 31 33 33 31 31 30 29 23 28 27 25 27 25 26 25 27 26 25 23 23
13 13 20 21 20 15 16 17 23 26 25 24 24 25 27 27 27 27 28 30 31 31 29 26 27 30 31 31 29 30 30 27 24 23 25 24 25 24 26 24 24 24 24 22 21
8 14 20 21 16 14 17 22 22 24 24 24 26 25 27 27 26 27 28 30 31 33 28 27 24 26 28 31 32 30 29 26 24 26 23 24 25 24 24 22 23 23 23 22 22
6 11 21 22 16 16 17 22 23 24 24 25 25 27 28 27 27 26 28 30 30 31 29 27 24 25 27 28 29 32 30 28 23 22 25 24 24 24 24 22 23 22 20 21 21
7 13 14 15 15 19 19 19 21 24 24 25 25 25 25 26 25 26 27 29 30 31 27 26 23 26 26 28 28 31 31 31 26 24 26 25 24 24 23 23 21 21 19 20 21
9 13 14 13 15 15 18 20 21 21 24 24 24 25 25 25 24 24 26 27 29 28 29 26 27 28 28 29 31 31 31 29 29 28 28 27 25 25 22 21 20 19 18 21 21
9 9 9 11 14 16 18 20 21 22 22 23 23 25 25 23 23 24 24 26 27 27 27 24 27 28 29 29 30 30 30 30 32 32 29 25 26 22 20 20 21 19 21 21 20
10 10 8 11 13 15 17 18 20 19 21 22 23 23 23 24 24 23 23 24 26 27 26 24 25 23 26 27 28 27 30 30 30 31 29 27 25 22 20 21 21 19 21 23 21

GFSSW_925_temp_009.txt.gz
Temp
19 19 20 20 20 21 21 22 22 22 23 23 24 24 24 24 23 21 20 29 29 29 28 27 26 27 28 27 29 27 25 26 27 28 29 27 28 29 30 29 28 28 27 27 26
19 19 19 20 20 21 21 21 22 22 23 24 24 24 23 21 20 19 29 29 29 29 28 27 27 27 26 28 29 27 24 28 28 29 29 29 29 30 29 28 28 27 27 27 25
19 19 20 20 20 20 21 22 22 22 23 24 24 23 22 20 19 27 29 29 29 29 29 28 28 28 28 29 30 28 28 29 31 30 31 29 30 30 29 27 27 26 26 27 24
18 19 19 20 20 20 21 22 22 22 23 23 23 23 21 19 29 30 30 29 29 28 28 29 28 28 28 30 31 30 30 31 32 33 31 31 31 30 30 30 29 26 27 26 25
18 19 19 19 20 21 21 22 22 23 23 23 22 23 21 23 26 30 30 29 28 28 28 28 28 29 29 30 30 30 32 32 32 30 30 31 30 31 30 29 28 27 27 26 25
17 18 18 19 20 20 21 21 22 23 24 23 22 22 21 27 30 30 29 28 28 28 28 28 28 29 30 30 30 31 30 30 31 32 33 30 31 32 29 28 27 27 26 26 26
16 18 18 19 20 20 21 22 23 24 24 23 21 21 20 26 29 29 29 29 29 29 27 29 30 30 30 29 30 30 30 30 31 31 33 31 31 31 28 28 27 27 27 23 22
16 17 18 19 20 21 22 23 23 25 24 23 20 20 23 28 29 29 29 29 29 29 29 30 30 29 30 30 28 29 29 28 32 32 32 32 30 28 27 27 26 25 24 24 23
16 16 18 19 20 21 22 23 23 22 22 21 20 20 25 27 27 29 29 29 29 29 29 30 30 29 29 26 25 25 28 29 29 32 32 31 28 27 27 26 24 24 24 25 24
15 16 17 19 20 22 23 23 21 20 20 19 19 23 26 28 30 30 30 30 29 29 29 30 24 25 23 23 26 28 29 28 28 31 31 31 28 26 26 26 25 24 24 25 25
15 16 17 19 20 22 23 22 19 21 20 24 26 24 26 30 31 29 30 29 30 29 27 27 26 24 25 25 27 29 29 28 29 31 32 30 27 28 25 25 24 24 22 23 24
15 15 17 19 21 22 23 20 21 22 20 23 23 24 26 27 28 30 30 29 28 27 27 25 24 25 27 27 27 28 28 27 28 31 30 29 25 25 24 23 23 24 23 22 23
14 15 17 18 21 21 20 22 22 23 21 22 23 24 26 27 27 28 29 28 28 27 27 25 28 28 28 29 29 28 28 29 30 30 29 30 26 25 26 23 23 23 23 23 23
14 15 16 18 20 18 20 23 24 23 19 24 25 26 27 28 28 30 30 29 29 27 27 26 27 29 29 28 28 28 29 30 31 29 28 29 26 26 25 23 23 23 22 23 23
14 15 15 16 15 16 21 23 25 23 23 29 28 29 27 29 30 30 30 30 27 28 26 27 29 30 29 29 29 29 30 31 31 28 28 28 25 26 24 24 23 22 23 23 23
15 15 15 16 16 21 21 23 24 21 23 28 30 28 28 30 31 28 29 30 29 28 28 27 29 30 29 31 31 31 31 25 23 23 25 27 26 26 24 25 25 24 24 24 23
15 16 15 16 17 20 21 20 19 20 25 27 28 29 28 28 29 29 28 28 26 26 25 26 28 29 31 30 29 28 25 24 26 23 25 26 26 25 26 26 26 25 25 24 23
16 16 17 18 19 20 20 18 21 23 23 26 27 27 28 29 29 29 26 26 26 26 24 26 26 29 30 29 29 28 25 23 26 24 25 25 27 27 26 25 25 26 24 23 23
16 16 15 19 19 18 16 17 19 20 25 25 25 27 26 27 30 29 26 25 26 25 26 24 25 30 31 31 31 29 27 26 22 23 24 23 26 26 26 26 24 25 24 22 20
13 13 15 19 19 18 16 17 19 22 24 24 25 25 26 26 27 27 25 27 28 27 26 27 26 28 31 31 30 29 27 27 22 27 27 24 26 24 26 25 25 23 22 21 22
12 13 17 18 20 15 16 16 20 23 23 23 24 24 25 27 26 26 26 29 29 29 26 25 25 29 31 30 29 28 28 22 22 22 24 24 24 22 24 24 24 23 22 22 22
7 15 17 17 15 11 16 19 21 22 22 23 23 23 24 25 26 26 26 28 28 28 25 24 23 25 26 28 29 29 28 24 24 26 21 22 24 24 24 23 22 22 22 21 22
7 8 17 18 15 14 16 20 22 22 23 23 23 25 25 25 24 25 26 28 28 28 28 25 23 25 26 26 29 30 29 24 21 21 22 23 24 22 21 22 21 21 22 22 21
8 14 13 12 12 17 18 19 20 23 22 23 23 24 24 24 22 25 26 27 27 28 25 25 21 25 27 25 27 29 29 28 24 23 23 23 27 23 22 20 20 20 20 21 22
8 10 11 13 14 14 16 18 20 21 22 23 22 23 23 22 24 23 25 24 26 27 25 24 24 24 27 28 29 29 30 27 27 26 27 28 25 24 22 20 20 19 20 21 20
8 9 8 10 11 14 14 16 18 18 20 21 20 21 21 22 22 24 25 24 24 25 25 22 26 27 27 28 29 30 30 30 30 29 28 27 24 23 19 19 20 19 20 20 20
8 8 8 10 11 14 14 16 18 18 19 20 20 19 22 23 20 21 21 22 24 25 24 23 23 23 26 25 28 27 30 30 30 30 29 28 26 20 20 20 20 19 20 19 20

GFSSW_925_temp_012.txt.gz
Temp
19 18 19 20 20 20 20 21 22 22 23 24 24 24 24 24 24 22 21 29 29 28 28 28 27 27 27 26 28 26 24 25 27 27 29 27 28 29 29 27 28 27 25 26 25
18 19 19 19 19 20 20 21 21 22 22 23 24 24 23 22 21 19 29 29 28 28 27 27 27 27 25 27 28 25 24 27 27 28 29 28 28 29 29 28 27 27 26 25 23
18 19 19 19 20 20 21 21 20 22 23 23 24 23 21 20 20 26 29 29 29 28 28 28 28 28 28 28 29 26 27 27 28 29 29 28 28 29 28 27 26 26 24 24 23
17 18 19 19 19 20 20 20 20 22 23 23 23 22 20 19 29 29 29 29 28 28 28 28 28 28 27 29 30 30 29 29 31 29 29 29 29 28 28 30 28 26 25 24 23
17 18 18 19 19 20 21 21 22 22 23 23 23 22 20 23 26 29 30 29 28 27 28 27 28 28 29 29 29 30 31 30 30 29 29 30 29 29 29 28 27 26 26 24 23
16 17 18 19 20 20 21 22 22 23 23 24 23 21 20 27 28 29 29 28 28 27 27 27 28 28 29 29 29 30 29 28 29 31 31 29 29 30 28 26 26 26 25 25 24
16 17 18 19 20 21 22 22 23 24 24 24 22 21 21 27 28 28 28 28 28 28 26 28 29 29 29 29 29 29 29 28 30 31 32 30 31 29 26 26 26 25 25 25 24
15 16 17 18 20 21 22 23 23 22 22 22 21 20 23 27 27 27 27 27 28 28 28 29 29 28 28 29 27 28 28 27 30 30 31 31 28 28 25 26 25 25 25 24 23
15 16 17 18 20 22 23 23 22 21 20 20 19 21 26 26 26 28 28 28 28 28 29 29 29 26 26 25 24 23 27 28 29 29 31 31 29 27 26 26 24 24 23 24 24
15 16 17 18 20 22 23 23 21 20 19 19 19 23 25 27 28 28 29 29 28 27 28 28 22 23 22 23 25 26 28 28 27 29 30 30 28 25 25 25 24 23 23 23 23
15 16 17 18 20 22 24 22 17 20 20 24 25 25 25 28 29 28 29 29 28 27 26 26 24 23 24 24 27 27 28 27 27 28 29 28 27 26 24 24 23 23 22 23 23
14 15 17 19 21 23 23 17 19 19 18 21 21 23 25 27 28 27 29 28 28 26 26 25 23 24 26 26 26 27 27 26 27 29 29 27 27 24 24 23 23 24 23 23 22
14 15 16 19 21 21 20 20 20 19 18 21 22 23 25 26 27 27 27 27 27 26 25 25 28 25 27 27 27 26 26 27 28 28 28 27 26 24 25 23 23 23 23 23 22
14 15 16 18 19 18 20 21 22 20 19 24 25 25 25 25 28 28 29 28 28 26 24 26 27 28 28 28 27 28 27 29 29 28 27 27 26 25 24 23 22 23 22 22 22
14 15 16 16 16 17 21 22 23 22 24 28 27 28 25 28 29 29 29 29 27 27 25 27 28 28 28 29 28 28 29 29 29 27 27 27 25 25 23 25 23 23 22 22 22
14 15 16 15 16 20 21 22 23 21 23 27 28 27 27 28 29 27 29 29 27 27 27 27 28 29 28 30 29 30 28 24 21 22 24 26 25 24 24 25 25 24 23 22 22
15 16 16 16 17 20 20 19 20 21 24 26 27 26 27 27 28 28 27 27 26 25 26 26 27 28 29 28 28 28 24 23 25 23 24 24 25 25 26 25 25 25 23 23 22
16 17 17 18 19 19 19 19 21 23 22 24 25 25 27 27 27 28 25 25 26 24 23 25 25 28 28 28 28 27 25 23 26 24 25 24 25 27 26 24 24 24 23 22 21
16 15 15 18 19 18 16 18 19 20 23 23 24 24 24 26 28 28 25 24 25 24 25 23 25 27 29 30 29 27 26 25 21 21 23 23 24 25 26 24 23 23 23 22 22
12 12 15 17 18 17 16 16 19 20 23 23 24 24 25 25 26 26 25 26 26 24 25 25 25 27 29 30 29 28 25 25 21 25 26 23 24 24 26 24 23 22 22 21 21
11 13 15 16 17 14 15 15 19 21 22 23 23 24 24 25 26 26 26 27 27 27 24 23 24 27 29 28 27 26 26 22 21 21 23 23 23 22 25 23 23 23 22 22 21
8 14 15 16 14 10 14 17 20 22 22 23 22 22 24 24 24 25 26 26 27 27 24 23 21 23 25 27 28 28 27 23 23 25 20 21 24 23 22 23 22 22 21 21 20
8 9 15 16 14 14 15 19 21 22 22 22 22 23 23 24 23 24 26 27 27 27 26 23 22 22 24 25 27 28 26 22 20 20 21 23 24 23 21 21 21 22 21 20 20
8 14 12 11 10 16 17 19 20 22 21 22 22 23 23 22 22 24 25 26 25 26 23 24 20 22 23 25 26 28 28 24 23 22 21 22 26 25 23 21 20 20 20 20 20
7 10 10 13 13 14 15 16 19 18 19 19 22 20 20 21 22 22 23 24 25 25 24 22 23 22 24 25 28 28 28 25 27 25 27 27 24 25 22 21 20 19 20 20 20
8 9 7 9 10 14 14 16 18 18 19 20 20 19 19 19 22 21 23 24 25 24 23 20 24 25 26 27 27 28 28 26 27 26 26 26 24 23 21 19 20 19 20 20 20
6 7 7 9 11 13 13 16 17 17 18 19 19 18 19 20 19 19 18 19 20 24 23 21 21 21 25 24 27 27 28 28 28 27 27 26 27 20 20 20 20 19 20 20 20

GFSSW_925_temp_015.txt.gz
Temp
18 19 19 19 20 20 21 21 22 23 23 23 24 24 24 25 24 23 24 29 28 28 27 27 27 27 28 30 30 29 32 31 31 32 34 32 33 31 31 30 30 30 29 29 25
18 19 19 20 20 20 21 21 21 23 23 23 24 24 24 23 21 21 29 28 28 28 27 28 28 29 31 31 31 32 33 32 33 33 34 34 32 32 32 30 29 29 28 27 25
18 18 19 19 20 20 21 21 22 23 23 23 24 24 23 21 22 30 28 28 28 28 28 27 28 30 31 31 31 31 34 32 33 33 33 34 33 33 32 31 32 31 28 27 26
16 18 18 19 20 20 21 22 22 22 23 23 24 24 22 20 31 28 29 28 28 28 28 28 30 30 31 32 31 32 32 32 34 33 33 33 33 32 32 35 33 32 29 27 27
16 17 18 19 20 21 21 22 22 23 24 24 24 23 20 26 29 29 29 28 28 28 28 29 30 30 31 31 32 32 33 33 33 33 32 32 32 33 32 34 32 30 28 28 28
16 16 17 19 20 21 21 22 23 24 24 24 24 22 20 29 28 28 29 28 28 27 28 29 30 30 30 31 31 32 32 32 33 33 33 33 32 32 32 31 30 29 28 29 28
15 16 17 18 20 21 22 23 23 24 24 24 23 21 22 29 27 28 28 28 27 28 29 28 29 31 30 31 31 31 33 33 34 33 34 33 33 32 31 29 29 29 28 28 28
15 16 16 18 20 21 22 23 24 23 23 22 21 20 26 26 27 27 27 27 27 27 28 28 28 30 30 31 31 32 32 34 34 33 33 33 34 31 29 29 29 28 28 28 27
15 16 17 18 20 22 23 23 22 21 20 20 19 20 28 25 25 27 27 28 26 27 28 28 29 29 30 31 32 31 33 32 33 32 34 33 34 29 29 29 29 28 28 28 27
15 16 17 18 20 22 23 22 21 20 20 19 19 24 26 28 27 27 27 28 29 29 30 30 29 30 29 31 32 32 32 31 31 33 33 33 33 31 29 29 29 28 27 27 26
15 16 17 18 21 22 23 21 23 24 21 26 26 26 27 28 27 27 28 28 30 30 30 28 30 30 31 29 30 29 30 30 32 32 31 32 32 31 28 28 28 28 27 27 25
15 16 17 19 21 22 22 22 20 20 23 22 23 24 25 26 29 28 28 30 30 29 28 29 30 30 28 28 29 29 30 32 32 31 31 32 32 30 28 28 28 28 27 27 25
14 15 17 18 20 21 19 19 19 19 22 24 24 25 27 27 29 29 30 29 29 28 29 29 30 28 29 29 29 30 31 31 31 32 31 30 32 31 29 27 28 27 27 26 26
14 15 16 18 20 18 19 19 20 19 25 27 27 28 26 28 30 29 30 31 29 29 28 29 29 29 29 29 30 31 30 31 31 31 33 30 33 31 29 29 28 28 27 26 26
14 15 16 17 16 17 20 20 20 20 27 28 27 27 27 29 30 29 29 30 29 28 29 30 29 29 29 31 30 31 30 30 30 31 30 31 32 34 29 33 30 29 28 27 26
15 15 16 17 16 19 20 21 22 25 26 28 28 28 28 29 29 29 30 30 29 29 28 30 29 30 31 31 31 31 30 29 28 30 32 30 31 33 33 32 30 28 28 27 27
15 16 16 16 18 19 20 21 25 25 26 27 28 28 28 29 29 29 29 29 30 28 28 29 30 30 31 30 30 30 31 31 31 31 31 27 30 33 31 30 29 29 28 28 27
15 17 17 17 17 18 19 24 22 25 25 26 26 27 28 29 29 28 28 29 28 29 28 29 30 30 30 31 32 30 32 32 30 30 31 27 31 34 30 29 28 28 29 29 28
15 14 15 15 17 17 22 23 25 23 24 25 26 27 28 28 29 29 29 29 30 29 30 29 29 30 30 31 32 29 31 30 29 26 30 31 31 31 29 30 28 28 28 29 27
12 12 14 15 16 18 23 20 22 22 23 24 26 26 27 27 29 29 28 29 30 29 31 29 29 30 31 31 29 31 30 31 30 29 30 30 29 33 31 31 29 28 29 28 25
12 18 14 15 16 21 22 21 21 22 23 24 25 26 26 26 27 28 28 29 29 28 29 29 29 30 30 31 32 30 31 28 30 29 32 31 32 31 30 31 30 29 28 28 26
11 18 15 16 19 16 20 20 20 23 23 24 24 24 25 25 27 27 28 28 28 28 28 28 28 29 31 30 30 31 31 30 32 29 27 30 33 30 28 28 28 28 27 25 25
14 15 16 15 19 19 18 21 22 23 23 24 24 24 25 25 26 26 27 28 28 28 28 27 28 29 30 30 29 31 30 29 27 28 28 31 33 29 28 27 27 28 27 24 24
14 18 17 16 15 18 19 20 22 22 23 23 24 24 24 24 24 25 27 28 27 28 23 27 26 29 31 31 31 30 29 28 31 31 30 32 32 33 31 28 26 27 26 24 24
13 13 12 18 17 17 17 19 20 21 21 22 22 22 22 24 24 25 25 26 28 25 26 28 28 27 29 28 30 32 31 29 30 31 33 32 30 33 31 28 27 27 25 24 23
13 14 12 14 13 17 16 18 20 20 21 22 22 22 21 23 24 24 23 25 26 27 26 24 28 26 29 28 29 31 32 31 30 30 30 30 31 31 25 25 25 25 24 24 23
6 7 11 11 15 17 17 18 18 18 21 21 20 21 21 22 21 21 21 22 22 22 25 26 27 27 29 28 29 29 31 31 32 31 32 31 32 28 27 25 25 24 24 24 24

GFSSW_925_temp_018.txt.gz
Temp
19 19 19 20 20 21 21 22 22 23 23 23 24 24 24 25 24 22 29 30 28 28 28 29 31 33 33 35 35 36 37 36 36 37 37 38 38 36 36 35 34 34 34 33 29
18 19 20 20 20 21 21 22 22 23 23 23 24 24 24 24 21 29 29 28 28 28 30 32 33 34 36 36 36 38 38 37 38 38 37 38 37 37 36 35 33 33 32 31 29
17 18 19 20 20 21 21 22 22 23 23 23 24 24 24 22 28 33 28 28 28 28 30 31 33 35 36 36 36 37 38 37 38 38 38 38 38 37 37 36 37 34 32 31 30
17 18 19 20 21 21 21 22 23 23 24 24 24 25 24 20 34 29 28 28 28 28 31 32 34 35 36 36 36 36 37 37 38 38 38 38 38 38 37 38 37 36 33 32 31
16 17 18 20 21 21 22 22 23 24 24 25 25 25 23 31 33 27 28 28 27 29 32 34 35 35 36 36 36 36 36 37 38 38 38 37 37 37 37 38 36 35 34 33 33
15 16 18 19 20 21 22 23 23 24 25 25 25 25 26 33 28 26 27 28 30 31 32 33 34 34 35 35 35 36 36 37 38 38 37 37 38 36 37 36 36 34 34 34 33
16 16 17 18 20 21 22 23 24 24 25 25 25 24 28 32 27 27 28 30 30 32 33 32 33 35 35 35 35 36 36 38 38 38 38 37 38 37 36 35 35 34 34 34 33
15 16 17 18 20 21 22 23 24 24 24 23 23 22 32 27 27 27 29 29 29 30 32 32 32 35 35 35 36 36 37 37 38 38 37 37 37 36 36 35 35 34 33 32 31
15 16 17 19 20 22 23 23 21 21 22 21 22 25 33 27 29 30 30 32 31 31 31 31 34 35 35 36 36 37 37 37 37 37 37 37 37 36 35 35 35 33 32 32 31
15 16 17 19 20 22 22 22 20 20 20 19 21 27 30 32 31 30 29 31 33 33 33 33 34 35 36 36 36 36 36 37 36 37 37 37 37 38 35 35 35 34 32 31 30
15 16 17 19 20 22 21 19 25 26 24 32 32 31 31 30 30 31 30 31 33 34 33 33 34 35 35 35 35 35 35 35 36 36 36 37 37 38 35 35 34 33 31 31 30
15 16 17 19 20 22 22 28 25 23 29 29 29 29 29 30 32 32 31 33 33 33 33 33 34 35 34 33 34 34 35 35 36 36 36 37 37 38 36 35 35 34 31 32 30
15 16 17 19 20 21 23 23 21 22 29 30 30 31 32 31 33 32 33 34 33 33 33 34 34 33 33 33 34 35 35 35 35 36 37 36 37 37 36 34 33 33 33 33 30
15 16 17 19 21 20 24 20 21 21 31 31 31 31 31 33 32 34 33 34 33 33 33 34 35 33 33 34 34 35 35 34 35 35 36 36 36 36 37 36 34 33 32 33 31
14 16 17 17 16 23 21 21 21 23 31 31 31 30 32 33 34 32 33 33 33 33 32 34 33 32 32 34 35 35 34 34 35 35 35 36 35 37 37 37 35 34 33 33 32
15 16 17 16 16 20 19 20 22 29 30 31 31 31 31 32 33 32 32 33 34 33 33 34 34 34 35 34 34 34 34 35 35 36 35 35 35 37 37 36 35 34 34 33 32
15 16 17 16 23 18 19 25 29 30 30 31 32 32 33 32 32 32 31 32 33 31 32 34 34 34 34 34 34 34 34 34 34 35 35 34 34 36 37 36 35 35 34 33 32
16 17 16 15 16 17 22 27 27 30 30 29 31 31 32 33 33 32 32 32 33 33 33 33 33 33 34 34 35 34 35 34 33 34 35 34 34 36 36 35 34 34 34 34 33
16 15 17 17 16 17 26 27 30 29 29 29 30 31 32 32 32 32 33 33 34 33 33 33 33 34 34 35 35 34 33 36 34 35 34 36 36 37 36 35 34 34 34 34 33
14 19 19 16 16 21 27 27 28 27 27 28 30 30 31 32 32 32 33 34 33 34 34 34 32 35 34 34 34 34 35 33 35 33 32 35 34 35 35 36 35 34 34 33 32
16 23 18 17 18 25 27 28 27 27 27 29 29 30 31 31 33 33 33 32 33 34 34 34 33 33 34 34 35 33 34 34 35 35 34 34 35 36 36 36 35 34 34 32 31
19 23 18 18 24 26 27 26 22 27 27 28 28 29 30 30 31 32 32 33 32 33 32 34 33 33 34 35 35 35 35 35 34 33 35 34 35 38 37 35 34 34 33 32 31
21 22 20 20 25 25 24 25 26 27 27 28 28 28 28 29 29 31 31 31 31 33 33 32 32 32 33 34 33 33 35 34 34 33 34 34 35 37 36 34 33 33 32 30 29
20 22 22 23 22 24 24 25 25 25 26 27 28 28 28 28 29 29 31 31 31 32 24 30 32 32 34 33 34 33 34 35 34 34 35 35 35 36 36 35 32 32 31 29 29
20 20 19 22 23 23 23 24 25 25 26 27 26 27 28 28 29 29 30 31 31 24 30 31 30 33 34 34 34 34 35 34 34 35 34 35 35 36 35 33 34 32 29 29 28
20 20 20 21 20 22 19 23 24 24 26 26 26 27 27 27 29 29 28 29 31 31 31 30 30 31 32 34 34 33 34 35 34 35 35 35 35 35 32 31 32 31 29 28 28
14 14 18 15 21 22 24 23 23 23 24 25 25 26 26 27 25 26 26 27 27 27 29 29 31 31 32 33 33 32 34 35 35 35 35 35 35 34 34 31 31 30 30 29 28

GFSSW_925_temp_021.txt.gz
Temp
19 20 20 20 20 21 21 22 22 22 23 23 24 24 25 25 25 24 33 31 31 30 30 33 34 36 37 39 39 40 39 38 39 39 40 41 40 40 40 38 37 37 37 36 32
19 19 20 20 21 21 21 22 22 23 23 24 24 24 25 25 23 32 29 30 30 30 31 35 37 38 39 39 40 40 37 39 40 40 40 40 40 40 39 38 36 36 36 34 32
19 19 20 20 21 21 22 22 23 23 24 24 25 25 25 24 30 35 29 29 29 29 32 35 36 38 39 40 40 41 39 40 40 40 40 41 41 41 40 39 39 36 35 34 33
17 18 20 20 21 21 22 22 23 23 24 25 25 25 26 23 35 31 29 29 29 30 33 35 37 38 38 38 40 39 40 40 40 40 40 40 41 40 40 40 39 38 36 34 34
17 17 19 20 21 21 22 23 23 24 25 25 26 26 25 33 35 29 29 29 29 33 35 37 37 38 38 39 39 39 39 40 40 40 40 40 40 40 40 40 39 38 36 35 35
16 17 18 20 21 22 22 23 24 25 25 25 26 26 27 34 32 29 31 30 33 34 35 37 38 38 38 38 38 39 39 40 40 40 40 39 40 40 40 39 39 37 36 36 36
16 17 18 19 21 22 23 23 24 25 25 25 26 24 31 35 32 31 32 33 33 35 36 35 36 37 39 38 39 39 38 40 40 40 40 40 40 39 40 39 38 37 37 37 36
16 16 17 19 20 22 23 23 24 25 24 25 25 24 34 31 32 31 33 33 33 34 35 35 36 38 38 39 38 38 39 39 41 40 40 40 38 39 39 39 38 37 37 36 35
16 16 17 19 20 21 22 23 24 23 23 24 24 29 35 30 32 33 34 35 34 34 34 34 36 38 39 38 39 39 38 39 40 40 40 39 39 40 40 39 38 36 36 35 34
15 17 18 19 20 21 22 23 22 21 22 23 26 31 34 35 35 34 34 34 35 36 36 36 37 38 39 39 38 39 39 40 38 40 39 39 39 40 40 39 38 37 35 35 34
15 16 18 19 20 21 22 22 27 27 28 34 35 35 35 34 33 34 34 34 36 36 36 36 37 37 39 39 38 38 38 38 39 40 38 39 39 40 40 39 38 37 35 35 34
15 16 18 19 21 22 22 30 29 27 31 35 35 34 34 35 35 35 34 35 35 35 37 36 36 39 37 37 37 38 37 38 39 39 38 39 39 40 40 39 39 38 35 35 34
15 16 17 20 21 23 27 28 26 27 31 35 34 34 35 34 35 36 36 36 36 35 36 36 38 37 36 37 36 37 37 38 37 39 39 39 38 39 40 39 38 38 37 36 34
15 16 17 20 21 25 27 26 27 27 31 34 33 35 36 35 35 37 36 37 36 36 37 37 38 36 36 37 37 37 38 37 37 37 38 39 37 38 39 39 37 37 37 36 35
15 16 17 18 17 27 26 26 26 28 31 35 34 34 36 35 37 36 36 36 35 36 36 37 36 35 36 37 37 37 37 37 37 37 38 38 38 39 39 38 39 38 37 37 35
15 16 17 18 19 25 25 26 27 29 31 34 34 34 34 35 36 36 35 37 37 36 36 37 37 37 37 37 37 38 36 37 37 38 37 38 38 38 39 38 38 38 37 36 35
16 16 17 17 26 23 24 27 29 31 35 34 34 35 35 35 35 34 34 34 34 33 34 36 36 37 37 36 37 37 36 35 36 37 36 38 37 38 39 39 38 38 37 36 35
16 17 18 18 21 22 25 28 28 34 34 34 35 36 35 36 36 35 34 34 35 36 37 35 35 37 37 36 37 37 36 36 34 36 35 37 36 37 39 39 38 37 37 36 35
17 18 20 22 21 22 27 28 31 34 34 33 33 34 35 36 36 35 35 35 36 37 35 36 36 37 37 38 37 37 35 38 36 37 36 38 38 39 39 38 38 37 37 36 36
15 23 25 21 21 24 27 28 33 32 31 32 33 34 34 35 34 35 35 37 37 37 37 37 35 37 36 37 37 36 38 36 36 34 34 37 36 37 37 37 37 37 36 36 35
16 25 22 22 23 27 28 30 32 31 31 32 32 33 35 35 35 35 35 36 37 37 37 37 35 36 36 35 36 36 35 36 37 37 34 34 33 38 37 38 37 37 37 36 35
22 26 22 23 26 28 29 31 21 31 31 32 32 32 33 34 34 35 35 36 36 37 35 37 36 34 36 38 38 37 37 37 35 34 36 36 34 37 38 38 38 37 36 36 35
24 26 23 24 27 29 30 30 29 31 31 32 32 32 32 32 32 34 35 35 35 36 36 36 34 34 34 37 37 35 37 37 36 36 34 34 35 37 37 37 37 37 36 34 34
23 25 26 26 28 26 29 27 28 30 31 31 32 31 31 32 32 32 33 33 34 35 26 31 34 34 35 33 35 35 36 37 36 35 35 36 37 37 37 37 35 36 35 33 32
24 25 24 26 27 27 28 28 28 28 29 30 30 30 31 31 31 31 33 33 33 27 32 34 32 34 35 36 36 36 36 37 36 36 35 36 31 29 36 37 36 36 33 32 31
22 24 25 26 24 26 22 26 27 29 29 29 29 30 31 30 31 31 33 33 33 34 33 34 31 33 34 36 36 35 36 36 37 36 36 37 33 23 36 36 36 35 33 32 31
19 21 23 21 24 25 27 27 27 29 28 29 30 30 29 30 31 31 30 30 31 31 32 32 32 31 31 34 35 34 35 36 36 37 37 36 37 37 37 35 35 35 33 32 31

GFSSW_925_temp_024.txt.gz
Temp
20 20 20 20 21 21 22 22 22 23 23 24 25 25 25 25 26 26 33 32 32 31 31 32 36 36 38 39 41 41 34 32 40 40 40 41 39 41 41 39 38 38 37 35 33
19 19 20 21 21 21 22 22 23 23 24 24 25 26 25 24 23 32 31 31 31 31 30 36 38 39 39 40 41 35 29 32 41 41 40 41 41 41 38 34 31 36 36 34 33
18 19 19 20 21 21 22 22 23 24 24 25 25 26 25 24 29 34 31 31 31 31 30 35 37 39 39 41 41 33 29 32 40 41 41 41 41 42 39 33 25 33 35 34 33
17 18 19 20 21 22 22 23 23 24 25 25 26 26 26 22 34 31 31 31 31 30 33 37 38 38 39 39 41 36 38 41 41 41 41 40 41 41 41 39 35 36 36 35 34
17 17 19 20 21 22 22 23 23 25 25 26 26 26 25 31 35 31 31 31 31 31 36 38 38 39 39 40 40 40 41 41 41 41 41 41 41 40 40 40 40 38 36 35 34
16 17 18 19 21 22 22 23 24 25 25 26 26 26 26 34 34 30 32 30 32 35 37 38 39 39 38 39 39 40 40 40 41 41 41 40 39 41 40 41 39 37 36 36 35
16 17 18 19 21 22 22 24 24 25 25 26 26 25 31 35 34 33 33 34 35 36 38 38 38 38 40 39 40 40 39 40 41 41 41 40 37 39 41 40 39 38 37 37 36
16 16 18 19 20 21 23 24 25 25 25 26 26 24 33 34 34 34 34 35 35 36 36 37 37 38 38 40 40 39 39 38 41 41 41 40 34 40 41 40 39 38 38 37 36
15 16 18 19 20 21 23 24 25 25 25 25 25 28 34 33 34 34 35 36 36 36 36 36 37 38 39 38 38 39 38 39 39 41 40 40 39 40 41 40 39 38 37 37 36
15 16 17 19 20 21 24 24 25 24 25 23 26 31 34 35 36 36 36 36 37 37 37 37 37 37 38 38 37 38 39 40 39 41 40 39 40 41 41 40 39 38 36 36 35
15 16 17 19 20 21 24 26 28 28 28 33 35 35 36 36 36 36 36 36 37 37 36 38 37 37 39 40 39 39 39 39 40 41 39 39 39 40 41 40 40 36 36 35 35
16 16 18 20 21 22 21 28 30 30 30 35 35 36 36 36 35 36 36 35 36 35 37 37 36 39 40 39 38 38 38 38 40 40 39 39 39 41 41 40 40 38 35 36 35
15 16 18 20 22 23 25 30 29 30 31 35 37 36 36 36 36 37 37 36 36 36 37 37 39 39 38 38 37 38 38 38 38 39 40 39 38 39 41 40 39 39 37 36 35
15 16 18 20 21 25 29 29 29 30 30 35 36 36 37 37 35 39 37 37 37 36 37 38 39 38 37 37 38 37 40 39 38 38 37 40 36 39 39 39 38 38 38 36 35
15 16 18 17 18 26 28 28 28 30 30 37 36 38 38 36 38 37 38 37 36 37 37 37 37 37 37 38 39 38 39 38 38 37 37 38 38 37 39 39 38 39 38 37 35
16 16 18 20 18 24 27 28 29 29 30 35 36 35 36 36 37 38 37 38 38 37 37 37 39 38 38 39 38 39 38 38 38 37 36 37 38 38 36 33 38 39 37 36 35
16 16 17 17 26 26 26 28 28 29 35 36 35 36 36 35 36 37 36 35 35 33 34 37 37 38 39 37 38 38 36 35 35 36 36 31 35 36 39 39 38 38 37 36 35
17 17 18 20 23 25 26 28 27 32 34 37 37 37 35 37 36 36 35 35 36 36 36 35 35 38 38 37 37 37 37 35 33 35 33 35 31 34 39 39 38 38 37 36 35
18 20 20 22 21 23 27 27 29 33 36 36 36 35 35 37 37 36 35 35 36 37 35 36 37 40 39 39 38 37 36 38 36 37 36 37 37 37 38 39 38 38 37 36 35
14 22 26 24 23 24 26 26 31 35 34 35 34 35 35 36 36 36 36 37 37 38 38 37 35 38 38 38 38 37 38 36 36 33 33 36 33 27 27 23 37 37 36 36 34
15 25 25 25 24 25 25 28 31 34 33 33 33 34 36 36 37 36 36 37 38 38 38 37 36 37 38 36 36 37 36 36 37 36 34 34 31 28 25 22 36 37 37 36 35
21 25 25 25 25 27 27 29 29 33 33 33 33 34 34 36 36 36 36 37 38 39 37 37 36 35 36 38 39 38 37 37 35 34 36 36 35 32 31 34 38 37 37 36 35
21 26 25 25 25 27 29 30 32 32 32 32 33 34 34 33 33 34 36 36 37 37 33 36 35 34 34 36 38 37 37 37 37 35 34 32 25 27 35 37 38 37 37 35 34
22 26 25 25 27 27 28 30 31 31 32 33 33 34 33 32 33 33 35 35 35 35 29 33 34 34 34 34 34 35 36 37 36 35 35 36 34 32 29 28 25 33 35 34 33
23 27 27 26 26 27 28 30 30 30 31 32 31 32 32 31 32 32 34 35 34 29 34 34 32 33 35 36 36 36 36 37 36 36 35 36 34 29 25 23 21 25 34 34 32
23 23 24 27 27 28 25 28 29 30 31 30 30 32 32 31 32 33 33 34 33 34 33 34 32 33 32 35 36 36 37 37 37 37 37 37 36 30 24 25 23 25 34 32 31
20 21 23 24 26 26 27 27 28 29 31 31 31 31 31 31 32 31 32 32 32 31 32 32 32 31 31 34 35 33 35 36 37 37 37 36 35 26 22 21 22 34 33 33 32

GFSSW_925_temp_027.txt.gz
Temp
19 20 20 21 21 22 22 22 23 23 24 24 25 25 25 26 27 27 27 31 32 32 32 33 33 35 36 35 37 31 27 26 30 33 36 36 34 37 38 36 35 34 32 31 31
18 19 20 21 21 22 22 23 23 24 24 25 25 25 25 26 24 27 31 32 32 32 31 32 34 35 33 36 35 30 30 31 34 36 38 39 35 36 34 34 33 32 32 31 31
18 19 20 20 21 22 22 23 23 24 25 25 25 25 26 25 25 32 32 32 31 32 31 31 34 35 34 36 35 34 32 36 35 38 39 37 37 36 33 31 31 31 31 31 31
17 18 19 20 21 21 22 23 24 24 25 25 25 25 26 24 31 33 33 32 32 32 31 33 35 34 35 35 36 33 35 36 39 40 38 38 38 36 34 33 33 32 32 31 30
17 17 19 20 21 22 22 23 24 25 25 25 26 26 26 26 31 33 32 32 32 32 31 34 35 35 34 36 38 38 36 36 39 39 39 39 37 38 36 34 33 33 33 31 30
16 17 19 20 21 21 22 23 24 25 25 26 26 26 25 29 33 33 32 32 33 32 35 36 35 36 35 36 36 38 37 38 38 38 40 36 35 37 36 35 33 33 32 32 31
16 17 19 20 21 21 22 24 24 25 25 25 25 25 26 30 34 33 32 33 34 35 34 38 37 34 33 34 37 37 37 36 37 37 38 37 35 37 37 36 35 34 33 32 31
16 17 18 19 20 21 23 24 25 25 25 26 25 24 26 34 35 34 34 34 35 35 36 37 37 34 35 35 36 36 35 32 35 38 37 36 33 36 36 36 34 34 34 33 28
16 17 18 20 21 22 24 25 25 26 26 25 24 25 29 34 34 35 34 35 36 36 36 37 36 33 34 33 31 33 31 33 34 37 37 39 35 36 36 36 34 34 33 32 30
16 17 19 20 21 22 24 26 27 26 26 24 24 26 29 33 35 35 35 35 36 35 35 35 33 31 31 31 29 33 34 35 33 36 37 37 36 36 36 35 34 33 32 31 31
16 17 18 20 21 21 23 25 24 24 24 28 30 32 35 35 36 36 36 35 35 35 32 33 31 30 31 33 36 36 35 35 38 39 37 37 36 35 37 36 34 32 30 31 31
16 16 18 20 21 22 22 21 29 30 26 30 32 33 35 36 34 35 36 33 33 31 32 32 30 33 36 38 37 35 35 33 36 38 36 37 35 35 36 35 33 32 31 31 30
16 16 18 20 22 23 23 27 29 30 26 30 32 33 34 36 34 34 34 34 33 32 32 31 34 37 38 36 36 35 35 34 36 36 35 36 33 33 36 35 33 33 32 31 30
16 17 18 20 22 22 26 29 29 29 24 30 32 34 35 34 33 36 36 34 34 33 33 33 36 37 37 36 36 32 36 37 36 34 30 34 29 31 32 33 33 33 31 31 30
16 17 18 17 18 19 26 28 28 28 25 34 34 37 35 33 35 35 37 34 33 34 35 33 36 36 36 35 36 34 37 36 35 33 32 31 29 32 33 31 28 31 32 31 30
16 17 18 17 18 24 26 27 28 24 26 34 34 34 33 33 34 36 35 35 35 34 34 34 37 37 36 37 37 37 36 34 33 30 28 31 31 31 32 29 27 31 33 31 30
17 17 17 16 21 24 25 25 23 24 32 33 32 33 32 32 33 34 33 32 30 31 30 33 35 37 37 35 36 36 31 27 27 27 27 32 31 26 33 31 30 28 31 31 30
18 19 20 20 22 23 25 23 23 29 30 33 34 33 32 33 33 34 33 31 32 32 30 29 31 34 36 35 34 32 30 26 30 28 29 32 30 30 31 31 28 33 32 31 28
18 19 19 23 23 22 21 21 25 29 33 33 33 33 32 34 34 33 32 32 33 32 30 31 32 37 37 37 35 34 31 32 30 31 28 30 32 32 28 29 31 30 25 29 28
16 17 22 23 23 23 21 22 26 31 33 32 31 34 32 33 33 32 31 33 34 35 32 31 31 36 37 38 37 36 34 30 26 29 29 30 30 27 25 26 27 30 28 29 28
15 19 25 24 24 21 21 23 28 30 31 31 30 30 32 32 33 32 32 35 35 35 34 32 30 31 36 34 33 32 31 32 28 28 27 27 27 28 26 25 24 25 26 29 29
17 20 25 25 20 21 21 26 27 29 31 32 31 31 31 31 30 32 33 35 36 36 33 32 30 29 32 34 35 33 32 30 26 29 27 27 27 28 25 24 22 23 23 29 30
15 21 25 25 20 22 24 27 28 28 29 32 31 32 31 31 29 30 34 34 34 31 31 30 29 28 29 30 33 34 34 35 30 26 28 27 26 27 27 25 24 22 22 25 28
15 21 22 21 22 23 23 25 27 30 31 31 30 31 30 31 31 30 30 34 34 32 29 30 30 29 28 32 32 33 33 34 31 27 28 29 27 28 27 28 27 25 22 23 25
17 21 22 21 22 23 23 24 26 28 30 30 28 30 29 29 29 30 31 32 34 29 33 29 29 30 30 32 32 32 34 34 31 29 29 30 28 26 25 30 28 28 22 21 23
18 19 20 20 23 24 23 24 27 28 29 29 28 30 29 29 29 27 27 27 28 31 32 29 27 31 29 32 32 32 33 33 33 34 33 27 26 21 23 23 24 25 24 23 21
17 18 18 20 22 24 24 25 27 27 28 30 29 29 28 26 27 28 28 28 30 29 26 28 27 27 27 30 30 28 31 32 31 31 31 31 25 24 23 23 23 24 26 24 22

GFSSW_925_temp_030.txt.gz
Temp
19 20 21 21 21 22 22 23 23 24 24 24 25 25 26 27 27 27 26 32 32 32 32 33 34 34 33 33 35 31 29 30 33 32 31 33 34 35 34 32 33 32 30 30 26
18 19 20 21 22 22 22 23 23 24 24 24 25 25 26 27 25 25 32 31 31 32 33 32 31 31 31 33 32 30 25 30 32 33 34 34 35 34 32 31 30 29 30 29 26
18 19 20 21 22 22 22 23 23 24 24 25 25 25 26 26 24 30 32 31 32 32 32 31 31 32 34 34 34 29 29 31 33 34 33 33 34 34 32 30 29 28 29 29 27
18 19 20 21 21 22 22 23 23 24 24 25 25 25 26 24 31 33 32 32 32 32 32 31 31 33 33 34 34 34 34 35 36 37 38 34 35 34 33 32 31 30 30 29 27
17 19 20 21 21 21 22 23 24 24 25 25 25 25 25 26 29 33 33 33 32 32 30 31 32 33 33 33 34 34 36 35 35 34 37 37 35 34 34 32 31 31 30 29 27
17 19 20 20 21 21 22 24 24 25 25 25 25 25 24 28 33 33 33 33 33 31 32 32 34 34 33 33 33 35 37 36 35 36 37 36 35 34 33 32 31 30 29 29 28
17 19 20 20 21 21 23 24 24 25 25 25 25 24 23 28 33 33 33 33 33 33 32 35 35 33 32 32 34 34 36 34 35 36 37 35 35 34 32 32 31 31 30 30 29
16 18 19 20 21 22 23 25 25 26 26 25 25 23 25 33 32 33 33 34 34 34 35 35 35 33 33 33 32 33 31 32 34 35 36 35 33 34 32 32 31 31 31 30 27
16 17 19 20 21 22 24 25 26 27 26 25 24 24 27 32 32 33 33 33 34 35 35 36 35 32 31 31 28 28 30 31 32 35 36 35 33 34 33 33 31 31 31 30 28
16 17 19 20 21 22 24 26 27 26 25 24 23 25 28 32 34 34 34 34 33 34 33 34 29 29 27 27 28 30 31 32 32 35 36 35 35 35 32 33 32 31 30 29 28
16 17 19 20 21 22 24 25 23 24 25 26 27 27 31 34 34 34 34 34 34 32 30 31 29 28 29 29 31 32 33 33 34 35 36 34 36 35 33 33 31 28 28 28 29
16 17 18 20 21 22 23 21 25 27 24 26 27 28 30 32 32 34 34 33 32 30 31 29 28 30 31 33 33 35 34 33 33 36 35 34 35 34 32 32 31 29 28 29 27
16 17 18 20 22 22 22 24 27 27 23 25 28 29 30 31 32 32 31 31 31 30 30 29 31 34 33 34 35 33 34 33 33 34 34 33 30 31 32 31 31 30 30 30 28
16 17 18 20 22 21 22 26 27 28 20 25 28 30 32 32 32 34 34 32 32 30 31 30 32 33 34 35 34 33 34 34 34 31 30 31 28 28 28 29 30 29 30 29 27
16 17 17 18 18 19 24 26 27 26 24 31 30 34 30 31 33 33 35 33 31 31 32 31 33 34 35 35 34 32 35 34 34 30 29 30 28 28 29 28 27 30 30 28 27
17 17 18 17 17 23 23 26 26 22 24 30 32 31 30 31 32 33 33 33 33 32 32 31 33 35 33 35 35 35 32 28 26 25 27 29 29 27 29 28 28 30 29 28 27
17 18 17 17 19 23 23 22 20 21 27 31 31 30 29 29 31 32 32 31 30 30 29 30 32 33 36 35 32 32 26 24 27 25 26 28 28 26 27 29 30 27 28 27 28
18 19 20 20 22 22 22 19 23 25 26 29 32 31 29 29 30 31 30 29 29 29 27 28 29 33 35 33 32 31 27 24 29 26 27 27 30 28 28 27 27 25 25 21 22
18 18 18 22 22 20 17 19 21 24 30 29 28 30 29 30 31 30 28 28 30 28 28 28 29 33 34 34 32 32 30 28 27 26 26 26 30 29 27 28 28 25 25 24 24
16 16 19 22 22 20 17 18 21 27 28 28 28 29 28 30 29 28 28 29 31 31 28 29 29 31 34 34 33 32 31 29 23 28 29 27 29 27 28 29 26 23 23 22 25
15 15 22 23 22 15 17 18 24 27 27 27 27 29 29 30 30 27 29 32 31 32 28 27 28 30 34 32 31 31 30 26 25 24 25 25 26 25 27 25 24 25 25 23 23
10 17 22 23 17 14 17 22 23 26 26 26 28 29 30 29 30 29 29 30 32 33 30 27 25 27 33 32 33 30 30 26 24 28 24 24 25 24 23 23 23 24 24 23 22
9 13 22 23 17 16 18 23 25 25 26 26 27 29 29 30 29 28 28 31 31 30 30 29 25 26 28 28 30 33 32 28 23 22 26 25 24 24 23 23 24 26 23 23 23
9 15 16 16 15 20 21 21 23 26 26 27 27 29 27 28 28 29 29 31 31 31 27 26 24 26 26 28 28 31 30 30 27 26 26 25 26 25 22 23 22 21 24 25 23
10 16 17 16 17 18 21 21 22 23 26 28 27 28 28 28 26 25 27 27 29 27 29 26 26 28 28 30 31 31 30 30 30 29 29 30 26 25 22 22 21 21 20 20 21
12 13 13 14 16 18 17 21 23 23 25 27 27 28 23 22 25 26 25 25 27 25 28 23 26 28 28 30 29 29 30 29 31 29 30 26 26 23 22 21 22 22 21 21 21
13 15 13 14 16 18 21 23 25 25 26 24 25 24 22 24 24 24 25 24 26 27 24 24 24 23 27 28 28 27 29 31 28 26 26 27 25 21 20 21 20 19 20 21 21

GFSSW_925_temp_033.txt.gz
Temp
20 20 20 21 22 22 22 22 23 23 24 25 25 25 25 27 28 27 27 32 32 32 32 33 33 33 32 32 33 29 28 29 31 32 34 32 32 32 32 30 31 30 28 27 26
19 20 20 21 22 22 22 22 23 23 24 25 25 25 25 26 25 25 32 32 31 31 32 31 30 30 30 33 31 29 27 31 32 33 34 33 32 32 30 30 28 28 26 25 24
19 20 21 21 21 21 22 23 23 23 24 25 25 25 25 25 24 30 32 32 31 31 31 31 30 31 33 33 32 29 29 31 32 32 34 33 33 32 29 29 27 27 25 25 24
18 20 20 21 21 21 22 23 23 24 24 25 25 25 25 24 30 32 33 32 31 31 31 31 31 32 32 32 33 33 32 32 33 34 32 32 33 32 31 31 29 28 25 25 24
18 19 20 20 21 21 22 23 24 24 24 25 25 25 25 26 29 32 33 32 32 31 31 31 32 32 32 31 32 32 33 33 33 32 33 33 32 33 32 29 29 29 27 25 25
17 19 20 20 21 21 23 24 24 24 24 25 25 25 23 28 32 33 33 32 32 31 31 30 32 33 32 31 32 34 33 33 35 36 35 34 34 34 30 29 29 28 28 26 25
17 18 19 20 20 21 23 24 25 25 25 25 25 24 23 28 32 33 33 33 32 32 31 33 33 33 32 32 32 33 34 33 34 34 36 33 34 33 29 30 29 28 28 27 26
17 18 19 20 20 22 23 25 25 26 26 26 25 23 24 31 32 32 32 33 33 33 32 33 34 32 32 31 30 31 30 31 33 34 34 34 31 32 30 29 28 29 28 28 26
16 18 19 20 21 22 24 25 26 27 27 25 24 23 26 31 31 32 32 32 33 34 34 34 33 29 29 29 28 26 30 31 31 33 34 34 33 31 30 30 28 29 28 28 26
16 17 19 20 20 22 25 26 25 25 25 23 23 25 28 32 32 33 33 33 32 32 31 31 25 26 24 26 28 30 30 30 30 33 35 34 33 30 30 30 29 29 28 28 27
16 17 18 19 20 22 25 25 22 23 24 26 27 26 27 31 32 33 33 32 32 29 29 29 27 27 29 28 30 31 30 29 32 34 34 33 33 32 30 30 29 28 27 26 27
16 17 18 19 21 23 23 21 23 23 21 24 24 25 28 29 29 32 33 31 31 29 30 27 27 28 29 30 29 29 31 31 32 33 34 34 33 32 29 30 30 29 26 27 25
16 17 18 20 22 22 21 23 23 23 21 24 25 27 29 29 29 30 31 31 31 30 29 28 30 32 32 32 31 32 33 32 32 31 31 31 30 29 30 30 30 29 27 28 26
16 17 18 20 21 19 21 24 25 24 20 25 26 27 30 31 30 32 32 32 31 30 29 29 30 32 32 32 31 33 32 33 32 30 30 29 27 28 25 27 27 27 27 27 26
16 17 17 18 17 17 22 24 26 25 24 29 28 31 28 30 32 32 32 31 29 30 30 29 32 31 32 33 33 31 33 32 31 28 29 29 26 27 27 28 27 26 28 27 26
17 17 18 17 17 22 22 25 25 21 23 28 30 29 29 30 32 31 32 32 31 31 31 29 32 32 32 33 33 31 31 26 23 24 26 27 27 26 28 28 26 28 27 26 25
18 18 17 17 18 22 22 21 20 21 26 29 30 29 28 28 30 31 30 30 28 29 29 29 31 32 34 34 32 28 25 24 27 24 26 26 27 26 26 26 27 25 25 22 22
18 19 19 20 21 21 22 20 23 24 24 27 29 28 28 29 29 29 29 28 29 29 27 27 28 32 33 33 32 30 27 23 28 25 26 26 28 27 26 26 25 25 25 23 23
18 18 18 21 22 20 17 19 21 22 27 26 26 29 28 29 30 30 27 27 28 28 28 26 28 31 32 33 32 30 28 27 23 23 24 25 28 28 25 24 25 24 24 22 21
16 15 18 21 21 20 17 18 20 22 26 26 27 28 28 27 28 27 26 28 29 28 28 28 28 30 32 32 31 30 27 28 22 28 29 25 27 26 26 24 23 22 22 22 22
15 15 20 20 21 15 17 17 21 23 26 26 26 27 28 28 27 25 27 30 29 29 27 26 27 29 31 31 30 29 28 23 22 22 24 25 25 23 24 23 23 23 23 22 22
11 17 19 19 16 10 16 19 22 24 24 25 25 25 28 28 28 28 26 29 30 27 27 26 24 26 28 31 29 30 29 24 24 27 21 22 24 25 24 23 22 22 22 21 22
10 10 19 20 17 15 16 20 23 24 24 26 26 27 28 28 28 28 28 31 29 28 27 26 24 25 27 27 29 29 30 23 21 21 23 24 25 23 23 23 22 23 21 21 21
10 16 14 14 13 18 20 19 22 24 23 25 25 26 27 27 25 28 27 30 28 27 24 25 22 26 26 27 28 30 29 28 25 23 24 24 27 24 23 22 23 23 22 21 23
10 14 14 15 17 18 18 19 21 22 24 24 25 26 27 26 25 24 25 25 28 24 25 24 25 27 27 29 29 30 30 29 29 27 28 28 25 25 22 21 22 21 20 20 20
12 12 12 13 13 16 16 19 20 21 22 24 25 24 23 24 24 25 25 25 26 25 25 22 25 28 28 28 29 30 29 29 28 27 28 26 24 18 21 22 22 21 20 20 20
11 12 12 14 14 16 17 19 20 22 24 24 23 22 23 23 23 23 23 22 24 25 24 23 22 23 27 26 27 27 29 27 25 22 22 26 23 20 21 21 20 20 20 20 20

GFSSW_925_temp_036.txt.gz
Temp
19 20 21 21 21 21 21 21 22 23 24 24 25 25 25 27 28 27 27 32 32 31 31 33 33 33 32 31 30 28 27 29 30 30 32 31 30 30 30 29 29 28 25 25 23
18 20 20 21 21 21 21 22 23 23 23 24 25 25 25 26 26 25 32 32 31 31 32 31 30 29 30 32 30 28 26 30 31 32 32 31 31 30 29 29 27 24 25 23 22
19 20 20 20 21 21 21 23 23 24 24 24 25 25 25 26 26 31 32 31 31 31 32 31 30 31 32 31 31 29 29 31 31 32 33 31 32 31 28 28 26 24 24 23 22
18 19 20 20 20 21 22 23 24 24 25 25 25 25 26 25 30 32 32 32 32 32 31 31 30 32 30 32 31 32 31 31 32 31 31 32 31 30 30 30 28 25 24 23 23
18 19 19 20 20 21 22 23 24 24 25 25 25 25 26 26 29 32 32 32 32 31 30 30 31 31 32 31 31 31 32 32 32 32 31 31 31 32 30 28 27 25 24 24 23
17 18 19 20 20 21 22 23 24 25 25 26 25 25 24 29 32 32 32 32 32 31 31 30 32 32 31 31 31 32 31 31 32 33 32 32 32 33 29 27 26 25 24 24 24
16 18 19 20 20 22 22 24 25 25 26 26 26 25 23 27 32 31 32 32 32 31 30 32 32 32 31 31 30 31 32 31 33 33 34 31 31 30 28 28 26 26 25 25 24
16 17 18 19 20 21 23 24 25 26 27 26 25 24 23 31 30 31 32 32 32 32 31 33 32 31 31 31 29 29 29 30 32 33 34 34 30 32 27 27 26 27 26 25 24
16 17 18 19 20 22 24 25 26 26 26 25 24 23 25 30 30 32 32 31 32 32 32 32 31 27 28 28 27 26 30 31 30 32 33 32 31 31 27 28 26 27 26 26 25
16 17 18 19 21 22 25 26 24 24 23 22 22 25 28 30 31 32 32 32 31 30 30 29 24 26 24 26 28 31 30 30 29 31 33 33 32 29 27 27 27 26 26 26 25
16 17 18 19 21 23 25 25 20 22 23 25 26 26 26 30 31 31 31 31 31 28 28 27 26 28 30 29 29 30 29 29 29 31 32 32 32 32 27 27 27 26 25 25 26
16 17 18 19 21 22 23 19 20 20 19 22 22 24 26 28 29 30 32 30 30 29 29 26 27 28 29 29 30 29 29 29 29 31 32 31 32 31 27 28 28 27 25 26 24
16 17 18 20 21 22 21 21 20 20 20 22 24 25 27 27 28 28 30 30 30 29 28 27 30 29 30 30 31 30 30 31 31 29 30 30 29 29 29 26 28 27 26 26 25
16 17 18 20 20 19 21 22 22 21 19 24 25 26 27 27 30 30 31 30 30 28 27 28 29 31 31 30 29 31 30 32 32 29 29 27 27 27 25 25 25 25 26 26 24
16 17 18 19 18 17 22 23 23 22 23 28 28 29 27 29 30 30 31 31 29 29 28 29 31 31 30 32 31 31 31 31 29 27 28 27 26 26 25 26 25 25 25 23 19
17 17 18 17 18 22 22 23 23 21 23 26 29 28 28 29 30 29 30 31 29 29 29 28 30 31 31 33 32 29 29 25 22 23 25 27 26 26 26 25 25 25 24 22 21
17 18 18 17 19 21 21 20 20 21 24 27 28 28 27 28 29 30 29 29 27 26 28 29 30 31 32 32 31 27 25 24 26 23 25 24 25 25 25 26 26 24 23 23 21
18 19 18 19 21 21 21 19 22 23 23 24 27 26 27 27 28 28 28 27 28 27 24 26 28 31 32 32 30 29 26 23 28 25 25 24 28 27 25 24 25 25 24 22 21
18 17 17 19 20 19 17 18 20 21 25 25 25 28 27 28 29 28 26 25 27 26 27 26 28 30 31 32 31 29 28 25 21 21 24 23 26 27 24 24 24 23 23 23 22
15 15 17 18 19 19 17 18 20 21 24 25 26 26 27 27 27 26 25 27 28 26 27 28 28 29 31 30 29 30 26 27 22 27 28 24 25 25 26 24 23 24 23 23 22
14 14 17 18 19 15 17 16 20 21 22 25 25 25 26 27 25 25 26 28 28 26 27 25 27 29 29 30 28 28 26 21 21 21 23 24 25 23 25 23 22 23 23 22 22
12 16 17 17 15 9 15 18 20 23 24 25 24 24 26 27 27 24 26 27 27 25 27 26 24 26 28 29 28 29 27 24 23 26 20 22 24 24 23 23 22 22 22 22 21
10 10 17 18 16 14 15 19 21 23 23 25 24 25 26 26 26 27 26 29 27 26 25 25 23 24 26 27 28 29 26 22 19 19 22 24 25 24 22 23 22 22 21 21 21
10 15 14 11 11 17 19 19 20 22 22 23 23 25 25 26 24 26 26 28 26 26 24 24 21 24 25 27 26 29 28 24 24 23 22 23 27 26 24 22 22 22 22 21 21
9 12 12 15 15 16 17 18 19 20 22 22 23 23 25 25 25 25 25 24 27 23 24 24 25 25 26 26 28 28 28 26 27 25 27 27 24 25 23 21 22 21 20 22 21
10 11 10 12 12 16 15 18 19 20 20 22 22 24 23 24 24 26 24 25 25 25 24 21 23 26 27 28 28 28 28 27 27 25 26 26 24 22 18 20 22 21 21 21 20
9 10 10 13 14 16 16 18 19 18 21 22 22 22 23 24 23 24 23 21 23 25 23 22 22 23 25 25 28 27 27 26 23 22 24 25 25 19 20 22 22 22 21 20 19

GFSSW_925_temp_039.txt.gz
Temp
19 20 20 21 21 21 21 22 23 24 24 24 25 25 26 27 29 28 30 31 32 31 32 32 31 30 31 33 32 31 34 34 34 33 34 34 34 32 33 31 31 30 29 28 24
19 20 20 20 20 21 22 23 23 24 24 25 25 25 26 27 27 27 31 32 31 31 32 31 33 32 35 34 33 35 34 34 34 35 35 35 35 33 32 31 29 28 27 25 24
18 20 20 20 20 21 23 24 24 24 25 25 25 26 26 27 28 32 31 31 31 31 31 31 30 33 35 34 34 33 35 34 35 35 35 35 34 34 33 31 31 30 27 26 25
18 19 19 20 20 21 22 24 24 24 25 25 26 26 27 26 32 31 31 31 32 31 31 31 33 34 34 35 34 34 34 34 35 34 34 34 34 34 34 35 33 31 28 27 26
18 18 19 20 20 22 22 24 24 25 25 26 26 26 27 30 32 31 31 32 32 32 30 32 33 33 35 34 34 35 35 34 35 34 35 34 35 35 33 33 31 29 27 27 27
17 19 19 19 20 22 23 24 25 25 26 26 26 26 25 31 30 31 31 32 32 31 31 32 33 33 33 34 34 34 34 35 34 35 34 34 34 34 34 31 29 28 28 28 27
17 19 19 19 20 22 23 24 25 26 27 27 26 26 25 31 30 31 31 32 32 31 32 31 31 33 33 35 33 33 36 36 36 36 36 35 33 34 33 31 29 29 28 28 28
16 17 19 20 21 22 24 24 25 26 27 27 26 25 29 30 30 31 31 31 32 31 31 31 31 33 33 32 34 34 35 36 36 35 36 35 37 36 32 31 30 29 28 28 28
16 17 19 20 21 23 24 25 26 25 25 25 24 25 30 30 30 31 31 32 31 31 31 31 31 31 33 34 35 34 35 34 36 34 35 35 37 33 32 31 31 30 29 29 28
17 17 19 20 21 23 24 25 24 24 24 23 23 27 30 31 30 31 31 31 32 32 32 32 31 33 32 35 34 34 34 34 33 35 35 35 35 34 31 31 31 30 29 29 29
16 17 19 20 21 23 24 24 25 26 24 28 28 27 28 29 30 31 30 31 32 32 32 29 33 34 34 32 32 32 32 32 33 33 34 34 34 35 31 31 31 30 29 29 29
16 17 19 20 21 23 23 22 20 19 25 24 24 25 26 28 30 31 30 32 31 31 30 31 32 31 31 31 32 32 32 33 34 33 34 34 35 33 31 31 32 31 29 30 27
16 17 19 20 21 22 21 20 20 19 24 26 26 27 29 29 31 31 32 31 31 30 30 31 33 30 31 32 33 33 33 33 34 33 32 33 35 33 32 31 30 31 30 30 25
16 17 18 20 20 19 20 20 21 20 26 28 28 29 28 29 31 31 32 32 31 31 30 31 31 32 32 32 33 34 33 34 33 35 34 31 34 34 31 30 30 29 30 26 24
17 18 18 19 18 18 21 21 21 21 27 29 29 28 28 31 32 30 30 32 31 31 30 32 32 32 32 33 33 34 33 33 32 33 33 32 34 35 31 33 30 29 28 25 26
17 18 19 18 18 21 21 22 22 27 26 28 29 29 29 30 31 30 32 32 31 31 30 31 31 32 33 32 33 31 32 30 30 32 33 30 31 34 33 30 29 28 27 26 26
18 18 18 17 20 21 21 23 26 26 27 29 29 29 29 30 30 31 31 31 31 29 30 31 32 33 33 33 32 32 33 33 32 33 33 28 30 33 32 30 29 29 27 26 25
18 19 18 18 19 20 21 25 24 25 26 27 28 28 29 29 30 30 30 30 29 30 29 31 31 32 33 34 34 32 33 33 31 31 32 29 32 34 30 29 28 28 28 26 25
18 17 17 17 18 19 23 23 25 24 26 27 28 29 29 29 30 30 31 31 31 31 31 30 31 32 32 33 33 30 33 31 29 26 31 31 32 33 30 30 28 26 26 26 26
16 15 15 17 18 18 23 22 23 23 25 26 27 27 28 29 30 30 29 30 31 30 32 31 31 32 32 32 31 32 30 32 31 30 31 31 30 33 33 32 28 27 27 26 25
14 19 16 17 18 21 23 22 22 23 23 26 26 27 28 28 28 29 30 31 31 30 31 31 31 32 31 32 33 31 31 28 31 29 32 31 33 31 31 30 30 28 28 28 27
13 20 16 17 21 15 21 20 20 24 25 26 26 26 27 28 28 28 30 30 30 30 30 31 31 31 32 31 29 31 32 32 33 28 28 30 33 30 29 28 28 29 28 26 25
16 17 17 17 21 20 19 21 21 24 25 26 26 26 26 28 27 28 28 29 28 30 30 29 29 30 31 31 30 31 29 28 27 28 29 32 33 30 29 27 27 28 26 26 25
16 20 19 17 16 20 20 21 22 23 24 24 25 26 26 27 26 27 29 29 27 29 23 29 27 31 31 32 31 30 30 29 31 32 30 32 33 33 32 29 27 26 26 25 24
14 16 15 20 19 18 19 20 21 22 23 23 24 25 27 27 27 27 27 28 28 25 27 30 30 28 29 29 30 32 31 29 31 31 33 32 31 33 27 25 26 26 25 25 25
15 16 15 16 16 18 16 19 20 22 22 24 24 26 25 26 28 28 26 27 28 27 27 25 28 28 30 30 31 31 31 30 30 29 30 30 30 26 24 24 25 25 25 24 25
9 10 14 14 17 19 19 19 20 20 23 24 24 24 24 26 25 25 25 24 24 26 26 26 27 28 29 28 30 30 30 31 29 28 30 31 31 26 26 25 25 25 24 24 24

GFSSW_925_temp_042.txt.gz
Temp
20 20 20 20 20 22 23 23 24 24 25 25 26 26 27 27 29 28 35 33 31 31 31 33 32 33 33 36 37 38 38 37 38 38 38 39 38 37 37 35 35 34 34 34 28
20 20 20 20 21 22 23 23 24 25 25 25 26 27 27 27 26 34 32 32 31 31 33 35 36 35 36 38 38 38 39 38 39 39 39 39 38 37 36 36 34 33 32 30 29
19 20 20 20 21 23 23 24 24 25 25 26 26 27 28 27 32 35 32 31 31 31 32 34 35 37 38 39 39 39 39 39 39 39 39 39 38 38 37 36 37 35 32 31 30
19 20 20 20 22 23 23 24 24 25 26 26 26 27 28 24 35 33 32 32 32 31 33 35 37 38 39 38 39 38 39 39 40 39 39 39 40 38 38 38 37 36 33 32 31
18 19 20 20 22 23 24 24 25 25 26 26 27 27 28 34 35 31 32 32 31 32 35 36 38 38 38 39 38 39 39 39 40 39 39 39 38 38 38 39 36 35 33 33 33
18 19 19 20 22 23 23 24 25 26 27 27 27 27 29 34 31 31 31 31 33 34 36 37 37 37 38 38 39 39 39 39 40 39 39 38 39 38 39 38 35 34 34 33 33
17 19 19 20 21 23 24 24 25 26 27 27 27 27 31 34 31 31 31 33 33 34 36 35 36 37 38 38 38 39 39 40 40 40 40 39 38 37 40 37 35 34 34 34 33
17 18 20 20 21 22 24 25 26 26 27 27 26 26 34 31 31 31 32 34 33 34 34 34 35 37 38 38 39 39 39 39 39 39 39 39 39 40 39 37 36 35 34 34 32
17 18 20 21 21 23 24 25 26 26 26 26 26 29 34 31 33 33 33 35 35 35 34 33 36 37 38 38 38 39 38 38 39 39 39 38 39 39 39 37 36 35 34 34 33
17 18 19 20 21 23 25 25 25 25 24 24 25 30 34 34 33 33 33 33 35 36 36 36 37 37 38 38 37 38 38 38 37 39 39 39 39 40 38 38 37 35 34 34 33
17 18 19 20 21 23 25 25 29 30 28 33 33 32 33 33 32 34 33 34 35 36 36 35 36 37 38 39 38 38 37 37 38 38 37 38 38 39 38 37 36 35 34 34 34
17 18 19 20 22 22 23 29 25 23 30 32 31 31 31 31 33 35 33 35 34 35 35 35 36 37 36 36 37 37 37 37 38 38 38 39 38 38 37 36 36 36 34 34 33
17 18 19 20 22 22 23 24 21 22 29 33 32 32 33 32 34 35 35 35 34 34 35 36 37 35 35 36 36 37 37 37 37 38 39 38 38 37 36 36 35 35 36 34 33
17 18 19 20 22 21 25 21 21 22 31 33 32 33 32 34 34 35 35 35 34 34 35 35 37 35 35 36 37 37 38 37 37 37 37 38 37 37 36 36 35 35 35 35 34
17 18 19 19 18 24 22 21 22 24 31 32 32 32 33 34 35 34 35 35 34 34 34 35 35 35 35 37 37 37 38 37 37 37 37 37 37 38 38 37 35 34 34 33 31
17 18 19 18 17 21 20 21 24 30 30 32 33 32 32 33 34 34 34 35 36 34 34 35 35 36 37 36 36 36 36 36 37 38 36 36 36 37 37 35 35 34 33 31 31
18 18 18 18 24 19 20 26 29 30 31 32 33 33 34 34 34 34 34 33 34 32 33 34 35 37 36 36 36 36 37 35 35 36 35 36 36 37 37 35 34 34 33 32 31
18 19 18 17 17 18 23 28 28 31 31 31 32 33 33 34 34 34 34 34 35 34 35 34 34 35 37 36 36 36 37 36 33 34 36 35 35 36 36 34 33 33 33 31 30
18 16 17 18 17 18 27 27 29 30 30 30 32 32 33 33 33 34 34 34 35 34 33 34 34 36 36 37 37 36 35 37 35 35 35 36 36 37 36 35 33 33 32 31 31
16 20 21 17 17 21 27 27 29 28 29 30 31 32 32 33 32 33 34 35 34 35 36 35 34 36 35 36 35 36 37 35 36 33 33 35 35 36 36 36 34 33 33 31 30
17 24 19 17 18 26 27 28 27 28 28 29 30 30 32 32 33 33 34 34 35 35 36 35 34 35 35 35 36 35 35 36 37 35 35 34 35 37 36 35 35 33 33 31 32
21 25 19 18 25 26 27 26 19 28 28 29 29 30 30 31 32 33 33 35 35 36 34 35 35 34 35 35 35 36 36 36 35 33 35 35 36 37 36 34 33 34 32 32 31
23 23 20 20 25 25 25 25 26 27 28 29 29 30 30 31 30 32 33 33 33 35 35 35 34 33 34 35 34 34 35 36 36 35 34 35 35 37 36 34 32 32 31 30 30
23 24 24 24 24 25 24 25 25 26 27 28 28 29 30 30 31 31 32 32 32 33 25 32 34 33 35 35 36 33 34 34 36 35 35 35 35 36 34 34 32 31 30 30 29
22 22 21 24 24 24 24 24 25 26 27 27 28 28 29 29 31 31 32 32 32 26 31 34 32 34 35 35 35 35 35 34 34 36 35 36 36 34 32 31 31 31 29 29 29
22 22 22 23 22 23 19 25 25 26 26 27 27 30 30 29 30 30 31 32 33 31 32 33 32 34 34 35 35 34 35 34 35 35 35 36 35 32 31 30 30 30 29 29 29
16 17 20 17 23 24 24 24 24 24 26 27 27 27 28 29 31 30 30 30 30 31 31 31 33 32 33 34 34 33 34 35 35 35 36 34 33 32 31 30 29 29 29 29 28

GFSSW_925_temp_045.txt.gz
Temp
20 21 21 21 22 22 23 24 24 25 25 26 26 27 27 29 29 28 35 33 33 32 31 33 34 35 36 38 40 41 28 29 40 39 40 41 40 40 40 38 38 37 37 36 32
20 20 20 21 22 22 23 24 25 25 26 26 26 27 28 28 27 35 32 32 32 32 33 37 38 38 39 40 41 41 30 37 41 41 41 41 41 40 40 39 37 36 36 33 32
20 20 20 21 21 22 24 24 25 25 26 27 27 27 28 27 32 37 33 32 31 32 35 37 38 40 39 41 42 41 37 41 41 41 42 42 40 41 40 39 39 37 35 34 33
20 20 20 20 21 23 24 24 25 25 26 27 27 28 28 26 35 34 33 32 32 33 36 37 39 39 39 40 42 40 41 41 42 42 41 41 42 41 40 40 40 38 36 35 34
19 20 20 21 22 23 23 24 25 26 27 27 28 28 29 35 37 33 33 33 32 35 37 39 39 40 39 41 41 40 41 41 42 42 41 41 41 40 40 41 40 38 37 36 35
18 20 20 21 22 23 23 25 25 26 27 28 28 28 30 35 35 34 34 34 36 37 39 39 40 40 40 40 40 41 41 42 42 42 41 41 41 41 41 41 39 38 37 36 36
18 19 20 21 22 23 24 25 26 27 27 28 28 27 34 36 35 35 35 36 36 37 39 38 39 40 41 40 41 41 40 41 42 42 41 42 40 40 42 41 39 38 37 37 36
18 20 20 21 21 23 24 25 26 27 27 28 28 27 35 35 35 35 36 37 36 37 37 37 38 40 40 41 40 40 41 40 41 41 41 41 36 32 42 41 39 38 37 37 36
17 19 20 21 22 23 25 26 26 27 27 27 27 32 36 34 35 36 37 37 38 37 38 37 38 39 41 39 39 41 38 35 40 41 41 41 40 40 42 41 40 38 37 37 35
17 18 20 21 22 23 25 26 26 26 26 25 29 33 36 37 37 36 36 36 38 39 38 38 39 39 39 40 38 40 40 39 39 41 41 41 41 42 41 41 40 39 37 37 36
17 18 19 21 22 23 25 29 31 30 31 35 36 37 36 36 35 36 37 37 38 38 37 39 38 38 39 40 41 40 40 39 40 41 40 40 40 41 41 41 40 39 38 37 36
17 18 19 20 22 23 24 32 29 27 32 37 36 36 36 35 36 37 37 37 37 36 38 38 37 40 40 40 40 39 39 39 40 40 40 40 40 41 41 40 40 40 39 37 37
17 18 19 21 23 24 28 28 27 28 32 36 37 36 37 36 36 38 38 38 37 37 38 37 39 39 38 39 38 39 39 39 39 40 40 40 39 39 40 40 39 40 39 38 37
17 18 19 21 22 27 29 27 28 28 32 36 35 36 36 37 36 38 38 38 37 37 38 38 40 38 38 38 39 38 40 40 39 39 38 40 38 39 39 39 39 38 38 37 37
17 18 19 20 19 28 27 27 28 29 31 36 36 35 38 36 38 38 38 38 36 37 37 37 38 38 37 38 39 39 40 39 39 39 39 39 39 39 40 39 39 38 37 37 35
17 18 19 19 20 26 26 27 28 30 31 35 36 35 35 36 38 38 37 38 38 37 37 38 39 39 39 39 39 40 39 39 39 39 37 39 38 39 39 38 39 38 36 34 34
18 18 19 18 27 24 25 28 30 31 35 35 35 36 36 36 36 36 36 35 36 34 35 37 37 38 39 38 38 39 38 36 36 37 37 39 38 39 39 38 38 37 35 34 33
18 19 20 20 23 23 26 30 29 33 35 36 35 36 36 37 37 37 36 36 37 37 37 36 36 38 39 38 38 38 38 37 35 36 37 38 36 38 39 38 38 37 35 34 33
18 20 22 23 22 23 28 29 31 33 35 34 35 34 36 37 37 36 36 37 37 37 35 37 36 39 39 39 39 38 37 40 37 38 37 38 38 39 39 38 38 37 35 34 33
17 25 26 22 22 25 28 28 32 33 32 33 32 35 35 36 35 36 36 37 37 38 38 37 35 39 39 39 39 38 39 37 37 35 35 37 37 37 37 38 37 36 36 34 34
18 27 24 23 24 28 28 30 32 32 32 32 33 34 35 35 36 36 36 37 38 38 38 38 36 38 38 37 37 37 37 38 39 38 36 33 35 39 38 38 37 37 36 34 34
25 27 24 24 27 29 29 31 19 31 31 32 32 33 33 34 34 35 36 37 38 38 37 38 37 36 37 39 39 39 38 38 37 35 37 37 33 39 38 37 37 36 35 35 35
26 28 24 25 27 29 30 29 29 30 30 31 31 33 33 33 32 34 36 37 37 37 37 37 35 35 35 38 38 37 38 38 38 37 35 35 35 39 38 37 37 36 35 33 33
26 27 27 27 29 28 29 28 28 29 30 31 31 32 32 32 33 33 34 35 36 36 28 35 36 35 36 36 38 36 37 38 37 36 36 37 35 32 36 36 35 34 33 33 32
26 27 26 27 28 28 28 28 28 28 29 30 30 30 31 31 32 33 34 35 35 29 34 35 33 35 36 37 38 38 37 37 36 37 36 30 32 27 34 35 35 34 32 32 32
24 25 27 27 26 27 22 27 27 29 29 29 29 31 32 31 31 32 33 35 34 35 34 35 33 34 35 37 37 36 37 37 37 37 37 37 31 25 31 34 33 32 32 32 31
22 23 25 22 26 27 28 28 28 28 28 29 30 30 31 31 32 33 34 33 33 33 34 34 34 33 33 36 36 35 36 37 37 37 37 36 35 34 34 33 32 32 32 32 32

GFSSW_925_temp_048.txt.gz
Temp
20 20 20 21 22 23 24 24 25 25 25 26 26 27 28 28 30 29 34 34 34 33 32 33 34 37 37 39 40 40 33 36 37 34 36 33 33 40 39 39 38 39 38 36 33
20 20 20 21 23 23 24 24 25 25 26 26 27 27 28 28 28 33 33 34 34 33 33 37 39 39 39 40 41 38 32 34 39 42 40 37 34 35 32 34 37 37 36 34 33
20 21 21 21 22 23 24 24 25 26 26 27 27 28 28 28 31 36 34 33 33 33 33 36 39 40 39 40 41 35 35 38 40 42 42 39 35 33 32 31 35 36 35 35 34
20 20 21 21 22 23 23 24 25 26 27 27 28 29 29 26 35 34 34 34 34 33 34 38 39 39 39 39 42 39 39 41 42 42 42 42 41 35 37 36 36 38 36 35 34
19 20 21 21 21 23 23 25 25 26 27 28 28 29 29 34 37 33 34 34 33 33 36 39 39 39 39 40 42 41 41 42 43 42 42 42 42 41 37 39 41 38 37 36 35
18 20 21 21 21 22 24 25 25 26 27 28 28 28 29 34 37 34 35 35 34 36 38 39 40 41 40 40 41 42 42 42 42 42 42 41 41 41 41 41 40 38 37 36 36
18 20 21 21 22 23 24 25 26 27 27 28 28 27 33 36 37 37 36 37 38 38 40 40 40 40 40 40 42 42 40 41 41 42 42 42 39 38 36 33 37 39 38 37 36
18 19 20 21 22 23 24 25 26 27 28 27 28 26 34 37 37 37 37 38 38 38 38 39 39 39 40 41 41 40 41 37 36 37 42 41 37 38 37 31 35 39 38 38 37
17 19 20 21 22 23 25 26 27 28 28 27 27 29 35 36 37 37 37 38 39 39 39 39 39 39 40 39 39 40 38 36 37 39 42 41 38 38 38 37 40 39 38 38 36
17 19 20 21 22 23 26 28 28 27 28 25 28 33 36 38 39 38 38 38 39 39 39 39 38 38 39 39 37 36 32 35 33 39 41 41 41 41 42 42 41 40 38 38 37
17 18 20 20 22 23 25 26 31 30 30 34 36 36 38 38 37 37 38 38 38 38 37 39 38 37 38 40 40 40 34 32 33 37 40 40 40 41 41 42 41 40 38 37 37
17 18 19 21 22 24 23 29 31 31 31 36 37 38 38 37 37 38 38 37 37 36 38 38 37 39 40 41 40 40 39 38 39 41 40 40 40 42 41 41 41 41 39 38 29
17 18 19 21 23 25 27 31 30 31 32 35 37 38 38 38 37 38 39 38 37 37 38 37 39 41 40 39 39 39 39 39 39 41 41 40 39 40 41 41 40 40 40 38 27
17 18 19 22 22 27 30 30 30 31 31 35 37 38 38 39 37 39 40 38 38 37 38 38 40 39 39 38 39 38 40 40 40 39 38 40 37 38 39 40 40 39 39 38 33
17 18 19 19 19 28 30 30 30 32 30 38 38 39 39 37 39 38 39 39 37 38 38 38 38 38 38 38 39 38 41 40 40 39 39 39 39 36 39 37 38 38 38 36 34
17 18 19 21 19 25 28 29 31 30 30 36 37 36 36 37 38 39 38 39 39 38 38 38 40 39 39 40 40 40 40 39 39 39 37 38 39 37 36 36 37 37 36 35 34
17 18 19 19 27 27 28 30 29 30 36 36 36 37 37 37 37 38 37 36 36 35 35 37 38 39 39 38 40 39 38 36 35 36 36 40 39 38 38 39 38 36 35 34 33
18 19 20 21 25 26 27 29 28 33 34 38 37 38 37 37 37 37 37 36 37 37 37 36 36 38 39 38 38 38 38 36 35 36 33 35 35 38 39 38 38 37 35 34 33
19 21 20 24 23 25 28 28 30 33 36 36 37 35 36 37 38 37 37 37 38 37 35 36 37 40 40 40 39 38 37 39 37 38 36 34 33 39 39 38 37 36 35 34 33
14 23 27 26 25 26 27 27 32 35 35 35 34 36 35 36 37 37 37 38 38 39 39 37 36 39 40 40 40 39 40 37 38 34 34 37 34 32 35 37 37 36 35 35 33
16 26 27 26 26 27 27 29 32 34 34 33 33 34 35 36 37 37 36 38 39 39 39 38 37 37 39 38 38 38 37 38 39 38 32 33 28 30 25 28 37 37 36 35 35
23 26 27 27 26 28 28 30 30 34 34 32 33 33 34 35 35 36 36 38 40 39 38 38 37 35 37 40 39 39 38 38 36 36 37 36 34 35 32 38 38 37 36 35 35
23 29 27 27 27 29 30 31 33 32 32 32 32 33 34 34 33 35 36 38 38 38 36 38 36 34 35 37 39 38 38 39 38 37 35 32 34 35 34 33 34 36 35 35 34
23 27 28 28 28 28 29 31 31 31 31 32 32 33 33 33 34 33 34 37 37 37 31 34 36 35 34 36 38 36 37 38 38 36 36 35 31 29 30 26 24 35 34 34 33
24 27 28 27 28 29 30 30 30 30 31 31 31 31 32 31 32 33 34 35 37 34 35 35 33 35 36 37 37 37 37 38 37 37 36 34 30 28 27 26 26 34 33 33 32
24 26 26 28 28 29 26 28 29 30 30 30 29 31 31 30 31 32 34 34 34 36 35 35 33 34 34 36 37 37 36 28 35 38 37 37 29 26 28 29 29 33 32 32 32
24 25 25 25 28 27 28 28 29 30 31 31 31 31 30 32 33 34 34 34 34 33 33 34 33 33 32 35 36 35 37 37 38 38 38 36 32 28 27 28 30 32 33 32 32

GFSSW_925_temp_051.txt.gz
Temp
21 21 21 22 22 23 24 24 24 25 25 26 27 27 28 28 30 29 30 34 34 34 34 33 32 32 34 34 35 37 30 30 33 31 33 34 34 36 36 35 36 36 33 31 31
20 21 21 21 23 23 24 24 25 25 26 27 27 27 27 27 28 29 33 34 34 34 34 34 35 36 34 35 36 34 33 34 35 36 35 34 33 33 34 35 34 33 32 32 31
20 21 21 22 22 23 24 25 25 26 26 27 27 27 27 27 25 34 34 34 34 34 33 33 34 36 35 35 37 36 35 36 38 38 36 32 34 36 34 33 33 32 31 31 31
19 20 21 22 22 24 24 25 25 26 26 27 27 28 28 25 32 35 34 34 34 33 32 34 35 35 34 34 37 36 37 39 39 39 35 33 31 33 34 32 34 33 32 32 30
18 20 21 21 22 23 24 25 25 26 27 27 28 27 28 27 32 35 35 34 33 33 32 34 35 35 34 35 37 37 37 38 39 40 36 34 33 34 31 35 33 34 33 31 30
18 19 20 21 22 23 24 25 26 27 27 27 28 27 26 30 36 36 35 34 34 33 34 35 36 36 35 36 36 37 39 40 38 38 40 38 36 36 30 32 34 33 32 32 31
18 19 20 21 21 22 24 25 26 27 27 27 27 27 27 30 37 36 36 35 36 36 34 38 39 37 35 35 37 38 37 35 37 36 37 38 37 35 33 35 36 32 34 33 31
17 19 20 20 21 22 24 26 27 28 28 27 27 26 26 36 37 37 37 37 37 38 38 38 39 36 36 35 37 36 34 33 35 38 37 36 34 32 33 34 34 33 34 33 21
17 19 20 20 21 23 25 27 28 29 28 27 26 26 29 36 36 37 37 37 38 38 38 39 38 35 34 33 32 34 30 33 35 37 36 36 33 33 33 34 33 32 33 27 22
17 18 20 20 22 23 25 28 29 29 28 26 26 27 30 35 37 37 37 37 37 37 36 36 34 31 31 31 29 33 33 34 34 36 36 35 35 35 35 34 33 33 34 25 22
17 18 19 21 22 23 25 26 26 26 27 29 31 32 35 37 38 37 37 38 37 35 32 34 31 30 31 33 35 36 34 33 34 36 36 33 36 35 35 35 34 29 30 26 23
17 18 19 21 22 24 23 22 30 30 27 31 33 34 36 38 36 36 38 35 34 32 33 32 31 34 36 36 36 36 33 33 35 38 36 33 36 37 36 37 35 33 27 24 22
17 18 19 21 23 25 25 28 30 31 27 31 33 33 34 36 35 35 36 35 34 33 33 31 34 38 38 36 36 35 33 33 33 36 37 34 35 35 35 30 32 33 26 25 23
17 18 18 21 23 23 26 30 31 31 25 31 33 34 36 35 34 37 38 36 35 33 34 33 36 37 37 37 37 33 36 37 37 35 32 37 30 33 27 27 28 32 27 26 25
16 17 19 18 19 20 27 29 30 30 25 35 35 38 36 35 36 36 38 36 34 34 35 33 35 35 35 37 37 34 36 36 37 33 35 33 31 29 25 23 26 31 29 28 27
16 17 18 18 18 25 27 28 29 25 26 34 36 35 34 34 36 37 36 36 37 34 35 34 37 36 36 37 37 37 36 33 35 32 29 32 31 29 26 23 27 31 31 30 29
17 17 17 17 20 25 26 27 24 24 33 33 34 34 33 33 34 35 34 33 31 32 31 33 34 36 38 35 35 36 33 28 29 28 28 29 30 30 33 28 30 29 31 30 28
18 19 20 21 23 24 25 24 23 30 30 34 34 34 33 34 34 35 34 32 32 32 30 29 30 34 36 34 33 33 31 26 30 29 30 32 32 32 34 32 33 32 30 30 28
18 20 20 24 24 23 22 22 25 29 33 34 34 33 34 35 34 34 33 32 34 32 30 31 32 36 37 37 35 32 32 31 30 32 29 30 33 33 27 24 29 31 31 29 28
15 17 22 24 24 24 21 23 27 31 32 33 31 32 33 33 34 33 32 34 35 35 32 32 30 34 37 37 36 34 33 32 28 30 31 30 31 29 26 23 23 28 25 29 28
14 19 26 26 26 22 21 24 28 31 31 31 31 30 30 31 32 32 33 35 36 36 34 32 30 33 34 35 33 33 31 33 30 28 28 28 27 28 24 23 23 23 23 29 29
19 21 27 26 22 22 23 26 26 30 32 33 32 30 30 31 30 31 32 34 36 36 34 33 29 29 31 34 36 34 33 31 27 29 28 26 27 30 24 24 23 19 18 20 27
17 22 27 27 21 23 25 27 29 30 31 31 31 31 31 30 28 30 32 35 35 32 31 32 29 29 29 31 31 33 33 34 30 27 28 26 26 27 25 23 21 18 19 22 30
16 22 24 23 24 24 24 26 28 31 31 31 29 29 30 29 29 29 31 34 34 35 32 30 29 29 27 29 32 32 34 33 31 28 29 28 27 26 24 22 23 24 24 25 29
17 22 24 23 24 24 25 26 28 29 30 30 29 29 28 28 28 28 30 31 33 30 34 31 29 31 30 32 33 33 34 33 32 29 30 28 27 24 23 25 25 25 27 28 29
17 21 22 22 25 26 25 26 28 28 29 29 28 29 28 27 27 27 28 27 31 29 28 29 28 32 30 32 33 33 34 33 32 34 32 30 29 24 24 26 27 28 29 28 29
21 21 20 22 23 25 25 27 28 28 28 30 29 28 28 29 28 27 28 28 29 30 28 28 28 28 27 30 30 29 32 32 30 28 29 28 28 25 26 27 26 28 29 29 29

GFSSW_925_temp_054.txt.gz
Temp
21 21 21 21 23 23 24 24 25 26 26 26 27 27 28 29 30 30 30 34 34 34 33 32 30 31 29 29 32 31 28 28 29 30 32 32 33 35 35 32 33 32 30 30 29
20 21 21 22 22 23 24 24 25 25 26 26 27 27 28 29 29 27 34 34 34 34 33 32 33 32 29 31 32 30 27 30 31 32 32 35 33 33 34 32 30 30 30 30 28
19 20 21 21 22 22 23 24 25 25 26 26 27 27 28 28 26 31 35 35 33 33 33 32 33 33 33 33 34 34 31 35 34 34 34 34 33 34 32 32 31 29 29 29 29
19 20 21 21 21 23 24 25 25 26 26 27 27 27 28 26 31 35 35 34 33 33 32 33 33 33 33 33 34 35 34 36 37 34 35 33 32 32 32 32 32 30 30 29 24
19 20 21 21 21 23 24 25 25 26 27 27 27 27 27 26 28 35 35 34 33 32 32 32 32 32 32 33 33 35 35 36 38 35 34 33 32 33 33 32 32 31 30 26 22
18 19 20 21 21 23 24 25 26 26 27 27 26 26 25 28 35 35 35 34 33 32 32 32 32 33 33 33 33 34 35 36 35 35 34 32 32 32 33 33 31 31 30 22 22
18 19 20 21 21 23 24 25 26 27 27 27 26 26 24 28 35 35 35 36 35 34 31 34 34 33 34 33 34 34 33 33 35 36 34 33 32 32 32 31 31 31 30 21 22
17 19 20 20 21 22 24 26 27 28 28 27 27 25 25 34 34 34 34 35 36 35 34 36 36 35 35 34 32 33 31 32 34 35 34 34 31 32 32 31 30 31 28 23 22
17 19 19 20 21 22 24 26 28 29 29 27 26 25 26 33 34 36 35 34 36 36 37 37 36 33 33 31 28 28 30 32 34 35 35 34 32 33 32 31 30 29 26 23 22
17 18 19 20 21 22 24 27 28 27 27 25 25 26 28 33 35 36 36 36 34 35 34 34 29 29 27 27 28 30 31 31 32 34 35 33 32 33 33 32 30 28 26 24 21
17 18 19 20 21 22 24 26 24 25 27 27 28 28 31 34 35 36 36 36 35 34 32 31 29 28 29 28 30 31 32 32 33 35 36 33 32 33 32 32 30 27 24 23 22
16 17 19 21 22 23 23 21 25 28 25 27 28 29 31 32 31 34 37 34 33 31 31 29 28 31 31 31 31 31 32 31 32 34 34 32 33 31 32 31 32 27 25 24 22
16 17 18 21 22 23 22 24 27 28 24 26 28 29 30 32 32 33 33 32 32 31 30 28 31 33 33 32 32 33 30 31 32 34 34 33 31 31 30 31 31 29 26 24 22
16 17 17 20 22 21 23 26 27 28 21 26 29 30 32 31 32 34 35 33 32 31 30 30 32 33 33 33 32 34 32 34 33 31 29 32 28 28 25 26 26 26 25 24 23
16 16 17 18 18 18 25 26 28 27 24 30 30 35 31 31 33 35 36 33 32 32 32 30 33 32 34 34 36 33 35 34 35 33 31 31 27 28 24 27 28 26 26 24 23
16 16 17 16 16 23 24 26 27 22 23 29 34 32 32 31 33 34 34 33 33 32 32 31 33 34 34 36 36 35 35 29 27 26 28 29 29 27 25 26 26 28 27 25 24
16 17 16 17 19 23 23 22 21 21 28 30 33 32 30 30 32 32 33 32 29 31 29 30 31 32 35 35 32 32 26 25 28 26 27 29 28 28 28 26 28 28 28 27 26
17 18 20 21 22 22 22 20 22 25 26 30 30 30 31 31 31 32 31 29 29 30 27 28 28 32 35 33 32 32 27 25 29 26 28 28 30 30 27 26 27 25 24 23 23
17 19 18 23 23 20 17 18 20 24 29 29 28 30 30 31 31 30 29 29 30 29 28 26 28 33 34 34 33 31 30 28 27 27 26 27 28 28 26 26 24 24 25 25 24
16 15 18 24 22 20 17 18 21 26 28 27 27 29 28 28 29 30 30 30 32 30 29 29 29 31 34 35 33 32 31 31 24 29 28 27 29 26 23 24 23 22 22 21 23
14 15 24 24 22 16 17 18 24 26 28 28 27 29 28 28 29 29 30 31 32 32 28 28 28 32 34 32 31 31 30 28 26 24 26 26 26 25 23 23 21 22 23 23 24
12 17 24 24 19 16 18 22 25 26 27 26 28 27 29 28 28 29 30 31 31 29 30 28 26 27 31 32 33 31 31 26 25 28 24 24 23 24 22 21 23 23 24 25 25
10 14 24 25 19 18 20 24 25 26 26 27 28 28 29 29 28 29 29 31 31 30 32 30 25 26 28 28 30 32 31 29 24 23 25 25 22 23 22 21 23 23 23 24 24
9 16 18 17 17 21 22 22 24 27 27 27 28 28 26 26 27 28 28 31 30 29 26 26 24 25 26 28 30 32 32 29 26 25 26 24 21 21 21 22 21 21 22 22 24
10 15 18 18 19 19 21 22 23 24 27 28 28 28 27 27 25 26 27 26 28 26 27 26 28 29 28 29 31 32 32 31 31 28 28 24 22 22 22 23 22 21 21 22 23
13 17 17 17 19 20 18 21 24 26 26 25 27 28 27 26 26 25 25 26 28 26 25 23 26 28 30 29 30 31 31 31 31 29 29 26 25 24 23 23 22 23 23 24 25
16 18 16 17 19 20 21 24 26 27 27 26 25 25 25 26 26 26 24 23 25 27 25 24 24 23 26 27 28 27 31 31 30 29 29 27 27 25 22 23 23 23 25 26 26

GFSSW_925_temp_057.txt.gz
Temp
20 21 21 22 22 22 23 24 24 25 25 25 27 28 29 29 31 30 28 34 34 33 31 29 26 26 27 27 29 28 27 28 30 30 31 31 33 33 32 30 31 30 28 27 25
20 21 21 21 21 22 23 24 24 25 25 25 26 27 28 29 29 27 34 34 33 33 31 29 28 27 26 27 28 28 25 28 30 31 31 33 33 33 31 30 28 28 27 26 24
20 20 21 21 21 22 23 24 25 25 26 26 26 27 27 28 26 30 34 34 33 33 32 32 32 31 30 31 31 29 29 30 32 33 32 32 32 32 30 29 28 27 26 26 24
19 19 20 21 21 22 24 24 24 25 26 26 26 27 27 26 31 34 34 34 33 32 32 32 32 32 32 32 33 32 32 33 34 32 32 32 32 32 31 32 30 29 27 26 22
18 19 20 21 21 21 23 24 25 26 26 26 26 26 28 26 28 34 34 33 32 32 31 31 32 32 32 32 31 33 34 34 34 33 32 32 32 32 32 30 30 29 28 24 23
17 18 20 20 21 22 23 24 25 26 26 27 26 26 25 28 34 34 34 33 33 32 31 31 32 31 32 32 32 33 32 32 34 32 32 33 31 33 32 30 29 29 28 23 23
17 18 20 20 21 22 23 24 26 26 27 27 27 25 23 27 34 33 33 34 33 33 30 32 32 33 32 32 33 33 32 31 34 33 32 33 32 31 30 29 29 29 27 24 22
17 18 19 20 21 22 24 25 26 27 28 28 27 24 23 32 33 33 33 33 33 33 33 34 33 31 33 33 30 32 30 30 33 33 33 32 31 31 29 29 28 29 27 23 22
16 18 19 20 21 22 24 26 27 27 27 26 25 24 25 32 32 35 34 33 33 33 33 33 33 30 30 29 28 27 30 30 31 33 33 32 32 32 30 29 29 29 26 23 21
16 17 18 20 21 22 25 26 27 26 24 24 24 25 28 33 33 34 35 34 32 33 32 33 27 28 25 26 28 30 30 30 30 33 33 32 34 29 30 30 29 29 25 23 21
16 17 18 19 21 22 25 26 23 24 25 27 28 27 28 32 33 34 34 33 34 33 31 29 28 28 29 27 30 31 30 29 31 32 33 32 30 31 28 30 29 29 25 23 21
16 17 18 20 21 22 23 20 23 23 21 25 25 26 29 30 29 31 34 33 32 31 30 28 27 29 30 29 29 29 29 29 30 32 33 31 31 29 29 30 29 28 24 23 21
15 16 17 20 21 22 20 23 24 23 22 24 26 27 28 29 29 30 32 32 32 31 30 28 29 31 31 30 30 29 29 30 30 31 32 32 29 28 28 27 28 27 26 23 22
15 16 17 19 20 20 21 23 25 23 20 25 26 27 29 29 31 32 33 32 31 30 28 28 30 31 31 30 29 28 29 31 32 30 29 30 28 28 25 25 26 26 24 23 22
15 15 16 17 16 17 23 24 25 25 23 29 29 31 30 30 33 34 32 31 30 31 29 29 32 32 31 31 31 31 32 31 33 29 29 30 28 27 24 28 26 24 24 23 22
14 15 16 16 15 22 22 24 25 22 23 27 30 31 30 31 32 33 33 32 31 31 30 29 31 32 31 33 33 33 31 27 24 24 27 29 28 27 26 25 25 24 23 23 22
15 16 15 15 18 22 22 21 21 20 25 28 30 30 29 29 31 32 31 30 28 29 28 29 30 31 33 33 32 28 25 25 27 25 26 26 28 26 24 24 24 22 20 18 21
16 17 19 19 21 20 21 20 21 23 23 27 28 28 30 31 31 31 30 28 28 28 25 27 28 31 33 33 33 32 27 24 29 26 27 27 29 23 24 24 23 22 22 24 25
17 17 16 22 22 18 17 18 19 21 26 27 27 28 26 28 29 30 28 28 28 27 28 25 27 30 32 32 32 31 28 26 23 23 25 25 25 25 24 24 23 22 23 25 24
13 13 16 20 21 19 16 17 20 22 25 26 27 27 27 27 28 27 28 29 30 28 28 28 28 29 32 33 32 31 28 28 22 27 28 26 27 24 23 23 23 24 24 23 22
12 13 19 20 21 15 17 17 21 24 27 26 26 26 27 28 27 27 29 30 30 30 26 26 27 30 32 31 30 29 28 24 23 23 25 25 24 23 24 24 23 23 23 23 22
10 16 19 20 17 13 17 19 22 24 25 25 25 24 25 26 28 28 29 30 29 28 28 26 24 26 28 29 30 30 30 26 24 27 22 23 25 23 23 22 22 22 23 24 23
9 11 19 19 17 17 18 22 23 24 24 25 26 27 27 26 28 27 28 30 28 27 28 27 23 26 26 27 29 31 30 24 21 21 23 25 25 22 22 21 21 22 22 22 24
8 16 15 16 15 20 21 21 22 24 24 24 25 26 26 26 25 27 27 29 27 27 23 23 21 25 24 26 28 30 31 28 25 24 23 24 26 23 21 21 21 22 21 22 23
8 15 16 17 19 19 20 21 21 22 25 23 25 25 26 25 26 26 25 25 27 24 25 24 26 27 27 28 29 30 30 29 29 27 28 27 24 23 24 22 22 21 21 21 22
13 14 16 16 16 19 16 20 22 23 23 26 25 26 25 25 25 26 25 25 27 26 25 21 24 24 28 28 29 30 31 31 29 27 27 24 23 22 22 22 21 21 22 21 22
12 14 14 16 17 18 19 21 22 23 25 26 25 24 23 25 24 23 22 23 25 26 24 23 22 22 25 24 27 27 30 31 30 28 24 24 25 23 21 22 22 21 22 22 22

GFSSW_925_temp_060.txt.gz
Temp
20 21 21 21 21 22 23 24 24 24 25 26 27 27 28 29 30 29 29 34 33 31 29 26 25 25 24 25 26 28 26 27 29 30 31 31 31 30 30 29 29 29 26 26 25
19 20 21 21 21 22 23 24 24 24 24 25 26 27 28 29 29 26 34 34 33 32 29 26 25 25 24 26 27 26 24 28 29 30 30 32 32 30 30 29 28 26 26 25 23
19 19 21 21 21 21 22 23 24 24 25 26 26 27 27 28 26 31 33 33 33 32 32 31 30 27 27 27 28 27 28 29 31 30 30 30 32 31 28 28 27 25 24 24 23
18 19 20 21 21 21 22 23 24 25 25 26 26 27 27 26 31 33 33 32 32 31 31 31 30 29 30 31 31 30 29 31 32 33 31 30 30 31 29 30 29 26 25 24 23
17 19 20 21 20 21 23 24 25 25 26 26 26 27 27 25 28 33 32 32 31 30 30 30 30 31 31 31 31 30 32 31 32 30 30 31 31 31 30 31 28 26 25 24 24
17 18 19 20 21 22 23 24 25 26 26 27 27 26 25 27 32 32 31 31 31 30 30 30 31 30 31 30 31 32 31 31 31 31 31 30 31 31 31 28 27 26 25 24 23
16 18 19 19 20 21 23 25 25 26 27 27 27 25 24 26 32 31 31 31 32 32 30 31 32 32 31 31 31 31 32 30 32 32 32 30 31 30 28 28 27 26 24 23 23
16 17 18 19 20 21 23 25 26 27 28 28 27 24 24 32 32 31 31 32 32 32 32 32 32 31 31 31 30 30 29 29 32 33 32 32 30 30 27 27 26 27 24 23 22
15 16 18 19 20 21 24 25 26 26 26 25 24 24 25 31 31 33 33 32 32 32 32 31 31 29 29 28 27 26 29 30 30 31 32 31 31 31 27 27 26 27 23 23 22
15 16 18 19 20 22 24 26 25 24 23 23 23 25 28 31 32 33 33 31 31 31 31 30 25 26 24 25 27 29 29 28 29 31 32 31 29 30 27 27 27 26 23 22 22
15 16 17 19 20 22 24 25 20 22 23 25 27 26 27 31 32 32 33 31 32 30 30 28 27 28 29 27 28 30 29 28 30 31 31 30 29 29 28 27 26 25 23 21 22
15 15 17 18 19 21 22 20 20 20 19 22 23 24 27 29 28 29 32 32 30 29 29 27 27 28 29 29 29 28 28 27 29 30 30 31 30 28 27 27 27 26 23 21 21
14 15 17 18 20 20 19 21 21 20 20 23 24 25 27 28 27 29 30 30 31 30 28 27 29 30 30 30 29 27 28 28 29 29 30 30 28 27 28 25 25 24 22 21 21
14 15 16 18 19 18 19 21 22 21 20 24 25 26 27 26 29 29 32 31 30 29 27 27 29 30 30 29 27 28 27 30 30 29 29 29 27 27 23 23 22 22 21 21 21
14 15 16 16 15 15 22 22 22 22 22 28 28 29 27 29 31 31 30 31 29 29 28 28 30 31 31 30 29 29 31 29 30 28 28 28 27 27 25 22 23 22 22 22 21
14 15 15 15 14 20 21 22 22 21 21 26 28 29 29 29 30 31 31 30 29 30 29 28 29 31 30 32 30 31 30 25 22 23 25 28 27 26 24 24 22 21 22 23 23
15 16 14 13 16 21 21 20 20 20 24 27 28 27 28 29 29 31 29 28 27 27 27 28 29 30 31 32 30 28 25 24 27 25 25 25 26 25 22 23 22 21 21 22 24
15 17 18 18 19 20 19 19 21 22 22 24 26 25 28 27 29 29 28 28 28 26 23 26 27 29 30 30 30 30 26 24 28 25 26 25 27 26 23 23 22 21 23 24 24
16 16 15 20 20 17 16 18 19 20 24 24 25 25 25 27 28 28 27 26 27 25 27 24 26 28 30 31 30 29 27 26 22 21 24 24 24 24 23 22 21 21 22 22 23
14 12 14 18 18 17 16 17 19 21 24 24 25 26 25 25 27 26 28 29 29 26 27 27 27 28 31 31 29 29 26 26 21 27 27 24 26 24 22 22 22 22 22 22 23
12 12 17 16 18 14 16 15 20 21 24 25 25 25 25 26 26 27 28 29 28 28 25 24 25 28 31 30 28 27 26 22 21 21 24 24 24 22 24 23 22 22 23 22 22
9 15 16 16 15 10 16 18 21 23 24 24 24 24 24 26 26 28 28 29 26 27 26 25 22 25 27 29 28 29 28 23 23 26 20 22 24 25 22 22 22 23 23 22 22
7 9 15 16 16 15 16 20 21 23 23 24 23 23 24 25 26 27 28 29 26 27 27 25 23 24 26 26 28 29 26 22 19 20 21 24 25 22 21 21 22 22 22 21 22
8 15 15 14 13 18 20 20 21 23 22 22 24 24 25 25 25 26 26 27 25 26 23 22 20 23 24 26 26 29 28 25 24 23 22 23 27 26 23 21 22 22 21 21 22
8 14 15 17 17 18 20 20 21 21 22 22 23 23 23 23 25 25 25 25 27 23 24 23 24 25 26 25 28 30 29 27 28 25 27 28 24 25 24 23 23 22 21 21 22
11 13 13 15 14 18 17 19 21 21 21 23 23 23 22 23 23 23 25 24 26 25 24 20 24 24 27 25 25 29 29 28 28 25 27 26 25 23 23 22 22 22 21 21 21
11 11 11 14 15 17 18 20 21 21 23 23 24 22 23 24 24 25 23 23 25 26 23 22 21 22 26 23 26 26 27 29 28 26 25 26 27 24 24 21 22 22 21 21 21

GFSSW_925_temp_063.txt.gz
Temp
19 20 21 21 21 22 24 24 24 25 26 26 26 27 28 29 29 27 28 33 31 29 27 24 24 24 24 27 28 29 32 33 34 34 35 34 33 33 32 31 31 31 30 30 26
18 20 21 21 21 22 23 24 25 25 26 26 26 27 28 28 28 26 32 33 32 29 26 26 27 26 28 29 30 31 32 34 35 35 35 35 34 33 32 31 30 30 28 26 25
18 19 20 21 21 22 23 24 24 25 25 26 27 27 28 28 28 33 31 32 32 30 30 28 28 29 30 30 31 31 34 35 36 35 36 35 34 34 33 31 32 31 29 27 26
17 18 19 20 21 22 23 24 24 25 25 26 27 27 28 27 32 32 32 31 30 30 29 30 30 31 32 33 33 32 34 34 35 36 35 33 35 34 34 35 34 32 30 28 27
17 18 19 20 20 21 23 24 25 25 26 26 27 27 28 29 31 31 31 30 29 30 31 32 32 33 33 34 33 33 35 35 36 34 34 33 34 35 34 33 32 30 29 28 28
18 18 19 20 20 22 23 24 25 26 26 27 27 27 26 29 31 31 30 30 29 29 30 31 33 33 33 33 33 34 35 35 35 34 33 33 34 33 33 31 30 29 29 29 29
17 18 19 19 20 22 23 24 25 26 27 28 28 26 26 30 31 30 30 30 30 30 32 31 32 33 33 33 33 34 35 37 36 35 34 34 34 33 32 31 29 29 29 29 28
16 17 18 19 20 21 23 24 25 26 27 27 26 25 29 31 30 30 30 30 30 30 31 31 31 33 33 33 34 34 34 35 36 34 33 35 36 37 31 31 29 29 28 28 27
16 17 18 18 20 21 24 25 26 25 25 24 23 25 30 30 30 32 31 32 31 30 30 30 32 31 32 33 34 33 35 33 34 35 34 35 36 37 31 31 30 28 27 27 26
15 16 17 18 20 21 24 25 24 23 23 23 23 27 30 32 31 31 31 30 32 32 32 32 31 32 32 33 33 33 33 33 33 34 35 35 35 37 33 31 30 29 27 27 27
14 15 17 18 20 21 24 24 25 26 24 28 28 27 29 30 30 31 31 31 32 33 33 30 33 33 34 32 32 32 32 32 34 34 33 34 33 35 31 31 30 29 27 27 27
14 15 17 18 19 21 21 22 20 19 23 25 24 25 27 28 30 32 31 33 32 33 30 31 32 33 31 31 31 31 32 33 34 33 34 34 34 30 29 29 31 29 27 27 26
13 14 16 18 20 20 18 19 19 19 23 26 26 28 29 29 30 32 32 32 33 31 31 32 33 30 31 32 32 33 32 33 33 33 33 33 34 30 28 27 29 29 28 27 26
13 14 15 18 18 18 18 19 19 19 26 29 28 29 28 29 31 31 33 34 32 33 31 32 32 31 32 32 32 33 33 32 32 33 34 31 35 30 27 26 26 26 26 27 26
13 14 14 15 15 16 20 20 20 20 26 30 29 29 28 30 31 32 30 33 33 31 31 32 31 31 32 33 32 34 32 31 31 33 33 32 34 33 28 29 25 24 26 27 27
13 13 14 13 14 20 19 21 20 25 25 28 29 30 30 30 31 31 32 32 32 32 31 32 31 32 34 33 32 32 32 30 30 32 33 31 33 35 33 31 28 26 26 27 27
14 15 13 10 18 20 20 21 25 24 26 28 29 29 28 30 30 31 31 31 32 30 31 32 32 32 32 32 32 32 32 33 33 33 33 28 31 34 32 29 29 27 26 27 26
15 16 17 16 18 18 19 24 23 25 26 26 28 28 29 29 30 31 30 31 30 30 30 31 31 32 33 34 34 32 33 33 31 32 33 28 32 35 30 28 27 28 27 27 27
16 15 14 16 16 16 22 23 25 24 26 26 28 28 29 29 29 29 31 31 32 31 32 30 31 31 31 33 34 31 32 31 30 26 31 32 31 32 29 28 26 26 26 26 27
12 11 13 16 16 16 22 23 23 23 25 26 26 27 28 28 30 29 30 30 30 30 30 31 31 32 33 32 30 33 31 32 31 30 31 31 30 34 32 30 27 26 26 27 27
10 16 15 14 15 20 22 22 22 23 24 26 26 26 27 27 28 29 29 30 29 29 29 30 32 32 32 33 33 31 32 29 31 30 33 32 33 33 32 31 29 28 28 27 27
10 18 14 15 20 16 21 21 21 25 24 25 25 26 27 27 28 29 30 30 28 29 30 29 31 32 33 31 30 32 32 32 33 30 29 31 34 32 31 30 29 30 28 27 28
12 14 14 14 21 20 20 22 23 24 25 25 25 26 26 27 27 28 29 29 28 29 29 28 29 31 31 31 30 32 30 30 28 29 29 32 34 28 28 28 28 29 28 27 27
11 18 17 17 16 20 21 22 23 24 24 25 25 26 26 26 26 27 28 29 28 27 22 26 26 30 32 32 31 31 30 29 31 32 31 32 33 34 31 29 28 27 28 26 27
11 17 15 20 20 19 21 21 22 22 24 24 24 25 26 26 26 27 27 29 29 25 26 27 29 27 29 28 29 31 31 30 30 31 34 33 31 33 29 28 28 28 27 25 26
13 15 15 17 17 19 18 21 22 23 23 24 23 25 25 26 27 27 28 27 28 29 27 26 28 27 30 29 29 31 31 30 30 29 30 30 31 27 28 28 28 27 27 25 26
10 11 13 17 18 19 21 21 22 22 24 25 25 24 24 26 26 26 26 26 26 27 27 27 27 28 30 27 30 31 29 31 30 28 27 31 27 25 26 26 26 26 26 27 27

GFSSW_925_temp_066.txt.gz
Temp
21 21 22 22 22 23 24 24 25 25 26 26 27 27 27 28 28 25 32 34 30 28 25 27 29 29 30 33 33 35 38 38 38 38 38 39 38 37 38 36 35 35 35 35 30
20 21 21 22 22 23 24 24 25 25 26 26 27 27 27 28 26 32 32 32 31 30 29 30 32 31 34 35 36 36 38 38 39 39 39 39 38 38 36 36 35 34 33 32 30
19 20 20 21 22 23 23 24 24 25 26 26 26 27 28 28 31 36 32 31 30 29 31 33 34 34 36 37 37 38 37 39 39 40 39 39 39 39 37 36 37 35 33 32 31
19 19 19 20 21 23 23 24 24 25 26 26 27 27 28 25 35 32 32 30 29 29 31 33 34 35 37 37 38 36 39 39 40 40 39 39 40 39 38 39 39 37 35 33 33
18 19 19 19 20 22 23 24 24 25 26 27 27 27 28 34 36 31 31 30 28 30 33 35 35 37 37 38 37 37 39 40 40 40 39 38 38 39 38 39 38 37 35 34 34
17 18 19 19 20 22 23 24 25 25 26 27 28 27 29 33 31 29 27 26 30 31 34 35 36 37 37 37 37 38 38 39 40 40 38 38 39 38 37 37 36 35 35 35 34
16 17 18 19 20 22 23 24 25 26 27 28 28 27 31 34 32 29 29 29 31 33 35 35 36 36 37 37 38 38 37 40 40 40 40 38 39 38 38 36 35 35 35 34 34
15 17 18 18 19 21 23 24 25 26 27 27 27 25 33 31 31 30 31 32 32 32 34 34 35 36 36 38 37 37 38 38 39 39 39 39 39 40 38 36 35 35 34 33 33
15 16 17 18 19 21 23 24 25 25 25 25 25 29 34 30 31 33 32 34 33 33 33 33 35 36 36 36 37 38 37 38 38 39 39 39 38 40 38 37 35 34 34 33 32
15 16 17 18 19 21 24 25 24 23 23 22 25 30 33 35 34 34 33 33 36 36 35 35 36 36 36 37 35 37 37 38 37 39 38 39 39 39 38 37 36 34 33 33 33
14 16 17 18 19 21 23 25 28 29 28 33 34 34 34 34 32 34 34 33 35 36 35 36 35 35 36 37 37 36 36 36 37 39 37 38 38 38 36 37 36 34 33 33 33
14 15 17 18 19 21 21 27 23 22 27 32 32 32 32 32 33 35 34 35 35 35 36 35 35 37 36 36 35 36 35 36 37 38 37 38 38 36 35 35 36 35 34 34 33
14 14 17 19 20 19 20 24 20 21 27 32 32 33 34 32 34 36 36 36 35 35 36 35 37 36 35 35 35 36 36 36 36 38 38 38 38 37 36 34 34 36 36 34 33
13 13 16 18 20 19 24 20 21 21 29 33 32 34 32 34 34 36 36 36 36 36 36 36 37 36 35 35 36 35 37 36 36 36 36 38 37 37 37 35 33 35 35 34 33
14 14 15 16 15 21 21 20 21 23 28 34 34 32 34 34 35 35 36 37 35 36 36 35 35 34 35 36 36 36 36 36 36 36 37 37 37 38 36 36 36 34 33 33 33
14 14 15 15 15 18 19 20 22 27 28 32 33 33 32 33 34 35 34 36 37 36 36 36 36 36 36 37 36 37 35 36 36 37 36 37 37 38 39 38 38 33 32 32 32
15 15 14 11 22 17 18 24 27 27 31 32 33 33 34 34 34 35 34 34 34 33 33 35 35 36 36 35 36 35 36 35 35 36 36 36 36 37 39 38 35 35 32 31 31
15 16 14 14 16 16 21 26 26 29 31 31 31 32 32 34 33 34 34 34 35 36 36 34 34 36 36 36 36 36 36 35 33 35 36 35 35 37 38 37 34 33 33 31 31
16 17 16 16 14 15 24 25 27 29 30 30 31 31 33 33 32 33 34 35 36 35 34 35 34 36 36 37 37 36 34 37 36 36 35 37 37 38 38 38 35 33 32 31 32
12 17 20 15 15 19 25 25 28 28 29 30 30 31 32 32 32 33 34 35 35 36 37 36 34 36 36 36 35 35 37 35 36 33 33 36 35 36 37 38 35 33 33 32 32
15 21 18 15 17 23 25 26 28 29 28 29 29 30 31 31 32 33 34 33 34 34 36 36 34 35 35 35 36 35 35 35 37 36 35 34 36 38 38 37 36 35 34 33 32
17 22 17 16 23 25 25 26 23 28 29 28 29 29 29 30 31 32 33 33 32 34 33 35 35 34 35 37 36 37 36 36 35 34 35 35 36 39 39 37 36 36 35 34 33
19 21 18 18 24 25 26 25 26 27 28 28 28 29 30 29 29 31 32 32 32 33 33 33 34 33 34 35 35 35 36 36 36 35 34 34 36 38 36 36 34 34 34 32 32
17 21 22 21 23 23 25 25 26 27 27 28 28 29 29 29 30 30 32 32 32 32 24 30 33 33 34 35 36 34 35 36 35 35 35 36 36 36 34 34 33 33 33 31 31
18 21 20 23 24 23 24 24 25 26 27 27 27 28 28 28 29 30 31 32 32 25 31 32 32 32 34 34 34 35 36 36 35 36 35 36 36 33 32 32 32 32 32 31 31
18 19 20 22 21 21 21 24 25 26 27 27 27 29 29 28 29 30 31 31 32 32 32 32 32 32 33 33 34 34 35 35 35 36 35 35 34 32 32 31 30 30 31 31 30
15 16 18 22 23 22 25 25 25 26 27 28 28 28 28 28 30 31 32 31 31 31 31 31 32 32 32 33 33 33 34 34 35 34 34 35 32 31 30 29 28 29 29 29 30

GFSSW_925_temp_072.txt.gz
Temp
19 20 21 22 23 23 24 24 25 25 26 27 27 27 28 28 29 28 33 35 34 34 32 32 32 35 37 38 39 41 38 38 40 41 41 43 41 42 42 39 39 39 38 36 34
19 19 20 22 22 23 24 24 24 25 26 26 27 28 28 28 28 33 36 35 34 33 32 35 36 38 38 39 41 41 39 40 42 42 41 42 42 42 41 37 37 37 37 35 34
18 19 19 21 22 23 23 24 24 25 26 27 27 28 28 28 32 38 34 34 34 33 34 36 38 39 38 40 41 41 39 41 42 42 42 42 42 43 42 35 33 37 36 35 34
18 18 19 20 21 22 22 23 25 25 26 27 27 28 29 28 34 35 34 34 33 32 33 37 38 38 38 39 42 40 41 41 42 43 42 42 42 42 42 41 41 38 37 35 34
18 18 19 19 21 22 22 24 25 25 26 27 27 28 29 34 36 34 34 33 31 30 34 37 37 38 38 39 41 40 41 42 42 42 43 42 41 41 42 42 42 39 37 36 35
18 18 19 20 21 22 22 24 25 25 26 27 27 27 27 33 36 34 31 30 32 32 35 37 38 39 39 39 39 40 41 41 41 42 43 41 42 42 39 41 41 38 37 37 36
18 18 19 19 21 22 23 24 25 26 27 27 27 26 31 34 37 34 33 32 34 35 37 38 39 39 39 38 40 40 39 40 41 42 42 43 41 41 41 41 40 39 38 37 37
17 18 19 19 20 21 23 25 26 26 27 27 27 24 32 35 37 37 35 34 35 36 37 38 39 39 38 39 39 38 39 38 41 42 42 42 39 41 42 41 39 39 38 38 37
17 18 18 19 20 21 23 25 27 27 27 26 25 28 33 35 36 37 36 36 36 37 38 38 38 37 38 37 37 38 37 38 40 43 42 41 40 42 43 41 40 39 39 38 37
16 17 18 19 20 21 24 27 28 27 26 23 27 31 35 36 37 37 37 37 38 38 38 38 37 36 37 37 36 37 38 39 39 42 42 41 40 42 43 42 41 40 38 38 37
15 16 17 19 21 22 23 23 31 30 29 32 35 34 37 38 38 38 38 37 38 38 36 37 36 35 37 39 39 39 39 39 40 41 40 40 40 41 42 42 41 40 38 38 37
15 16 17 19 21 23 22 29 30 29 29 32 34 35 37 38 37 38 38 37 36 35 37 37 36 37 39 39 39 39 38 38 39 40 40 40 40 41 41 41 41 41 39 38 38
15 15 17 19 22 23 26 28 28 29 29 31 34 35 36 38 37 37 39 38 37 36 37 36 38 39 39 39 38 38 37 38 38 40 40 40 39 39 41 42 41 41 40 39 38
15 15 16 18 22 22 26 28 28 29 27 31 34 35 36 37 36 39 39 38 37 36 37 37 39 39 39 38 38 37 39 39 39 38 37 40 37 39 40 41 40 40 41 39 38
14 15 16 16 16 23 27 26 27 29 25 34 36 38 38 37 37 38 39 38 37 37 37 37 38 38 38 38 39 37 39 39 39 38 38 38 37 39 41 40 40 40 40 40 38
15 16 15 19 17 20 25 26 27 27 26 32 36 37 37 37 37 38 38 39 39 37 38 38 40 39 39 40 39 39 38 38 38 37 35 37 38 39 40 40 41 37 40 40 38
15 17 15 13 22 23 24 26 26 26 32 32 33 36 36 36 37 37 36 37 36 35 35 37 37 39 40 38 39 39 37 35 34 35 35 39 38 39 40 41 41 37 39 38 38
15 18 20 17 21 23 25 26 24 29 30 33 34 35 35 36 36 37 36 36 37 37 36 35 34 37 39 38 37 38 37 35 33 35 37 39 38 39 42 42 41 40 38 37 37
16 19 22 23 21 23 25 25 26 28 31 32 33 32 34 36 36 36 36 36 37 37 35 35 35 39 39 39 39 37 36 38 36 37 36 38 39 41 41 41 41 38 38 37 36
11 18 23 26 24 24 25 24 27 30 32 32 31 32 32 34 34 35 35 37 37 38 39 37 35 38 39 40 39 38 39 36 36 34 34 37 38 38 38 39 40 38 37 36 36
15 24 25 25 24 25 25 27 29 31 31 31 31 31 32 32 33 33 33 36 37 38 38 38 37 36 38 37 37 38 37 37 37 37 35 35 37 39 38 39 39 39 38 36 36
20 24 25 25 25 26 26 28 25 30 32 32 31 31 31 32 31 32 33 33 34 35 37 38 37 35 36 39 39 38 37 37 35 34 36 36 36 37 40 40 39 39 38 36 36
20 24 26 25 24 27 29 30 30 30 30 31 31 31 32 31 30 32 33 34 35 35 33 35 36 34 35 37 38 37 38 38 37 36 34 35 36 38 37 38 37 38 37 36 36
20 24 27 27 27 26 27 28 29 31 30 30 30 31 31 31 32 31 32 34 35 35 28 33 34 33 34 35 36 35 37 38 37 35 36 36 31 30 28 29 32 36 35 35 35
21 25 26 22 26 27 27 28 27 28 30 31 29 30 29 29 30 31 32 33 34 30 34 34 32 33 35 36 37 35 35 37 36 37 36 36 30 28 26 24 24 34 34 34 34
20 22 23 24 25 25 25 26 27 27 27 28 28 29 30 29 30 30 32 32 32 33 31 32 32 33 33 36 36 35 36 37 37 37 37 37 31 30 28 29 32 32 34 34 34
21 20 21 21 25 26 27 26 27 28 28 28 28 29 29 30 32 33 33 33 33 32 30 28 32 32 31 29 29 32 36 34 37 37 36 35 31 29 29 29 29 31 32 32 33

GFSSW_925_temp_075.txt.gz
Temp
20 21 21 22 22 23 23 24 24 26 26 26 27 27 28 28 30 29 28 33 34 34 34 33 31 31 32 34 35 36 32 32 36 38 37 36 37 35 35 37 36 36 33 32 31
19 20 21 22 22 23 23 24 25 25 26 27 27 28 28 28 27 28 34 34 34 34 33 33 34 35 33 35 36 35 33 35 38 39 39 39 40 37 34 33 32 33 33 32 31
18 19 20 21 22 22 22 24 24 25 25 26 27 28 29 28 26 34 35 34 34 34 34 35 35 36 34 35 36 36 35 38 39 40 40 39 39 38 32 31 32 32 32 32 31
18 19 19 20 21 22 23 24 25 25 26 26 27 27 28 28 31 34 34 34 33 33 32 34 35 34 33 34 37 36 38 39 38 39 38 40 40 39 37 34 34 34 33 32 31
18 19 19 20 21 22 22 23 25 25 26 26 26 27 28 28 31 34 34 34 32 30 32 33 33 34 33 35 36 36 37 38 38 38 39 40 40 40 38 37 36 34 33 32 31
18 18 19 20 21 22 23 23 25 26 26 26 26 26 25 28 34 35 34 33 31 30 32 33 34 35 35 35 35 36 37 37 38 38 39 39 40 39 39 37 36 34 33 32 32
18 18 18 19 20 21 23 24 25 26 26 26 26 25 26 29 34 33 32 33 32 32 32 35 36 34 34 34 36 36 35 36 37 38 38 39 38 37 38 37 36 34 34 33 32
17 17 19 20 21 21 23 25 26 26 26 26 26 23 24 32 34 35 34 33 33 34 35 36 37 35 36 35 35 34 33 32 36 38 39 39 35 38 37 37 35 35 35 34 31
17 18 18 19 21 21 23 26 27 27 26 26 24 24 27 34 34 35 36 35 35 35 35 36 37 34 34 32 30 31 31 32 35 38 39 37 37 39 38 37 35 35 35 34 32
16 17 18 19 21 21 23 26 28 27 25 23 24 26 29 33 36 36 37 37 35 34 35 34 33 31 30 29 28 30 32 33 34 37 38 37 36 37 38 37 36 35 34 33 31
16 17 18 19 21 21 22 24 27 25 27 28 29 30 33 35 36 37 37 37 35 34 32 33 30 29 30 32 34 34 34 34 35 37 36 35 37 38 38 38 35 34 33 32 31
15 17 18 20 22 23 23 19 26 28 25 29 30 31 32 33 33 35 38 34 33 31 32 32 30 33 35 35 35 35 34 33 35 37 36 35 35 36 37 37 37 34 33 33 31
15 15 17 19 22 24 22 24 27 28 24 27 29 30 31 33 32 34 35 34 33 32 32 31 33 36 36 35 35 34 34 34 33 35 35 35 33 35 36 37 37 35 35 34 31
15 16 17 17 22 21 21 26 27 27 22 27 29 31 31 32 32 35 36 35 34 33 33 32 35 36 36 35 36 32 36 36 36 33 30 35 29 31 33 35 35 35 34 34 31
15 15 16 16 16 17 23 24 25 26 21 31 32 35 33 31 33 34 36 35 33 34 33 33 34 35 35 36 36 34 36 35 35 32 33 33 30 30 32 33 33 34 34 34 31
15 15 14 16 14 21 22 24 25 22 22 29 32 32 32 33 33 34 35 36 36 34 34 34 36 36 35 37 37 37 36 34 33 31 28 30 31 33 32 33 34 35 35 34 30
15 17 15 12 17 23 22 23 21 22 29 29 30 31 32 32 33 33 33 33 32 30 31 33 34 36 37 35 35 36 32 27 27 27 28 31 31 33 35 34 34 35 33 33 31
15 18 19 20 21 21 22 21 21 26 27 30 31 31 30 32 34 34 33 32 34 32 30 30 30 34 36 34 32 34 31 26 28 27 30 33 31 34 36 36 34 34 33 33 31
15 16 18 20 22 21 20 20 23 26 28 29 29 29 29 32 32 33 32 32 34 34 32 31 31 35 36 37 36 32 32 31 30 29 29 30 32 36 36 36 33 32 33 32 31
12 14 19 24 23 23 20 20 23 26 27 28 26 28 28 30 30 30 30 33 31 34 34 33 30 33 36 37 37 34 33 31 27 29 28 30 31 30 35 33 33 32 32 30 31
13 18 25 25 24 21 20 22 25 28 29 28 28 28 29 28 29 29 30 32 32 32 32 31 32 32 34 34 32 33 33 32 29 28 27 28 28 33 35 33 32 31 31 31 31
16 19 25 25 21 21 22 25 24 28 29 29 29 29 28 29 28 28 29 31 32 32 30 31 30 31 32 35 36 34 33 33 27 28 27 28 28 28 34 34 32 31 30 31 32
14 19 24 26 21 22 24 26 28 29 29 29 28 29 29 27 26 28 29 32 33 32 31 29 28 27 31 32 34 34 35 32 29 27 29 27 28 30 28 28 27 29 31 32 30
15 19 22 23 23 23 23 24 26 29 29 29 28 28 27 26 27 26 29 31 32 32 28 28 27 28 26 29 32 33 33 32 30 27 30 29 28 27 26 27 25 24 24 23 30
16 20 21 21 21 22 23 24 25 26 28 27 25 27 26 24 25 26 28 29 31 31 30 27 26 28 29 32 34 32 32 32 32 30 30 31 26 25 26 26 24 23 21 22 24
15 18 19 19 20 22 22 23 25 27 26 25 24 26 27 24 25 25 27 26 27 29 29 27 26 24 28 32 29 32 32 33 32 31 31 30 27 26 26 26 27 23 24 23 28
17 18 18 18 20 22 23 24 25 25 27 27 26 25 25 27 28 28 28 27 27 27 28 25 24 23 26 27 29 29 27 29 27 25 26 24 23 25 26 26 25 25 27 27 27

GFSSW_925_temp_078.txt.gz
Temp
20 21 22 22 22 22 23 24 25 25 25 25 26 27 27 28 29 29 27 34 34 34 33 30 28 30 29 29 31 33 29 29 31 35 36 32 34 35 35 34 35 33 31 30 25
19 20 21 21 22 22 23 24 24 25 25 26 26 27 27 27 27 25 35 34 34 34 32 32 32 32 29 31 33 30 27 32 33 37 37 35 35 34 34 32 31 30 30 29 24
19 19 20 21 22 22 22 23 24 25 25 26 27 27 27 28 25 31 34 35 34 34 33 33 33 33 32 32 33 33 32 34 36 37 37 37 35 35 32 32 31 29 29 29 27
19 19 19 21 22 22 23 23 24 25 25 25 26 27 28 27 29 34 35 35 33 33 32 32 32 32 32 31 34 33 34 35 34 35 35 36 35 33 34 33 32 31 30 29 28
18 18 20 21 21 22 22 24 24 25 25 25 25 26 27 26 28 34 34 33 33 31 30 30 31 31 31 32 32 34 34 34 34 35 36 37 36 37 34 34 32 31 30 29 28
18 18 19 20 21 22 23 24 24 25 25 25 25 25 24 25 33 33 33 33 31 30 30 30 31 32 32 32 32 33 33 34 34 35 35 36 36 38 35 33 32 31 30 30 29
18 19 20 20 21 22 22 24 25 26 26 26 26 24 22 27 33 32 32 33 32 31 29 31 32 32 32 31 33 33 32 33 34 34 34 36 34 35 33 33 31 31 30 30 29
17 18 18 20 21 22 23 24 26 26 26 26 25 23 22 31 33 33 31 31 32 32 32 34 33 31 32 32 31 31 31 29 33 33 35 35 32 35 34 32 31 31 31 30 29
16 17 18 19 21 21 23 25 26 26 25 23 23 22 23 31 31 34 32 31 32 32 33 33 33 31 33 30 27 27 28 29 32 35 34 34 33 35 34 32 31 31 31 31 29
15 16 17 19 20 21 23 26 27 25 23 22 23 23 26 30 33 33 34 33 31 31 31 32 30 29 27 26 27 27 28 29 30 34 34 33 34 34 33 33 32 32 31 31 29
16 17 17 19 20 20 23 25 21 22 25 25 25 25 28 30 31 32 33 33 32 32 29 30 28 27 28 28 30 29 29 29 32 34 33 33 32 34 34 34 33 32 31 30 29
15 16 17 18 20 21 22 19 22 24 20 24 27 27 28 29 28 30 32 31 30 30 30 30 27 30 31 31 31 30 30 30 31 33 34 32 32 33 34 33 32 32 31 30 28
15 15 17 18 21 21 19 23 23 23 21 23 26 26 26 28 28 29 31 32 30 29 30 29 31 32 31 32 31 30 29 30 31 33 32 33 31 32 33 35 32 32 31 30 28
15 15 16 16 20 18 20 23 24 23 18 22 26 27 28 29 28 32 32 31 31 30 30 29 32 32 32 32 32 29 33 32 33 32 29 31 28 29 32 32 31 32 30 30 28
15 15 15 14 14 15 22 23 23 23 20 27 29 31 28 28 30 31 33 31 30 30 29 30 31 31 31 32 33 32 33 33 33 31 30 30 28 27 29 32 31 30 31 30 29
15 15 14 15 13 20 21 22 22 20 20 26 29 28 28 29 29 31 31 31 31 30 30 30 32 32 32 33 33 34 33 30 27 26 27 29 28 31 30 31 32 30 32 30 29
15 16 16 12 16 21 21 19 19 19 25 26 25 26 26 27 29 30 30 29 28 28 27 30 30 32 33 32 33 33 28 26 27 26 27 28 28 30 30 31 32 31 32 30 29
15 17 18 17 19 19 20 18 20 23 24 26 26 26 26 27 28 30 29 28 29 28 27 28 28 31 33 31 31 31 27 25 27 26 28 29 28 31 32 34 34 33 32 30 28
15 17 16 22 21 18 15 17 19 22 25 25 24 24 25 27 27 27 27 29 30 29 27 28 27 32 33 33 31 31 30 28 27 26 25 26 28 31 31 29 30 30 30 29 28
13 13 16 23 22 19 15 17 20 23 24 24 23 24 24 26 26 25 26 29 30 30 30 28 27 29 33 33 34 31 32 30 24 28 27 27 29 29 32 31 30 29 28 28 27
13 12 23 23 22 15 16 16 21 24 24 24 24 24 25 25 26 25 26 28 29 29 29 29 26 27 29 31 31 31 31 30 27 25 27 26 26 29 29 30 31 30 28 28 28
11 14 22 22 17 14 16 20 23 24 25 25 25 24 25 25 25 25 26 27 29 28 28 29 26 25 29 32 32 32 31 30 30 28 24 25 26 28 25 25 29 29 28 28 28
8 10 23 23 17 16 17 21 23 23 25 25 25 25 26 26 25 25 26 28 29 28 28 27 24 24 27 29 31 31 31 30 26 25 30 28 27 26 25 23 24 24 24 24 23
8 13 15 14 15 19 18 19 21 24 25 25 24 24 22 22 24 24 25 27 29 29 25 24 23 24 23 25 27 29 31 30 28 26 28 26 29 27 24 22 22 22 22 23 23
8 13 16 14 15 15 18 20 21 22 23 22 23 23 22 22 22 22 24 25 27 28 28 27 24 25 23 26 29 29 29 30 29 27 29 28 29 24 23 20 21 21 22 23 23
10 12 12 13 14 16 18 19 21 22 22 22 23 23 22 22 22 21 21 23 24 25 26 24 24 24 26 26 27 26 29 29 25 23 26 25 23 22 23 21 22 21 21 23 23
13 14 11 12 14 16 17 18 20 21 22 23 23 22 22 22 21 22 21 21 23 26 26 25 22 23 25 24 26 24 24 23 21 21 22 21 19 20 21 22 21 22 23 23 23

GFSSW_925_temp_081.txt.gz
Temp
18 19 19 21 21 22 22 23 24 24 24 25 26 26 27 28 29 27 25 33 34 33 30 28 26 27 27 27 28 30 27 26 29 31 33 32 33 34 33 31 32 31 29 27 24
19 19 19 21 21 21 22 23 23 24 24 25 25 26 26 28 27 23 34 33 32 32 30 28 28 26 26 27 28 27 25 29 31 33 34 33 32 33 32 31 29 29 26 25 22
19 20 21 21 21 21 22 23 23 24 24 25 25 26 26 27 25 30 34 34 33 32 31 31 32 31 29 30 31 30 30 32 33 33 34 33 33 33 30 29 28 27 24 24 22
18 19 20 21 21 22 22 23 24 24 25 25 25 26 26 26 29 33 34 34 33 32 31 31 31 30 30 31 32 32 32 32 33 33 33 33 33 33 32 32 30 27 25 24 23
18 19 19 20 21 22 23 23 24 24 25 25 25 25 26 25 26 33 33 33 33 31 30 29 29 29 30 30 32 32 33 32 32 32 34 34 33 34 32 31 30 28 25 24 23
18 19 18 19 20 21 22 23 24 25 25 25 25 25 24 24 32 32 32 31 31 30 29 28 29 29 30 30 31 32 32 31 32 33 33 34 34 33 32 30 29 29 27 26 25
16 18 18 19 20 21 22 24 24 25 25 26 26 23 22 26 32 31 31 32 31 30 29 30 30 31 30 30 32 32 32 31 32 33 33 34 34 34 31 30 29 29 28 28 27
15 17 17 18 19 20 22 24 25 25 26 26 24 22 22 30 31 32 30 29 30 31 30 31 31 30 30 30 29 31 29 30 32 32 33 33 30 34 31 30 29 29 29 28 27
15 16 17 18 19 20 23 25 25 25 24 22 21 21 24 29 29 31 31 29 31 30 31 30 31 29 30 29 26 25 27 28 29 33 33 34 31 32 31 30 29 29 29 28 27
16 16 17 18 19 20 23 25 24 24 23 21 22 23 26 28 29 30 30 31 29 30 30 30 27 27 24 25 26 26 28 28 29 30 31 30 31 31 31 30 29 29 29 29 28
15 15 16 18 19 20 23 24 18 19 22 23 23 24 25 28 29 29 30 30 29 29 28 28 27 25 27 26 29 28 28 27 29 31 31 30 29 31 30 30 30 29 29 29 28
14 15 16 17 19 20 20 18 19 20 16 21 23 24 26 27 26 28 30 28 27 26 27 28 26 28 29 28 28 28 28 27 28 30 29 29 30 31 30 31 30 30 29 29 27
14 14 14 18 19 20 18 21 20 19 19 21 23 24 24 25 25 27 29 29 29 27 27 28 29 30 30 29 29 28 27 28 28 30 30 30 29 30 31 31 31 31 30 30 28
14 14 14 16 18 17 19 21 21 20 18 22 25 27 28 27 26 29 29 29 27 28 27 27 29 30 29 29 28 26 29 30 30 28 28 30 27 28 30 28 29 31 30 30 28
14 14 14 14 14 14 21 21 21 21 21 27 27 29 26 28 28 30 31 27 28 28 27 27 29 28 29 30 29 29 31 29 29 28 28 29 26 27 29 30 29 28 30 30 28
14 14 14 14 12 19 20 20 21 20 20 24 26 25 25 26 27 29 29 30 29 27 28 28 30 30 30 32 30 31 31 28 24 23 24 27 26 28 28 30 31 28 30 29 28
14 16 15 13 15 19 19 18 18 19 23 23 23 24 23 25 26 27 27 28 26 25 26 28 28 30 31 30 30 31 26 26 25 24 25 26 26 27 29 30 30 30 29 29 28
14 17 17 17 17 18 18 18 21 22 22 24 24 23 25 24 25 26 25 25 27 26 24 25 27 28 30 29 28 27 24 23 26 25 27 26 26 29 30 30 29 29 30 29 28
16 17 19 20 20 18 16 17 19 20 23 22 22 22 23 25 25 24 25 25 27 29 26 23 26 29 30 30 30 29 26 26 27 24 24 25 26 29 31 29 27 27 28 29 28
14 14 18 20 20 19 15 17 19 21 22 23 22 23 22 23 23 23 24 27 26 28 27 28 26 28 30 31 30 29 30 29 25 26 26 25 27 27 30 30 28 28 28 28 28
13 12 19 19 19 14 16 15 19 21 23 23 21 21 22 23 24 24 25 26 27 27 27 26 24 26 28 28 28 28 28 28 27 24 24 24 24 25 28 27 26 26 27 27 26
10 15 19 18 16 11 16 18 20 22 23 22 22 22 22 24 24 25 25 26 27 27 26 26 22 24 26 27 29 29 29 27 26 25 21 23 24 27 23 23 25 26 26 26 25
7 8 19 20 16 15 15 19 21 22 22 23 23 24 24 23 23 24 24 27 27 27 26 26 22 21 23 25 28 29 28 29 25 23 25 24 27 25 22 22 24 24 25 25 24
8 13 12 11 12 17 17 17 20 22 22 22 23 22 22 21 22 22 22 25 26 26 25 22 20 23 23 25 26 25 28 27 27 24 25 25 25 22 22 20 20 20 22 22 21
7 12 13 13 14 14 16 17 19 19 21 21 21 21 22 21 19 20 21 21 25 25 25 23 24 21 22 23 27 26 27 28 25 25 26 23 21 20 19 19 19 19 20 20 20
10 11 10 11 11 14 15 17 18 18 19 21 21 21 21 22 21 19 20 19 22 24 23 21 23 23 24 25 26 25 25 25 23 25 23 22 21 21 20 20 20 20 21 21 19
11 11 10 11 12 14 15 16 17 17 19 21 21 20 20 22 21 20 20 20 21 23 21 22 22 20 23 25 23 24 22 22 21 20 22 22 20 20 19 20 19 19 20 21 20

GFSSW_925_temp_084.txt.gz
Temp
18 19 20 20 21 21 22 22 23 24 24 25 25 26 26 27 28 27 25 32 32 31 30 26 25 25 25 25 26 27 26 26 29 30 31 31 32 31 31 30 30 29 27 26 23
18 19 19 19 20 21 22 23 23 24 24 25 25 25 26 26 27 23 33 32 32 31 29 26 25 25 24 25 26 26 24 28 30 32 32 32 32 31 30 29 29 26 24 24 22
18 19 18 19 20 20 21 22 23 24 24 25 25 25 26 27 24 29 31 31 31 31 31 30 29 26 26 26 27 27 28 30 31 31 32 32 32 32 29 28 28 26 23 23 22
18 18 19 19 20 21 21 22 23 24 24 25 25 26 26 26 29 32 32 31 32 29 29 30 29 29 28 28 30 30 29 31 32 31 32 32 32 31 30 31 31 27 24 23 22
17 18 18 19 20 20 22 22 23 24 25 25 25 26 26 25 25 32 32 31 30 28 29 29 29 29 28 28 30 30 31 31 31 30 30 32 33 32 30 31 28 26 24 23 23
16 17 18 18 19 20 21 23 24 25 25 26 26 25 24 24 31 32 31 30 30 29 28 28 28 27 28 29 28 30 31 31 30 31 33 32 31 31 33 28 26 25 24 23 23
16 16 17 18 19 20 21 23 24 25 26 26 25 23 22 24 31 29 29 29 30 30 28 28 30 29 28 28 29 30 31 30 32 32 33 32 33 33 33 28 27 25 25 24 23
15 15 16 17 18 19 21 23 24 24 25 25 23 21 22 28 29 29 30 29 30 28 29 30 29 27 28 29 28 28 28 28 30 31 33 32 30 31 28 27 27 26 26 25 24
15 15 16 17 18 20 23 24 24 23 23 22 21 22 23 28 28 29 29 29 29 28 28 29 29 27 28 27 25 25 26 27 28 30 33 32 31 30 28 28 27 27 27 26 25
15 15 16 17 18 19 22 24 23 22 22 21 21 22 26 27 27 28 29 29 28 28 27 27 26 25 23 24 25 25 27 27 27 30 29 29 29 29 29 28 27 27 27 27 26
14 14 15 17 18 19 21 23 17 19 20 22 22 23 24 26 27 27 29 28 28 27 26 26 24 24 26 25 27 28 27 26 26 29 30 28 27 29 29 28 28 27 27 27 27
14 14 15 16 18 20 20 16 18 17 15 19 19 20 23 25 24 25 28 27 27 26 26 26 23 26 28 26 27 27 27 26 26 28 30 28 28 29 28 28 28 28 28 27 26
13 14 14 17 18 19 17 18 18 17 17 20 22 23 24 24 23 24 26 26 26 26 25 25 26 28 28 28 28 26 26 26 26 27 28 28 26 28 29 27 28 28 29 28 27
13 14 14 16 18 17 18 18 18 17 17 22 25 26 26 26 25 26 27 27 27 26 26 24 26 28 28 28 27 26 27 28 27 27 25 29 24 26 28 28 27 28 28 28 28
13 14 14 13 13 13 20 19 19 18 22 24 25 27 23 26 27 29 29 26 26 26 26 26 27 26 26 28 27 27 28 28 28 26 26 27 25 25 27 29 26 27 29 29 29
13 14 14 13 11 18 19 19 20 19 22 23 24 23 22 24 26 26 27 28 27 25 26 26 28 27 27 28 27 30 29 26 21 22 23 25 25 25 27 30 30 27 28 29 29
14 16 14 12 14 17 18 17 18 19 22 22 22 22 21 23 24 26 25 24 25 25 24 26 26 28 30 29 28 29 24 22 24 23 24 24 24 24 27 28 28 29 26 28 29
15 16 16 16 16 17 18 18 21 22 21 22 22 21 22 23 24 23 23 23 25 25 23 23 24 27 28 28 27 25 23 22 24 23 24 25 26 27 28 27 27 27 26 27 28
15 17 17 17 18 17 16 17 19 20 22 22 20 22 22 24 24 22 23 24 25 26 24 23 25 27 28 28 28 27 25 25 26 22 23 23 24 26 27 28 28 26 26 25 27
14 14 17 18 18 18 15 17 19 19 21 22 21 22 21 22 22 22 23 25 25 26 24 24 24 27 29 29 29 28 27 26 24 23 23 23 24 26 27 26 25 26 26 25 26
14 14 16 18 18 14 15 16 18 20 21 21 21 21 21 22 23 23 24 25 26 25 24 24 23 25 27 28 27 27 26 27 26 24 23 23 23 23 24 22 21 22 24 25 25
10 16 18 18 15 9 16 18 19 21 22 21 21 20 21 22 22 23 23 24 25 24 23 24 20 23 26 27 26 27 27 26 24 24 23 22 25 21 20 20 20 20 22 23 23
7 8 17 18 15 14 15 18 20 21 21 22 22 22 22 22 21 22 23 23 24 24 24 23 20 21 23 25 26 26 27 26 24 22 24 23 26 20 20 19 20 20 21 21 21
8 14 12 10 10 16 15 17 18 20 20 21 21 21 21 21 20 20 21 23 24 24 24 21 20 21 22 23 24 24 24 25 24 21 23 24 26 21 19 19 19 20 21 21 21
7 11 11 13 13 14 15 16 18 17 19 19 21 21 20 21 19 20 20 20 22 24 23 22 22 21 21 22 23 24 23 24 24 24 26 24 22 21 19 19 20 21 20 20 20
10 10 9 10 10 15 14 16 17 17 17 19 19 19 20 20 20 19 19 18 19 21 22 19 23 22 23 24 24 24 22 22 22 22 21 21 21 20 20 20 21 21 20 19 19
9 9 9 10 11 13 13 15 16 15 17 18 19 18 18 19 20 19 18 19 20 19 18 19 19 20 21 21 23 22 21 21 21 20 20 22 20 20 20 19 19 19 19 19 19

GFSSW_925_temp_087.txt.gz
Temp
18 18 19 20 20 21 22 23 23 24 24 25 25 26 26 27 27 24 25 30 30 29 27 23 25 25 25 27 28 29 31 33 33 33 35 36 35 33 34 32 32 31 31 30 25
17 18 18 19 19 20 21 22 23 24 24 25 25 25 26 27 26 24 30 30 29 29 25 26 27 27 28 29 29 30 31 33 34 35 35 36 35 34 33 32 31 29 28 26 24
17 18 18 19 19 20 20 21 22 24 25 25 25 25 25 26 26 32 31 31 30 28 28 28 28 29 29 29 30 31 33 34 34 35 35 35 35 35 34 32 34 32 28 27 25
17 17 18 19 19 20 21 21 22 24 25 25 25 25 25 26 32 31 31 31 32 29 28 29 29 29 30 31 32 31 33 34 35 35 35 35 36 35 35 37 35 33 29 27 27
16 17 17 18 19 20 21 22 23 23 25 26 26 26 26 27 29 31 30 29 28 28 29 31 31 31 31 31 31 31 34 34 35 33 34 35 35 36 35 36 33 30 28 28 28
16 16 17 18 18 20 21 22 23 24 25 26 26 25 24 27 30 30 28 28 28 26 29 30 32 32 31 31 31 32 33 33 34 34 34 35 36 35 37 34 31 29 28 29 28
15 15 16 17 18 19 21 22 22 24 25 25 25 23 24 29 29 28 28 28 29 29 30 29 30 31 31 31 31 32 32 34 35 35 35 35 34 34 36 33 31 29 29 29 28
14 15 16 17 18 20 22 22 23 23 24 25 23 21 27 28 28 28 29 28 29 27 27 29 29 31 30 31 31 32 31 32 35 33 35 34 35 36 35 33 32 30 29 28 28
14 15 16 17 18 19 22 23 23 22 23 22 21 22 27 28 28 28 28 29 28 27 26 29 29 30 30 31 31 30 32 31 32 33 33 34 33 35 34 34 33 30 29 29 28
14 15 15 17 17 19 22 23 22 22 22 22 21 24 27 29 27 28 28 28 30 29 28 29 29 30 30 31 31 33 30 30 31 33 34 33 33 35 35 34 33 32 30 29 29
14 14 15 16 17 19 22 22 23 24 21 24 24 24 26 26 25 27 28 28 29 29 30 28 29 29 31 32 33 31 30 30 31 32 31 32 32 34 35 34 33 32 30 30 30
14 14 15 16 17 20 20 20 18 18 21 21 21 21 22 24 26 29 26 28 29 30 28 28 29 30 31 31 30 30 30 31 31 31 32 33 33 34 34 34 34 33 31 31 30
13 14 14 16 18 18 17 16 16 16 21 24 24 25 27 25 27 28 28 28 29 28 29 30 31 30 30 30 30 31 30 31 30 32 31 31 33 33 35 34 34 33 32 32 31
13 13 13 16 17 15 17 16 17 16 24 26 27 28 28 26 27 28 28 29 28 29 29 29 30 30 30 30 31 30 32 31 31 31 31 31 31 33 34 33 33 35 33 32 32
13 13 12 13 13 15 17 17 17 18 27 26 27 27 27 28 28 30 28 28 29 29 28 30 29 29 30 31 31 31 32 31 32 31 29 31 31 33 33 33 34 35 34 34 33
13 13 13 13 12 17 17 18 18 24 25 25 26 25 26 27 27 28 28 28 28 28 28 29 29 29 32 31 31 31 30 29 28 30 30 31 31 33 33 34 35 35 34 34 34
14 15 15 14 16 16 17 19 24 25 24 24 25 25 24 26 27 27 27 28 28 27 28 28 30 30 30 30 30 30 30 29 29 29 30 29 29 32 34 34 34 34 34 33 33
15 16 17 16 16 17 17 24 24 23 23 24 24 24 25 26 27 26 27 28 27 28 27 27 29 29 31 30 31 30 31 30 28 29 31 28 31 33 33 32 33 32 31 31 31
16 17 17 17 17 17 22 23 23 23 23 23 24 24 25 25 25 26 27 27 28 27 26 27 28 30 29 32 32 29 29 32 30 28 28 31 31 33 34 33 30 29 28 29 29
14 14 16 18 17 17 23 20 21 22 23 23 23 23 24 25 25 26 26 28 27 27 26 27 27 30 30 30 31 31 31 30 29 28 28 30 30 31 32 29 28 28 27 28 29
13 19 18 17 17 21 22 21 21 23 22 23 23 23 24 24 24 25 26 27 27 27 27 27 26 29 29 30 30 30 30 30 30 29 29 28 30 31 29 25 25 26 25 27 28
12 21 18 19 22 16 21 20 19 23 23 23 23 23 24 24 24 25 25 25 27 26 25 26 26 27 28 30 28 29 29 30 30 27 29 30 30 24 24 24 24 24 23 24 27
14 15 18 17 21 20 19 20 21 22 22 23 23 23 23 24 23 24 25 26 26 25 26 26 26 26 28 29 29 27 27 28 27 27 29 30 30 23 24 24 23 24 23 22 23
14 20 19 17 15 19 19 20 21 21 22 22 23 23 23 23 23 23 24 25 26 25 23 24 25 26 26 27 27 26 27 26 27 27 29 30 31 23 22 22 22 23 22 22 21
13 15 13 19 18 17 17 18 20 21 21 21 22 22 21 22 23 23 24 24 25 25 25 24 25 25 26 26 26 26 28 26 26 25 25 28 29 22 21 21 22 22 22 22 22
15 15 13 15 14 16 16 18 19 19 19 22 21 21 21 21 23 22 23 22 22 24 23 24 24 25 25 27 27 26 26 25 24 23 26 24 22 21 20 21 21 22 23 22 22
9 9 14 13 15 17 18 18 18 17 20 20 20 19 21 22 22 22 22 22 22 22 22 21 23 24 25 26 26 26 23 23 21 21 21 22 23 21 20 20 19 19 20 20 20

GFSSW_925_temp_090.txt.gz
Temp
18 19 19 19 20 21 21 22 22 23 24 24 25 25 26 26 26 21 29 31 29 27 25 28 29 29 30 33 33 34 36 37 38 38 38 41 40 40 38 38 36 36 36 35 30
17 18 18 19 19 20 21 22 22 23 24 25 25 25 26 26 24 30 31 30 30 27 29 30 31 31 33 34 34 35 37 38 39 39 39 39 40 39 37 37 35 35 34 32 30
17 18 18 19 19 20 21 21 22 23 24 25 25 25 26 26 30 35 30 30 30 28 30 32 32 33 34 35 36 36 35 39 39 39 39 39 40 40 39 38 38 36 33 32 31
17 17 18 18 19 20 20 21 22 23 24 25 25 25 25 24 34 32 30 29 27 29 31 32 33 33 34 35 37 35 37 38 38 39 38 38 39 39 40 40 40 39 36 33 32
16 17 17 18 19 19 20 21 22 23 24 25 25 25 25 31 33 28 29 29 26 29 32 34 34 34 35 36 36 36 37 38 38 38 37 38 38 39 39 41 39 38 35 34 33
15 16 17 17 18 19 20 21 22 23 24 25 25 25 26 30 30 28 28 26 29 30 32 34 35 36 35 35 35 37 37 37 38 38 38 37 38 39 40 40 38 36 35 35 34
15 15 16 16 17 18 20 21 22 24 24 25 25 24 29 32 29 29 28 30 30 31 34 34 34 34 35 35 36 35 35 37 38 39 39 38 37 38 40 39 38 36 36 35 34
14 15 15 17 18 19 21 22 22 23 23 24 24 23 31 29 29 29 30 31 31 31 31 33 33 34 34 36 35 35 36 36 39 37 38 37 37 39 41 39 38 37 36 35 34
13 15 16 17 18 19 22 22 23 23 22 23 23 27 32 29 31 31 31 32 32 31 31 31 33 34 35 34 35 36 35 37 37 37 37 37 36 38 39 39 38 39 36 35 34
14 15 15 17 18 19 21 22 22 23 23 20 23 28 32 31 30 30 31 30 32 33 32 32 33 33 34 35 34 36 36 37 35 37 37 36 37 38 39 39 39 39 37 35 35
14 15 14 16 17 20 21 24 28 29 28 28 29 29 31 30 30 31 30 31 33 33 33 33 33 33 34 35 35 36 36 35 36 37 35 36 36 37 38 39 39 39 37 35 35
13 14 13 15 17 20 21 26 21 21 27 28 27 28 28 28 31 32 30 32 32 32 34 33 32 34 35 35 34 35 34 34 36 36 35 36 36 37 38 38 39 39 38 36 35
12 13 13 17 18 19 21 21 18 19 27 30 30 30 31 30 31 32 32 33 32 33 34 33 35 35 33 33 33 34 34 34 35 36 36 35 35 37 38 39 39 39 39 38 36
14 13 13 17 19 18 22 18 18 18 30 30 31 31 32 32 31 32 32 32 32 32 33 34 35 34 34 33 34 33 35 35 34 34 34 36 33 35 37 38 39 40 40 38 37
14 13 14 13 15 21 19 18 19 21 31 29 30 30 32 31 32 32 32 32 32 32 32 33 33 33 32 34 35 34 35 35 34 34 34 35 34 35 37 37 38 40 40 40 39
14 14 14 13 14 17 17 18 21 29 29 29 30 30 31 32 31 32 32 33 32 32 32 32 34 33 33 34 34 35 34 34 34 34 33 34 34 35 36 37 38 39 40 39 38
15 16 16 13 22 17 17 23 29 30 28 28 28 30 30 30 31 31 31 32 31 30 31 32 34 34 34 33 34 33 33 32 31 32 32 35 35 35 37 37 36 36 36 36 36
17 17 17 16 16 16 21 28 27 27 28 28 28 30 29 30 31 31 31 31 31 31 31 31 31 33 34 33 33 33 33 32 30 32 33 35 32 35 37 37 35 35 34 35 35
17 18 19 19 18 18 26 28 28 27 27 27 29 29 29 29 29 30 31 31 30 30 28 30 30 33 34 33 33 33 32 34 33 33 33 34 35 36 36 37 37 35 35 35 35
15 20 22 18 17 22 27 24 26 26 27 27 27 28 28 28 29 29 30 30 30 30 31 30 28 32 33 34 34 33 34 32 32 30 29 32 33 34 35 35 36 35 34 32 33
18 25 21 20 19 26 28 26 26 27 26 27 27 27 27 27 28 29 29 30 30 30 30 30 30 30 32 32 32 32 32 33 33 32 28 29 32 35 35 35 32 32 30 29 31
20 25 21 21 26 26 26 25 19 26 27 27 27 27 27 27 27 28 28 29 29 29 28 30 29 29 30 33 32 32 29 29 30 30 32 32 33 34 32 31 30 30 28 26 25
22 23 22 22 26 26 25 25 25 26 26 26 27 27 27 27 26 27 28 29 29 28 28 28 28 28 30 32 31 30 29 30 29 29 29 30 32 31 30 30 27 27 26 23 22
21 24 24 24 23 24 24 25 25 25 25 25 26 27 26 26 27 26 27 28 28 28 23 26 27 27 28 29 31 29 29 31 27 27 27 29 29 30 27 26 25 26 23 22 21
21 22 20 24 24 23 23 23 24 25 25 26 26 26 25 25 26 26 27 27 28 28 28 27 25 27 29 29 30 30 30 30 29 29 25 23 28 29 26 24 24 26 25 25 26
20 21 21 22 20 22 19 24 24 25 24 25 25 25 25 24 25 25 26 26 26 27 27 27 25 27 27 29 30 30 30 30 30 29 28 29 29 27 22 23 23 22 24 24 23
16 16 19 17 22 22 24 23 23 22 24 24 24 24 25 25 25 25 26 26 26 25 25 25 25 26 26 29 29 28 30 29 27 26 26 27 24 25 22 23 23 23 23 23 22

GFSSW_925_temp_093.txt.gz
Temp
18 18 19 19 20 20 20 21 22 22 23 24 25 25 25 26 26 21 32 33 31 30 28 30 32 33 34 36 37 38 37 39 40 40 40 42 41 43 42 41 39 39 39 37 33
18 18 18 19 19 20 20 21 22 22 23 23 25 26 25 26 24 31 32 32 30 29 30 33 35 35 36 37 38 37 38 39 42 41 41 41 41 42 41 41 39 38 37 36 33
17 18 18 18 19 19 19 20 21 22 22 23 25 26 26 26 30 35 32 31 30 29 33 34 36 36 36 39 39 39 38 40 40 41 41 41 41 42 42 41 41 39 37 35 34
16 17 17 18 18 19 19 20 21 22 22 24 25 25 26 25 34 32 31 31 30 29 34 35 36 36 37 38 40 38 39 40 40 41 41 40 41 41 41 42 43 42 38 36 35
15 16 16 17 18 19 19 20 21 22 23 24 25 25 25 31 35 29 31 31 27 28 34 36 36 36 36 38 39 39 39 40 41 41 41 41 40 40 41 42 43 42 39 36 36
15 15 16 16 17 18 19 20 22 23 24 24 25 25 26 33 33 32 31 27 31 32 35 36 37 38 37 37 38 39 39 39 40 40 41 40 40 41 41 43 42 40 39 38 37
15 15 15 16 17 18 19 20 21 23 24 24 25 24 31 34 33 32 32 31 33 34 36 36 36 37 37 37 39 38 37 39 40 41 41 41 40 40 42 42 42 40 39 39 37
14 15 15 16 17 19 20 22 23 24 23 24 24 24 33 33 33 32 33 34 34 34 34 35 36 37 36 38 38 37 38 37 40 41 40 40 37 41 42 42 42 41 40 39 38
13 15 16 17 19 20 22 23 23 23 23 24 23 29 35 32 33 34 34 34 35 35 35 34 35 36 36 36 36 37 36 38 39 41 40 39 38 40 41 41 40 40 41 39 38
14 16 16 18 19 21 23 24 24 23 24 23 27 31 34 34 34 33 34 33 35 36 35 34 35 35 36 36 35 36 38 39 39 41 40 39 39 40 41 41 41 41 41 41 39
14 15 16 17 19 21 22 25 30 29 32 32 33 33 34 33 33 34 34 34 35 35 34 36 35 35 36 37 37 37 37 37 38 40 39 38 38 39 40 40 41 41 41 41 39
15 15 16 18 19 22 22 29 25 25 30 33 32 33 33 32 34 35 34 34 34 34 36 35 35 36 37 37 37 37 36 36 38 39 38 38 38 39 40 40 40 41 41 41 40
14 14 15 19 20 22 26 25 24 25 29 33 34 34 34 34 34 35 35 36 35 35 36 36 37 38 36 36 36 36 35 36 36 38 38 38 37 38 39 40 40 41 41 42 40
14 15 16 20 20 24 27 24 24 24 31 33 34 34 35 35 34 35 35 35 35 35 35 35 37 36 36 36 37 35 37 37 37 36 35 38 36 38 39 39 39 41 41 41 40
16 16 17 16 17 26 24 24 24 26 33 33 34 34 35 34 35 35 35 35 34 34 35 35 35 35 35 35 36 35 37 36 36 36 36 36 36 37 38 38 39 40 41 42 41
17 17 19 17 19 23 23 24 25 30 32 33 33 34 34 35 35 35 35 35 35 34 35 35 37 36 35 36 36 36 35 35 36 36 34 35 36 36 38 38 39 40 41 40 40
18 18 19 18 26 23 23 27 31 33 32 32 33 33 34 34 34 34 34 35 33 32 34 35 36 37 36 35 36 36 35 33 33 33 33 36 36 36 38 39 39 39 38 38 39
19 18 20 20 21 23 25 30 30 32 32 32 32 33 33 33 34 33 34 34 34 33 32 33 33 35 36 35 34 34 34 33 31 33 34 36 34 36 39 39 38 38 38 38 38
20 23 24 25 22 23 28 31 32 31 31 31 33 32 33 33 32 33 33 33 33 33 30 31 32 34 35 36 35 34 34 36 34 34 33 35 35 37 38 38 38 38 38 37 36
16 25 27 24 24 26 29 29 31 30 30 31 31 31 31 32 32 32 32 33 32 32 33 32 30 33 34 35 36 34 35 33 34 31 30 33 33 34 35 35 37 38 37 35 34
18 28 26 25 25 28 30 31 30 30 30 30 31 30 31 30 31 32 32 33 32 31 32 32 32 31 33 33 33 33 33 29 31 32 29 31 33 35 35 31 33 34 35 33 32
24 28 26 26 28 30 31 30 18 30 30 30 30 30 30 30 30 31 31 31 32 31 30 31 30 29 31 34 34 34 24 23 31 23 23 27 30 27 28 35 34 33 31 29 28
25 28 27 27 28 31 30 29 29 29 30 30 30 30 30 29 28 30 30 31 31 30 29 29 29 28 30 33 30 30 28 23 31 31 29 26 25 28 23 22 31 29 27 25 25
24 27 29 28 29 27 29 28 28 29 28 29 29 30 29 29 30 29 29 31 31 31 25 28 29 28 29 30 31 30 29 32 32 31 27 27 26 25 19 19 29 28 27 27 26
25 27 25 28 29 27 27 28 28 28 29 29 28 29 29 28 28 29 30 30 30 29 29 29 27 28 29 30 31 31 31 32 32 31 24 27 23 26 19 19 25 27 26 25 24
24 25 26 26 26 25 22 27 27 28 28 28 28 29 29 27 28 27 28 28 27 29 29 29 27 28 27 30 30 30 31 32 32 32 31 31 30 29 26 27 26 25 25 26 23
22 22 23 24 26 26 27 28 27 27 27 28 28 28 27 28 27 28 28 28 29 28 28 28 27 27 27 30 30 30 31 31 31 31 31 29 27 26 27 26 22 20 21 22 23

GFSSW_925_temp_096.txt.gz
Temp
17 18 18 18 19 19 20 20 21 22 22 23 25 25 25 26 26 24 30 33 32 31 31 31 31 33 36 36 38 39 36 36 35 26 38 43 42 43 43 40 41 40 39 36 34
16 17 17 18 18 18 19 19 20 21 23 23 25 25 25 26 24 29 33 33 32 32 30 34 34 36 36 37 38 38 37 38 40 34 39 42 42 42 42 42 40 39 38 36 34
16 16 16 18 18 18 19 20 20 21 22 23 24 25 25 25 28 36 32 32 31 32 33 35 37 37 36 38 39 39 38 40 40 41 41 41 41 42 42 41 41 38 36 35 34
15 15 16 17 18 19 19 20 20 22 22 23 25 25 25 23 33 33 32 32 31 29 32 36 37 37 37 37 39 38 40 40 41 41 41 41 42 41 41 41 43 40 37 35 35
16 16 16 17 18 19 19 20 21 22 23 24 24 25 24 30 33 32 32 32 32 29 33 36 36 37 36 38 39 39 40 40 41 41 41 41 41 41 41 42 43 41 38 36 35
16 16 16 17 18 19 20 20 22 23 24 24 24 25 24 31 36 32 32 29 32 31 34 37 37 38 38 38 38 39 39 39 40 40 40 40 40 41 41 42 42 41 38 37 36
15 16 17 17 18 19 20 21 22 24 24 24 24 23 29 33 35 35 34 32 33 34 35 37 37 37 37 37 39 39 38 39 39 40 40 41 40 40 42 42 42 42 40 39 37
14 15 16 17 18 20 21 23 23 24 24 24 24 23 31 35 34 35 34 35 35 35 36 36 37 37 37 38 37 36 37 36 39 40 41 41 38 41 42 42 42 42 41 40 38
15 15 16 18 19 20 23 24 25 25 24 24 23 27 34 34 34 35 35 35 36 36 36 36 37 36 36 35 35 36 35 37 38 41 41 41 39 40 42 41 41 41 41 41 39
15 15 17 18 21 22 25 26 26 25 25 23 26 31 34 36 35 35 35 36 36 37 36 36 35 34 35 35 33 35 36 38 38 40 40 40 40 40 41 41 41 41 41 41 41
16 16 18 20 21 23 25 23 30 29 29 33 34 35 36 35 35 36 36 36 36 35 34 36 35 34 36 37 37 37 37 37 38 39 39 38 39 40 40 41 40 41 40 41 41
17 17 18 20 22 24 23 30 28 28 28 35 35 35 35 35 35 37 36 35 35 33 35 35 34 37 38 38 37 37 36 36 38 39 39 38 38 39 40 40 40 41 40 41 42
17 18 19 21 23 24 28 27 27 28 29 34 35 36 36 36 36 37 37 37 36 35 36 36 37 39 38 38 37 37 36 36 36 38 38 38 37 38 40 40 40 41 41 41 42
17 17 19 21 21 26 29 27 28 28 30 34 34 36 36 37 35 37 37 36 35 35 36 36 37 37 37 36 37 35 38 37 37 36 35 38 36 37 39 39 40 40 41 41 41
17 18 19 16 18 28 27 27 27 29 32 35 36 36 36 35 36 36 37 36 34 35 35 35 36 36 35 36 37 35 37 36 36 36 35 36 35 37 38 38 39 40 41 41 41
18 18 19 20 19 26 27 27 28 29 32 34 36 35 36 37 36 36 37 36 36 35 36 36 38 37 37 37 37 37 36 36 36 36 34 35 35 36 37 38 39 40 40 40 39
19 20 18 18 27 26 27 29 30 31 35 35 35 36 35 36 36 35 35 35 35 33 33 35 37 38 38 36 37 36 35 33 33 34 34 36 36 36 38 39 39 38 37 38 39
20 22 22 22 24 26 27 29 29 35 35 35 35 35 34 35 35 35 35 35 36 34 33 33 32 35 36 35 34 35 34 32 30 31 33 35 33 35 37 37 39 39 36 38 39
19 24 24 26 26 26 29 30 33 33 33 33 33 33 35 35 34 34 35 35 35 34 31 31 32 34 35 36 36 34 33 35 33 34 34 34 35 36 31 35 36 35 35 38 37
14 23 28 28 27 28 29 28 33 33 32 33 32 33 33 34 33 34 34 35 34 34 33 31 30 33 35 35 35 35 36 32 33 29 29 30 31 26 26 27 28 24 25 23 23
18 28 29 28 28 29 29 32 32 33 31 32 32 32 33 32 33 33 33 34 34 32 32 32 31 31 32 33 33 33 31 30 30 29 27 26 30 29 27 28 25 23 20 21 23
24 28 29 28 29 31 31 31 21 32 32 31 32 31 31 32 31 32 32 33 33 32 30 31 30 29 30 33 34 33 30 29 29 29 30 28 29 29 27 27 22 20 20 17 24
24 28 30 29 28 31 33 32 32 31 32 32 31 32 32 31 29 31 32 33 33 31 29 29 28 27 30 32 33 32 32 31 27 29 28 21 21 29 26 25 20 20 19 18 23
23 28 31 30 30 29 29 30 30 32 30 31 31 31 30 30 31 30 31 32 33 32 27 29 29 28 28 29 30 30 31 32 31 28 28 24 25 28 25 24 22 21 21 19 23
24 28 28 27 29 28 29 29 29 30 31 31 30 30 30 29 30 29 31 31 32 29 30 29 27 28 29 30 30 30 31 32 31 32 31 32 29 23 22 23 22 20 20 22 24
23 25 26 26 27 27 26 27 28 30 30 30 29 30 30 29 29 28 29 29 28 29 29 29 27 28 28 29 30 30 32 32 32 32 33 32 24 20 23 22 23 22 23 21 22
24 24 25 24 26 27 28 29 29 30 29 30 29 29 29 29 29 29 29 29 29 28 28 28 28 27 26 29 30 29 27 28 28 26 25 28 24 25 25 24 23 23 23 23 23

GFSSW_925_temp_102.txt.gz
Temp
17 17 17 18 19 19 19 20 20 21 22 22 22 23 24 25 26 25 23 32 32 32 31 30 29 30 29 28 30 31 28 28 29 30 31 35 35 36 37 33 33 33 30 30 28
17 17 17 17 18 19 19 20 20 21 22 22 23 23 24 24 24 22 33 32 32 31 31 30 30 29 27 29 30 28 26 29 30 31 31 33 34 34 36 33 33 31 31 30 26
16 17 17 17 17 18 19 20 20 21 22 22 23 23 24 24 22 27 32 33 30 31 31 31 31 31 29 30 30 30 29 33 33 34 33 32 33 34 35 33 31 29 29 30 27
17 17 17 17 18 19 20 20 21 22 22 22 23 24 24 23 29 32 33 32 30 30 30 31 31 30 30 30 32 32 32 33 33 35 34 33 34 34 35 35 33 30 30 30 28
18 18 19 19 19 19 20 21 22 23 22 23 24 23 23 23 25 33 32 32 31 30 29 30 30 30 30 31 31 32 32 32 33 32 34 35 34 34 35 37 33 31 30 30 29
18 18 18 19 19 20 21 22 23 23 23 23 23 23 22 25 32 33 32 32 31 30 30 30 30 31 31 31 31 32 31 31 32 33 33 33 34 35 36 36 32 31 30 30 29
18 19 19 19 20 22 22 24 24 24 24 24 23 22 22 25 32 32 32 33 33 31 30 32 32 32 31 30 31 31 30 30 33 32 32 34 33 34 35 35 34 31 30 30 29
18 19 19 20 21 22 24 25 26 25 24 23 23 21 22 32 31 31 32 32 32 32 32 33 33 31 32 31 29 30 28 28 31 33 33 33 30 34 34 33 32 31 31 30 29
18 19 20 21 22 24 25 25 27 26 24 23 22 21 25 32 33 34 33 31 33 33 32 33 33 31 30 29 25 26 27 28 30 33 33 32 31 33 33 34 33 31 31 31 30
18 18 20 21 23 25 26 26 26 25 24 22 23 23 27 33 34 35 34 34 32 32 32 32 28 28 25 25 25 27 27 27 29 33 32 32 31 32 32 33 33 32 31 31 30
18 19 20 22 24 25 27 25 20 23 25 25 26 27 29 34 35 34 35 34 33 32 30 30 28 26 27 26 29 28 28 28 30 32 31 31 29 31 31 33 32 32 29 31 31
19 20 21 23 25 25 26 23 26 26 22 25 26 27 29 31 33 33 35 32 31 29 30 28 26 29 29 30 29 29 28 28 30 32 32 30 30 31 31 31 32 32 32 30 32
19 20 21 23 26 25 25 27 27 28 22 25 29 30 31 32 32 33 32 31 31 29 29 27 29 32 31 31 30 29 29 29 30 31 30 30 28 29 32 31 32 31 31 31 29
19 20 21 23 24 22 24 27 27 27 21 27 30 32 33 32 32 34 33 34 33 31 31 29 31 32 31 31 32 30 32 32 31 29 27 29 27 28 27 28 28 25 25 23 23
20 20 21 20 20 20 26 26 26 25 27 31 32 34 33 31 33 34 36 33 31 31 32 29 31 31 30 31 31 30 31 31 31 29 27 28 26 25 24 24 24 24 24 23 21
20 21 21 19 19 25 25 25 25 24 28 32 32 32 32 32 32 33 33 33 32 32 31 30 32 31 31 31 31 32 29 27 25 23 24 26 26 23 23 23 25 24 24 22 21
21 22 21 20 22 25 24 22 23 25 30 31 31 30 30 31 32 32 32 31 28 28 27 28 30 30 31 28 29 28 25 23 23 23 24 25 25 23 25 25 25 23 23 21 20
22 23 22 24 26 24 23 22 25 29 29 30 30 29 31 32 33 33 32 29 30 28 25 26 27 28 30 29 28 27 26 23 24 23 25 25 27 25 26 25 25 23 24 21 19
22 23 22 27 26 23 19 21 25 28 30 29 29 29 28 29 31 30 30 29 28 28 26 25 26 28 29 29 29 27 25 26 24 23 23 24 25 26 26 24 23 23 21 21 18
19 19 21 28 26 23 19 21 25 29 30 28 27 27 27 27 27 28 29 29 29 28 27 27 24 26 29 28 28 26 26 25 21 23 24 23 25 23 24 23 22 22 21 19 19
19 16 27 28 26 18 20 21 26 30 30 29 28 27 27 28 27 26 28 29 30 29 26 25 23 24 26 25 25 24 23 24 22 20 22 20 22 23 24 22 20 20 20 18 18
15 18 27 26 21 17 20 25 26 28 29 29 29 28 27 27 27 27 28 29 30 30 27 26 21 22 24 25 27 25 27 22 21 22 20 20 21 22 22 21 21 20 20 19 19
10 13 25 25 20 19 20 25 27 26 26 28 28 27 27 26 26 27 27 29 28 28 26 25 21 20 20 21 25 26 26 25 21 18 21 20 21 22 21 20 20 20 19 18 19
11 16 18 17 18 22 20 23 24 27 27 26 28 28 27 25 25 25 26 28 28 27 24 22 20 21 20 21 23 23 25 26 24 20 22 20 21 21 19 19 19 19 19 19 18
11 15 19 17 18 19 21 22 24 24 26 26 26 27 26 25 23 23 23 24 25 24 24 22 22 23 22 23 24 25 25 25 23 22 21 21 21 20 19 18 19 19 19 19 18
13 15 14 16 17 19 19 22 23 24 25 25 26 25 24 23 24 23 23 23 23 23 22 20 21 22 21 24 25 25 25 24 24 23 22 22 21 20 20 19 19 18 18 18 19
15 15 13 15 16 18 19 21 22 23 24 26 24 23 23 24 25 24 22 21 21 22 21 20 20 19 20 22 23 22 22 23 22 20 20 20 20 19 19 19 18 17 17 18 18

GFSSW_925_temp_105.txt.gz
Temp
17 18 18 18 18 19 19 20 20 20 20 21 22 22 23 24 25 24 22 31 32 31 30 29 27 28 28 27 28 29 26 26 29 29 32 34 33 34 35 31 32 31 30 28 25
17 18 18 19 19 19 19 20 20 20 21 22 21 22 23 24 23 21 32 31 31 30 29 29 28 27 26 27 28 27 24 28 29 30 30 32 32 33 33 32 31 30 28 26 25
18 18 18 18 18 18 19 20 21 21 21 21 22 23 23 23 22 27 31 32 29 29 30 30 30 29 28 29 29 28 28 30 30 31 30 30 31 32 33 31 30 29 27 26 25
18 18 18 18 18 19 20 21 21 22 22 22 22 23 23 22 30 31 32 32 30 29 29 30 29 29 29 29 30 30 30 30 31 33 32 31 32 32 32 33 34 29 28 26 25
17 18 19 19 20 20 21 22 23 22 23 23 23 23 22 23 25 31 31 31 30 29 29 29 29 28 29 29 30 30 31 31 31 29 30 31 31 31 32 33 31 30 28 26 26
18 19 19 19 20 21 22 24 24 24 24 23 23 23 22 26 31 31 31 31 31 30 29 29 29 29 30 30 30 31 30 29 30 31 31 33 32 32 34 33 30 29 28 27 26
19 19 19 20 22 22 24 25 25 25 24 24 23 22 22 26 31 31 32 32 31 31 29 30 30 31 30 30 31 30 30 28 30 31 32 33 31 32 32 31 31 29 29 28 27
19 20 20 21 23 24 25 25 26 25 24 23 23 21 22 30 30 30 31 31 31 30 31 32 31 30 30 30 28 29 27 27 30 31 31 31 29 31 31 30 31 29 29 29 28
19 19 21 22 23 25 25 25 26 25 24 23 22 22 25 30 30 33 31 30 32 31 31 31 31 28 28 27 24 23 27 27 28 31 31 32 29 31 31 30 30 29 29 28 28
19 20 21 22 24 26 25 25 24 23 22 22 22 24 28 30 32 33 33 31 31 31 30 30 25 27 23 24 25 27 27 27 27 29 29 29 28 29 29 29 30 28 29 28 28
19 20 21 23 25 26 27 24 20 22 24 25 25 26 27 30 33 33 33 32 32 30 29 28 26 26 26 25 27 27 26 26 28 30 29 28 28 29 29 28 24 26 27 28 28
19 20 22 24 25 26 26 22 23 24 22 23 24 25 27 28 29 32 33 31 31 29 28 26 26 27 28 27 26 26 26 26 27 28 27 28 29 29 27 25 24 24 23 22 26
20 20 22 24 25 25 23 24 24 25 21 23 25 27 29 28 30 30 31 30 30 29 28 26 29 30 29 29 28 27 26 27 28 30 29 29 27 26 26 26 26 24 23 22 21
20 20 22 24 24 22 23 25 25 25 21 28 29 30 32 31 31 32 32 31 31 29 27 27 29 30 29 30 29 29 29 29 30 27 26 28 25 25 23 24 25 24 23 22 21
20 20 21 21 20 20 25 25 25 24 26 31 31 33 31 31 32 33 32 32 31 31 30 29 30 29 29 29 29 29 30 29 30 27 26 27 24 25 22 24 24 23 23 21 21
20 22 21 20 19 24 24 25 25 24 28 31 32 31 31 31 31 32 33 32 31 31 29 29 31 29 30 30 30 29 28 24 22 22 23 25 25 23 23 25 22 23 22 21 21
21 22 22 20 22 24 24 21 23 25 28 29 29 29 29 29 30 31 31 30 28 29 26 27 28 29 29 27 27 25 22 21 23 22 23 24 24 23 25 25 24 22 22 20 19
21 23 23 24 25 24 23 22 26 28 28 29 29 28 29 27 30 30 30 27 27 26 23 25 26 28 28 29 28 26 24 22 24 22 23 23 25 25 25 25 23 23 21 21 19
21 23 23 26 25 24 19 21 25 27 28 28 27 26 26 27 29 28 27 27 27 26 26 24 26 27 28 28 27 25 24 24 22 21 21 22 25 26 24 24 22 22 21 19 19
18 18 22 24 24 23 18 21 23 26 28 27 27 27 26 26 26 25 27 28 29 28 25 25 24 25 27 27 26 26 25 23 19 23 23 22 23 23 24 22 21 20 19 18 18
18 16 23 24 24 17 19 20 24 27 27 28 27 27 26 26 25 26 26 29 29 28 26 24 23 24 25 25 25 22 22 22 20 19 20 19 20 23 22 22 20 19 19 18 17
13 18 24 24 20 13 19 23 24 26 26 27 28 27 27 26 26 27 27 27 27 28 27 24 19 21 25 24 24 23 25 20 19 20 18 18 19 21 21 20 19 19 19 18 18
10 10 22 23 19 17 18 22 25 25 25 25 27 27 26 26 26 26 26 27 26 25 25 25 20 19 20 22 22 25 24 24 19 16 19 19 20 20 19 19 18 18 18 18 18
11 15 16 15 15 20 20 22 23 25 25 25 25 26 25 25 22 24 23 25 25 25 22 21 18 20 19 21 22 22 23 24 21 18 19 18 20 21 19 18 18 18 18 18 17
10 14 15 15 17 17 19 21 21 21 23 23 24 24 24 23 22 22 23 22 23 22 23 21 21 19 20 21 21 22 23 24 23 21 20 21 19 19 19 18 18 18 18 18 17
12 13 12 13 14 18 17 18 20 21 22 22 24 24 23 22 22 23 22 22 22 22 22 18 20 21 21 22 22 23 23 23 23 22 20 20 19 19 19 18 18 17 16 16 18
12 13 12 13 15 17 17 19 20 19 21 23 24 23 23 22 22 22 20 20 21 21 20 19 18 18 18 21 21 21 22 22 22 21 20 19 20 19 18 18 17 16 15 16 17

GFSSW_925_temp_108.txt.gz
Temp
18 18 18 18 18 18 19 19 20 20 20 21 21 21 22 23 24 23 21 31 31 29 29 26 25 26 26 26 27 27 25 25 28 29 30 30 30 33 34 31 31 30 27 27 23
17 18 18 19 19 19 20 21 21 21 21 22 21 22 22 23 22 20 31 30 30 29 28 26 25 25 24 27 26 25 23 27 28 29 29 30 30 31 32 31 30 30 26 24 23
18 18 18 19 20 20 20 21 22 22 22 22 22 23 23 22 21 28 30 30 29 29 30 30 28 27 27 27 27 26 27 28 30 29 29 29 29 31 32 32 29 29 25 24 23
18 19 19 19 20 21 21 22 22 22 23 23 23 23 23 21 30 30 31 32 28 28 29 29 28 27 28 28 29 29 28 28 30 32 31 31 31 31 30 31 32 30 25 24 23
18 19 19 20 21 21 22 23 23 24 24 24 24 23 22 23 25 30 30 30 28 28 29 27 28 27 28 28 29 28 30 30 29 28 28 30 29 30 31 30 31 29 26 25 24
18 19 20 21 22 22 24 24 25 24 24 24 23 23 22 27 30 30 30 29 29 28 28 28 28 28 29 29 29 30 29 28 28 28 29 30 30 30 32 32 30 27 26 25 25
19 19 20 22 23 24 24 25 26 26 24 23 23 22 22 27 30 30 30 30 30 29 27 29 30 30 29 29 29 28 28 27 29 30 31 30 31 31 30 29 29 27 26 25 25
19 20 21 22 23 25 25 25 26 25 24 23 23 21 23 30 30 30 30 30 29 29 30 30 30 29 29 29 26 26 26 26 29 30 31 30 28 30 28 27 28 27 27 26 25
19 20 22 23 24 25 25 25 25 24 23 23 21 22 28 30 29 31 30 30 29 29 30 30 29 27 27 26 23 23 26 27 27 29 29 29 28 28 25 25 24 26 26 27 25
19 20 22 23 25 26 25 24 24 23 22 21 21 24 29 30 31 31 31 30 30 30 29 28 23 24 22 23 25 26 27 27 26 28 27 27 28 25 24 24 23 22 24 26 26
19 20 23 24 25 26 26 23 18 21 22 24 24 25 26 29 30 31 31 29 30 28 28 26 26 25 26 24 27 27 26 26 26 27 29 28 26 25 24 23 23 23 22 21 22
19 20 22 24 25 26 26 20 21 21 20 22 22 23 25 27 28 31 32 31 30 28 27 25 26 27 27 26 25 25 26 25 26 28 28 28 27 26 24 24 23 22 22 22 21
19 20 22 24 25 25 22 22 22 22 20 23 24 25 28 26 29 29 30 29 30 28 27 26 29 28 28 29 28 26 25 26 27 27 28 28 27 27 25 25 24 23 22 22 21
19 20 22 24 24 22 22 23 23 23 21 28 29 30 28 29 31 30 31 30 30 30 25 27 28 29 28 29 27 28 27 27 28 26 26 26 24 25 23 24 23 22 22 21 21
20 21 21 22 20 19 24 24 24 23 26 30 30 31 29 30 31 33 31 31 30 30 28 29 29 29 28 29 29 28 27 27 28 25 25 25 23 24 22 24 23 22 22 21 20
21 21 22 20 19 24 23 24 23 23 28 30 29 29 30 30 30 31 32 30 30 29 27 28 29 29 29 29 29 27 27 23 21 20 22 25 24 22 23 25 23 22 21 21 20
21 22 23 21 21 23 23 20 23 24 27 28 28 27 27 28 29 30 30 27 27 28 26 26 27 27 27 27 26 24 21 21 23 21 23 22 22 23 25 24 24 22 21 21 20
21 23 22 22 22 23 23 21 26 27 27 28 27 27 27 26 28 26 27 26 25 24 22 24 26 27 27 28 27 25 22 21 24 21 22 22 24 25 24 23 22 22 21 20 19
21 23 23 22 23 23 19 21 24 26 26 26 26 25 25 26 27 26 25 26 26 26 25 24 26 26 27 26 26 25 22 22 20 19 20 21 23 25 24 23 21 21 20 19 18
18 18 21 23 22 22 18 20 22 24 26 26 27 26 25 25 25 25 26 27 28 27 25 24 24 25 25 26 25 23 24 22 18 21 22 20 21 23 23 22 20 20 19 18 18
17 16 22 23 22 17 19 20 22 25 25 26 27 26 25 25 25 25 26 27 27 27 24 22 22 24 24 24 24 22 22 19 18 17 19 18 19 20 21 20 19 19 19 18 17
12 17 22 23 19 11 19 21 22 25 24 25 26 26 26 25 26 26 25 25 24 26 26 21 18 21 24 24 22 23 23 19 18 20 17 17 18 21 20 19 18 18 18 18 17
9 9 21 21 19 17 18 21 23 23 23 24 25 26 25 25 25 24 24 25 23 24 24 22 19 19 20 22 23 24 24 20 16 15 18 18 19 20 18 19 18 18 18 17 17
10 15 14 13 12 18 19 20 21 22 24 22 23 23 24 22 20 23 22 24 23 23 21 20 17 20 19 21 22 22 22 21 19 16 18 17 20 20 19 19 18 17 17 17 17
9 13 13 15 16 16 18 19 20 20 21 21 24 23 24 22 22 22 22 22 23 21 21 20 21 19 20 20 21 21 21 22 19 19 20 22 18 19 18 18 18 17 17 17 17
11 11 10 12 13 17 16 18 19 19 20 21 23 23 22 22 22 20 22 21 22 22 22 17 19 18 20 21 21 21 21 21 21 22 19 20 19 19 19 17 17 17 16 16 16
10 11 10 12 13 16 16 18 19 18 20 21 21 22 22 23 21 22 19 20 21 22 18 18 17 16 18 20 20 20 21 22 22 21 21 20 20 18 18 17 17 16 15 16 15

GFSSW_925_temp_111.txt.gz
Temp
19 19 19 20 20 20 20 21 21 21 21 22 22 21 22 23 23 21 24 29 29 29 28 25 25 26 26 28 29 29 31 31 32 32 33 35 34 35 36 35 33 33 32 31 26
18 19 19 20 20 21 21 21 21 21 21 23 22 22 22 23 21 21 29 29 29 29 27 27 27 27 29 30 30 31 31 31 32 33 33 34 34 34 35 36 34 32 29 26 25
18 18 19 20 21 21 21 22 22 22 23 23 23 22 23 22 23 30 29 29 29 28 29 28 28 30 30 30 30 30 31 32 33 34 33 34 34 34 35 36 37 35 30 27 26
19 20 20 21 21 21 22 23 24 24 24 24 23 23 23 21 31 29 30 29 28 28 28 29 29 30 30 31 31 31 32 32 33 34 33 33 34 35 34 36 36 35 31 28 26
19 20 21 21 22 22 23 24 25 25 25 24 23 23 21 26 29 29 30 28 27 28 29 30 30 30 31 31 31 31 32 33 33 32 32 32 33 33 34 35 34 34 30 28 28
19 20 21 21 21 23 24 25 25 26 25 24 24 23 22 30 29 28 29 28 28 28 28 29 31 31 31 31 31 32 32 32 32 33 31 32 34 33 33 32 33 31 30 29 28
19 20 22 22 22 24 25 25 26 25 24 24 23 22 24 30 29 28 28 29 29 28 30 29 30 31 31 32 30 31 31 32 33 33 34 32 34 31 30 31 32 31 29 29 28
19 21 22 23 23 25 25 25 25 25 24 23 23 22 28 29 28 28 28 28 28 29 29 30 29 31 31 31 31 31 31 33 33 32 33 33 33 31 29 30 30 29 29 28 28
19 21 22 23 24 25 24 24 24 23 23 22 22 23 31 29 29 29 29 30 28 28 29 30 30 30 31 31 32 30 32 31 32 31 31 33 31 30 29 29 29 28 28 29 28
20 21 23 23 25 25 24 23 23 22 22 22 21 26 30 31 29 30 29 29 31 30 31 30 30 31 30 31 31 31 31 31 30 32 32 31 30 29 29 29 28 28 27 27 28
20 21 23 24 25 25 26 22 25 26 24 26 26 26 28 28 29 29 29 30 31 31 31 29 32 32 32 30 30 30 29 29 31 31 30 30 29 29 29 30 29 28 27 27 26
19 21 23 24 25 25 25 24 22 21 25 24 24 25 25 27 30 31 30 32 31 31 29 31 31 31 29 29 29 29 30 31 31 30 31 30 30 29 29 28 28 28 28 27 26
20 21 23 24 25 25 22 22 21 21 24 27 26 27 29 28 31 32 32 31 31 30 30 31 32 30 31 30 30 30 31 31 31 31 31 31 31 30 29 29 28 29 28 28 26
20 21 22 24 23 21 22 22 22 21 28 30 31 30 29 29 32 31 32 33 31 31 29 31 30 31 31 31 30 31 30 30 30 30 32 29 31 29 29 29 29 28 28 28 27
20 21 22 22 21 21 22 22 22 22 30 31 31 30 30 32 32 32 30 32 32 31 30 31 31 30 31 30 30 31 29 30 29 30 29 30 30 31 28 30 30 28 27 27 26
21 21 22 21 21 23 22 22 23 28 29 31 31 30 32 31 32 32 32 32 31 31 30 30 30 31 30 30 29 29 29 28 27 29 30 29 29 31 31 29 29 29 27 26 25
22 22 22 21 23 22 22 23 28 29 28 30 30 29 29 29 31 30 31 30 31 31 30 29 29 30 29 30 29 30 30 30 29 29 30 27 28 30 30 28 27 27 27 26 25
22 23 22 22 22 23 22 27 27 28 28 29 28 29 30 29 29 29 29 30 28 29 29 29 29 29 29 29 29 28 28 29 27 28 29 27 28 30 28 28 26 27 26 26 25
21 22 22 21 22 22 25 27 28 27 27 28 29 29 29 29 29 29 28 29 29 28 30 29 29 28 28 29 28 27 28 26 26 24 26 28 28 29 27 27 27 27 26 25 24
18 17 20 21 21 22 26 24 25 26 27 27 28 28 28 28 29 29 28 28 29 28 27 27 28 27 28 28 27 29 27 27 27 26 25 27 26 29 29 28 26 26 26 24 24
16 21 22 22 22 24 26 24 24 26 26 27 28 27 27 28 28 28 27 28 27 28 27 28 27 28 27 28 28 27 27 25 26 25 26 26 27 28 27 26 25 25 25 23 24
14 22 21 22 25 18 24 23 22 26 26 26 27 28 28 27 28 27 27 27 26 27 28 25 27 27 28 26 25 26 26 26 26 25 25 25 26 28 26 25 24 24 24 23 23
14 16 20 20 24 23 22 24 24 25 25 26 27 26 27 27 26 26 26 26 26 26 27 26 26 26 27 27 26 27 26 25 24 23 25 25 26 26 25 25 24 23 23 23 22
14 20 21 19 17 21 22 22 24 24 24 24 25 26 26 25 24 25 26 26 25 25 21 25 24 26 26 26 26 26 26 26 25 25 26 26 26 27 27 24 24 23 23 22 21
14 17 15 20 21 19 20 21 23 24 23 23 25 25 25 25 25 25 25 26 25 23 24 26 25 25 26 25 25 26 26 26 25 25 24 26 26 26 25 22 22 22 21 21 21
15 15 15 17 16 19 18 20 21 22 22 24 24 24 24 25 25 25 25 24 26 24 25 22 24 23 24 25 25 25 25 25 25 26 26 25 25 25 23 23 22 21 21 20 20
10 10 14 15 17 19 20 20 20 20 22 22 22 23 24 23 23 24 25 24 25 24 23 23 23 22 23 24 24 23 25 25 25 25 25 24 25 23 24 22 21 20 20 19 18

GFSSW_925_temp_114.txt.gz
Temp
20 20 20 21 21 22 22 21 22 22 22 23 23 22 22 22 22 21 28 30 28 29 27 28 30 30 31 34 33 35 36 36 36 35 36 38 38 39 40 39 38 38 37 36 31
20 20 21 21 22 22 22 22 22 23 23 23 23 22 23 23 20 27 29 29 28 28 29 31 32 32 34 35 35 36 36 36 37 37 37 37 38 38 38 39 39 38 33 33 30
19 20 21 21 21 22 23 23 23 23 24 24 23 23 23 22 27 34 29 29 29 29 31 32 33 34 35 36 36 36 36 37 37 37 37 37 38 39 38 38 39 38 36 33 31
19 20 21 21 22 23 24 24 24 24 24 24 24 23 23 19 34 31 29 28 28 29 31 32 34 34 35 35 36 35 36 36 37 37 37 37 38 38 38 38 38 38 38 33 32
20 21 21 22 22 24 25 25 24 24 25 24 24 24 22 30 33 28 30 28 26 30 32 34 34 35 35 36 35 35 36 36 37 37 37 37 37 37 37 37 38 38 36 34 33
21 21 22 22 23 25 25 25 26 26 25 24 24 23 25 34 29 27 27 27 29 31 33 33 35 35 35 35 35 36 36 36 37 37 36 36 37 37 36 37 37 36 36 35 34
21 22 22 22 23 25 25 25 25 25 25 24 24 22 30 32 29 28 29 31 31 32 34 33 34 35 35 35 35 35 35 37 37 37 37 37 37 35 36 37 37 36 35 34 34
21 22 23 23 24 25 25 25 25 24 24 23 23 22 33 29 29 29 30 31 31 31 33 33 33 35 35 35 35 35 36 37 37 37 37 37 36 35 35 36 35 34 34 33 32
21 22 23 23 24 25 24 24 23 23 23 23 23 28 33 29 31 32 31 34 32 32 32 32 34 35 35 35 36 36 36 36 36 36 36 37 36 35 36 36 34 34 33 33 33
21 22 23 24 25 25 24 23 23 23 22 21 24 31 33 34 33 32 31 33 34 34 34 34 35 35 36 36 36 35 35 36 35 36 36 36 35 35 35 36 34 34 33 32 32
20 22 23 24 25 25 24 23 29 30 30 31 32 32 33 33 31 33 32 33 35 35 35 34 35 36 35 35 35 35 35 35 36 35 35 35 34 34 35 35 34 34 33 32 31
20 21 23 24 25 25 26 30 26 25 31 31 30 30 31 31 34 35 33 35 34 35 34 34 35 35 34 34 34 35 35 35 36 35 35 35 35 34 34 34 34 34 33 33 32
20 21 23 24 25 25 26 25 23 23 31 33 32 33 34 33 35 35 35 36 35 34 35 35 35 34 34 34 34 35 35 34 34 35 36 35 36 34 34 34 34 34 34 34 32
21 21 23 25 25 24 27 23 23 23 34 33 34 34 33 34 35 35 36 36 35 35 34 35 35 34 34 34 35 35 34 34 34 35 35 35 34 34 34 34 34 33 33 33 32
21 22 23 23 22 28 24 23 23 26 33 34 34 34 35 35 36 35 35 35 35 34 34 34 34 34 34 33 34 34 34 34 34 34 35 35 34 34 34 33 33 33 32 32 31
21 22 23 22 21 24 22 23 25 32 33 33 34 34 35 35 35 35 35 35 35 35 34 34 34 34 34 33 33 33 33 34 33 35 34 34 33 35 35 34 34 33 32 31 30
22 22 22 21 27 22 23 28 32 33 33 33 34 35 35 34 34 35 34 34 34 33 33 33 33 33 33 33 34 34 34 34 34 34 34 33 32 34 34 33 33 32 32 31 30
22 22 21 22 21 22 26 31 30 32 33 33 33 34 34 34 34 34 34 34 33 34 34 33 32 33 32 32 32 32 32 32 30 32 33 33 32 33 33 33 32 32 32 31 30
21 23 24 23 22 23 30 31 32 32 31 32 33 33 33 33 33 34 34 34 33 33 33 33 32 32 32 32 32 32 32 32 31 31 31 33 33 33 33 32 32 31 31 30 29
17 23 26 23 22 26 30 28 31 30 31 31 32 32 33 33 33 33 33 32 32 32 33 32 32 33 31 32 31 32 32 31 32 29 30 32 31 32 32 32 31 31 30 29 28
20 27 25 23 23 30 30 31 30 30 30 31 32 32 32 32 33 33 32 31 32 32 33 33 32 31 31 31 32 31 31 30 31 30 30 30 32 32 31 30 30 30 30 28 28
22 27 24 24 29 28 30 29 21 30 30 31 31 32 32 31 32 32 31 32 30 32 32 32 32 31 32 31 30 31 31 30 30 29 30 30 30 32 31 30 30 29 28 28 27
22 24 25 25 29 29 28 29 28 29 29 30 31 31 31 31 30 31 31 30 30 31 31 31 31 30 31 31 30 30 31 30 30 29 28 28 30 32 31 31 30 28 27 27 26
20 25 27 27 26 27 28 28 28 28 29 29 29 30 30 30 30 29 30 30 29 30 22 27 30 29 30 30 30 29 30 30 29 28 29 30 30 31 31 29 28 27 26 25 25
21 23 20 26 25 25 25 26 28 28 28 28 29 30 30 29 29 30 30 30 29 23 28 29 27 29 29 30 30 29 29 30 29 30 29 29 29 30 29 27 26 25 25 24 24
20 20 22 23 22 23 21 26 27 27 27 28 28 28 29 29 29 29 30 29 29 29 29 29 27 27 27 29 29 28 29 29 29 29 29 29 29 30 28 28 26 25 24 23 23
16 17 19 20 23 23 26 25 26 25 26 27 26 27 28 28 27 28 29 29 29 28 28 27 27 26 26 28 27 27 29 29 29 29 29 28 28 27 27 26 25 24 23 22 21

GFSSW_925_temp_117.txt.gz
Temp
19 20 21 21 21 21 21 21 22 23 23 23 24 23 22 23 23 22 30 32 31 30 28 32 33 34 35 37 38 39 38 39 39 38 39 41 40 41 42 41 41 40 39 38 34
20 21 21 22 21 21 22 22 23 24 24 24 24 23 23 23 21 30 31 30 30 30 30 34 35 36 37 38 39 38 39 39 40 39 39 40 40 40 40 40 41 40 38 36 34
21 21 22 22 22 23 24 24 24 24 25 24 24 24 23 22 29 35 30 30 30 30 33 35 36 37 37 39 39 39 38 40 39 40 39 39 39 41 40 39 40 39 39 36 35
21 21 22 22 22 24 24 24 24 25 25 25 24 24 23 20 35 32 30 29 29 29 33 35 37 37 38 38 40 37 40 39 39 39 39 39 40 39 40 39 40 41 40 37 35
21 22 22 22 23 24 24 25 25 25 26 25 25 24 22 31 35 29 30 29 29 29 35 36 37 37 37 39 39 38 39 39 40 39 39 39 39 39 39 40 41 40 39 38 36
21 22 22 22 23 25 25 25 25 26 26 25 25 24 24 35 33 30 29 28 31 33 35 37 37 38 38 38 38 39 38 39 39 39 39 39 39 40 39 40 40 39 39 39 37
21 22 22 22 23 25 25 25 25 25 25 24 24 23 33 34 33 32 32 32 34 35 37 36 37 37 38 38 39 38 37 39 39 39 39 40 39 38 39 40 39 39 38 37 37
21 22 23 23 23 25 25 24 25 25 24 24 24 23 35 33 34 33 34 34 34 35 36 36 36 37 38 39 38 38 39 39 39 39 39 39 38 38 39 39 37 37 37 36 36
21 22 23 23 24 25 25 24 24 24 24 24 23 28 35 32 34 34 34 36 35 35 35 35 36 37 38 37 39 39 39 39 38 39 39 39 38 38 39 38 37 36 36 36 35
22 23 23 24 25 25 25 24 24 24 24 23 27 33 35 36 35 35 35 36 37 37 36 36 37 37 38 39 38 38 39 39 38 39 39 38 38 38 39 38 37 36 35 35 34
22 23 24 24 25 26 25 24 29 30 31 36 37 36 37 36 35 36 35 36 37 37 36 37 37 38 39 38 38 38 38 38 38 38 38 38 37 37 38 38 37 36 35 34 34
21 23 24 25 25 26 26 33 30 29 34 36 35 35 35 36 36 37 36 36 36 36 37 37 37 38 37 37 37 37 37 38 38 38 37 38 37 38 37 37 37 37 36 35 34
21 22 24 25 26 27 30 29 28 29 32 36 37 37 36 37 37 37 37 37 37 37 37 38 38 37 37 37 37 38 37 37 37 38 38 38 37 37 37 37 37 37 36 35 34
21 22 23 25 26 30 31 29 29 29 34 35 36 37 36 38 37 39 38 38 37 37 37 38 37 37 37 37 37 38 37 37 37 37 37 38 36 36 37 37 36 36 36 35 34
21 21 23 22 23 32 29 29 29 30 34 37 37 37 38 37 38 37 38 38 37 37 37 37 37 36 36 37 36 36 37 36 36 36 37 38 37 37 37 36 36 36 35 34 34
21 21 23 24 24 29 29 29 30 33 34 36 37 36 37 37 38 38 37 38 38 37 37 37 37 37 37 36 36 36 36 37 37 37 36 38 37 37 37 36 36 36 35 34 33
21 22 21 21 31 28 28 32 33 35 37 36 36 38 37 37 37 37 36 36 36 35 35 36 36 37 36 36 37 36 36 36 36 37 37 36 35 37 37 36 36 34 34 34 34
22 23 24 24 26 28 30 33 32 37 37 37 37 38 37 38 37 37 37 36 37 36 37 36 35 36 36 35 35 35 35 34 33 35 36 36 34 35 36 36 35 35 34 34 33
22 26 27 28 27 27 32 33 35 36 36 35 37 36 37 37 36 36 36 37 38 37 35 36 35 36 35 35 35 35 34 36 34 35 35 36 36 36 36 35 35 34 34 33 32
16 26 30 28 28 29 32 31 35 35 34 35 35 36 36 36 36 36 36 37 36 36 36 36 34 36 35 35 35 34 35 34 35 32 32 35 35 35 34 34 34 33 33 33 32
18 30 29 29 29 31 32 35 35 34 34 34 35 35 35 36 36 37 36 36 35 35 36 36 34 35 34 34 34 34 34 33 35 34 32 32 34 35 34 34 32 32 32 32 31
25 30 29 29 30 33 33 34 21 33 34 34 34 35 35 35 35 35 35 35 35 35 34 35 34 34 35 35 35 34 33 34 33 32 34 33 33 35 34 34 33 33 31 31 30
25 29 30 29 31 33 33 32 32 33 33 33 33 34 35 34 33 34 34 33 34 34 33 34 33 32 33 35 34 32 33 33 33 32 30 30 32 36 35 34 33 32 30 29 28
24 29 31 31 32 30 32 31 32 32 32 32 33 33 33 33 34 33 33 33 33 33 25 29 32 31 32 33 33 32 32 33 33 31 32 32 32 33 33 32 32 30 29 28 27
26 28 26 30 30 30 30 31 31 31 31 32 32 32 33 32 33 32 33 33 32 25 30 31 30 31 32 32 33 32 32 32 32 32 31 32 32 32 32 31 30 30 28 27 27
23 24 26 27 27 27 23 29 30 31 31 31 30 33 32 31 32 32 33 33 32 32 30 32 29 29 29 31 31 31 32 32 32 32 32 32 31 33 31 30 30 29 28 27 26
20 22 23 25 27 28 29 29 29 30 30 31 30 30 30 31 32 32 33 33 32 31 30 30 29 28 28 31 31 29 31 32 32 32 32 30 31 30 29 28 28 27 27 26 26

GFSSW_925_temp_120.txt.gz
Temp
20 21 21 21 20 20 21 22 23 24 24 25 24 24 23 23 23 23 29 33 32 31 30 33 33 35 36 37 39 40 37 38 40 39 39 41 40 42 42 42 41 40 39 36 34
21 21 21 21 20 21 23 23 24 24 24 24 24 23 23 23 20 27 31 32 31 31 30 34 36 37 37 39 40 39 39 39 40 40 40 40 40 40 41 41 40 39 38 35 34
21 22 22 22 22 23 24 23 24 24 25 25 24 24 23 22 27 34 31 31 32 31 32 36 37 38 37 40 40 40 39 40 40 40 40 40 40 41 40 40 40 39 37 36 35
21 22 22 22 23 24 24 24 24 24 24 25 25 24 23 19 34 32 31 31 31 30 31 36 37 37 37 39 41 39 40 40 40 40 40 40 40 40 40 39 41 41 39 36 35
21 22 22 23 23 24 25 25 25 25 25 25 25 24 22 28 35 32 31 30 30 29 33 37 37 38 37 39 40 39 40 40 40 40 40 40 40 40 39 41 41 41 40 37 36
22 22 23 23 23 25 25 25 25 25 25 25 25 24 24 33 33 31 30 29 32 32 35 37 38 39 38 39 39 40 39 39 40 40 40 40 40 40 39 41 40 39 40 38 37
22 23 23 24 23 25 25 25 25 24 25 25 24 22 30 36 35 33 32 33 34 35 37 38 38 38 39 38 40 39 38 40 40 40 40 40 39 38 40 40 39 39 38 39 38
22 23 23 24 24 25 25 25 25 24 24 24 24 21 34 35 35 34 35 36 36 36 37 38 38 38 38 39 39 39 40 39 40 40 40 39 37 39 40 39 38 38 37 37 37
22 23 23 24 24 25 25 24 24 24 24 23 22 27 36 34 35 35 36 37 37 37 37 37 37 37 38 38 38 40 39 40 39 40 40 40 38 39 40 39 37 36 37 37 35
21 22 23 25 25 26 25 25 24 24 24 22 26 31 36 36 37 36 36 37 38 38 37 36 37 37 38 38 37 38 40 40 39 40 40 39 39 39 39 39 37 36 35 35 34
21 22 23 25 26 26 26 25 29 29 30 35 36 37 38 38 37 37 37 37 38 37 36 37 37 37 39 39 39 39 39 38 40 40 38 39 39 39 38 39 37 36 35 34 33
21 22 24 25 26 27 26 33 32 32 32 37 38 38 38 38 37 38 37 36 37 36 38 38 37 39 39 39 38 38 38 38 40 39 38 38 38 39 38 38 38 37 36 35 34
20 22 23 26 28 27 32 32 31 32 33 37 38 37 38 38 38 38 38 38 38 37 38 37 39 39 38 38 38 38 38 38 38 39 39 38 38 39 38 38 37 37 36 35 34
20 21 22 24 26 30 33 32 32 32 33 37 37 38 38 38 38 40 39 39 38 38 39 38 39 38 38 38 38 37 38 38 37 37 36 39 36 37 37 37 37 37 36 35 34
20 21 23 22 23 31 32 32 31 33 33 37 38 39 39 38 39 39 39 39 37 38 38 38 38 37 37 38 37 37 38 37 37 37 37 37 37 38 37 36 36 36 35 35 34
20 22 22 23 23 29 32 32 33 32 34 38 38 37 38 38 39 39 38 39 39 38 38 38 39 38 38 38 37 37 37 37 38 37 35 37 38 36 37 37 37 36 35 34 34
21 23 22 20 29 31 31 33 33 34 39 38 38 38 38 38 38 38 37 36 36 35 36 38 38 38 38 36 38 37 36 35 35 36 35 38 37 36 37 37 36 35 35 35 35
21 24 26 25 28 30 31 33 32 37 39 39 39 39 38 39 38 38 37 36 38 37 37 37 36 37 38 36 35 36 36 33 32 34 35 37 35 36 37 37 36 35 35 35 35
21 25 27 29 29 30 32 32 34 37 38 38 38 37 38 39 39 38 37 37 38 39 36 36 36 38 37 37 36 35 34 37 34 35 35 36 36 36 37 36 36 35 35 34 34
14 24 29 32 31 31 31 30 35 37 37 37 35 38 36 38 37 37 37 38 38 38 38 36 34 37 37 36 36 35 36 33 35 32 33 35 35 34 34 35 35 34 34 33 33
17 29 32 32 31 32 31 34 36 38 36 35 35 36 37 37 38 37 37 38 38 37 37 36 36 36 35 35 35 35 34 35 35 35 33 33 34 36 34 34 33 34 34 33 32
23 30 32 31 31 32 33 35 28 36 36 35 36 35 36 37 37 37 37 37 38 37 35 36 35 34 35 37 37 36 35 34 32 32 34 33 34 35 35 35 34 34 32 30 30
23 29 32 31 30 32 35 35 35 34 35 35 35 36 36 35 34 36 37 35 35 35 34 34 34 32 33 35 37 35 34 34 34 33 31 31 32 36 35 35 34 32 31 30 29
22 29 32 32 32 32 32 34 33 34 34 35 34 35 35 34 35 34 35 35 35 34 28 31 33 31 31 33 34 33 34 34 33 32 32 33 33 34 34 33 33 32 31 30 29
23 29 29 30 32 32 33 33 33 33 33 34 33 33 33 33 33 34 34 35 34 27 32 32 30 31 32 33 33 33 33 34 33 33 32 32 33 33 32 31 31 31 30 29 28
24 25 26 27 29 29 27 30 31 33 33 33 32 33 34 32 33 33 34 34 34 32 32 32 30 31 30 31 32 32 33 33 33 33 33 33 32 34 31 30 29 29 29 28 28
21 21 24 25 28 29 30 31 31 32 33 33 33 32 33 31 32 33 35 35 34 33 32 31 30 29 29 31 31 30 32 33 33 33 33 31 32 31 29 29 28 28 28 28 26

GFSSW_925_temp_123.txt.gz
Temp
21 21 21 21 22 22 23 23 24 24 24 25 25 25 24 24 24 23 24 30 31 32 31 31 32 32 34 33 34 35 31 32 35 36 36 36 37 39 38 30 32 34 33 32 32
21 21 22 22 22 23 24 24 24 25 25 25 25 24 23 23 22 23 31 30 31 32 31 32 33 34 32 34 34 33 32 36 37 36 36 37 39 39 38 35 34 33 33 32 32
21 22 22 22 22 23 24 24 24 24 24 25 25 24 23 22 22 30 33 31 31 32 32 33 34 35 34 34 35 36 35 37 38 37 38 37 37 39 36 35 33 32 32 32 31
22 22 22 23 23 23 24 24 25 25 25 25 24 24 23 21 31 32 32 31 31 31 30 32 33 33 33 33 36 37 38 38 38 38 38 38 39 36 37 38 35 33 33 32 31
22 22 23 23 23 23 25 25 25 25 25 25 24 23 23 24 29 32 32 31 31 30 31 32 33 33 33 34 36 37 37 37 37 37 38 38 36 36 38 38 36 34 34 32 31
21 22 23 23 24 23 25 25 25 24 25 25 24 23 21 28 33 33 31 31 31 30 32 33 34 35 35 35 35 37 37 37 37 38 39 37 38 36 38 37 37 35 33 33 32
22 22 23 24 24 23 24 24 24 24 24 24 24 22 26 30 34 32 31 32 32 32 32 35 37 35 34 34 36 37 36 35 36 37 38 39 35 36 38 36 35 36 35 34 32
21 22 24 24 24 24 25 24 24 23 23 24 23 21 25 35 34 33 33 33 34 34 34 37 37 35 35 35 35 34 34 32 36 38 37 36 34 37 35 34 33 35 35 33 31
21 22 23 24 25 25 25 25 24 23 23 23 22 22 29 35 35 35 35 35 36 36 36 37 36 34 33 32 31 33 32 34 36 39 38 36 34 36 34 34 33 32 32 33 32
21 22 23 25 25 26 26 26 25 24 23 21 22 26 30 34 35 36 36 36 36 35 36 35 32 31 30 30 29 33 34 35 34 36 38 35 34 36 34 33 32 31 31 30 30
21 22 23 25 26 26 27 25 23 24 26 28 31 31 35 36 37 36 36 37 36 36 32 33 31 30 31 33 36 36 35 35 37 37 36 36 34 34 34 33 31 30 30 29 29
21 22 23 25 27 28 27 24 31 31 28 32 33 34 38 37 35 36 37 34 35 32 33 33 31 34 38 38 37 35 34 34 37 36 35 35 34 34 34 33 32 31 30 30 28
20 21 22 25 28 29 28 32 32 33 29 33 35 35 36 37 36 35 35 35 34 33 34 32 35 38 38 37 36 35 34 35 35 36 36 35 33 33 34 33 33 32 30 30 28
19 20 22 24 27 27 29 32 33 33 27 33 34 36 36 36 35 38 37 36 35 34 35 36 37 37 37 36 37 32 35 35 35 32 30 34 29 31 31 32 32 30 30 29 28
19 20 22 21 22 24 31 32 32 32 28 35 36 39 36 35 37 36 38 36 34 35 37 34 36 36 36 36 36 34 35 34 34 32 32 32 30 32 31 30 31 30 30 29 28
19 21 21 21 20 28 29 31 32 28 29 36 37 35 35 35 36 37 36 36 37 35 35 35 38 37 37 37 37 37 34 32 32 30 28 32 31 30 30 31 30 31 31 30 28
20 23 21 19 23 29 30 29 27 28 37 36 34 35 34 34 35 36 35 34 32 32 31 34 35 36 37 35 34 35 31 26 27 26 29 30 31 31 32 32 32 30 29 30 29
21 24 26 26 27 28 28 27 28 33 36 38 36 35 34 35 35 36 34 32 33 33 31 31 31 34 36 35 34 34 32 27 29 28 28 33 32 31 32 31 31 31 30 30 28
21 23 24 28 29 28 26 26 29 34 36 36 37 36 34 36 36 35 34 33 34 33 30 33 33 35 36 36 34 33 30 32 29 30 28 30 32 31 31 31 31 30 30 29 28
17 19 25 30 29 29 26 26 30 33 35 35 34 35 35 35 36 36 35 36 36 37 33 34 31 35 36 35 36 33 33 28 26 28 28 29 31 28 30 29 30 30 29 27 27
16 22 32 31 31 27 25 28 32 35 36 34 33 32 33 34 34 35 34 36 36 35 33 34 31 30 33 33 31 31 30 30 27 27 27 26 28 30 28 29 30 30 26 25 25
16 23 32 32 26 26 26 30 31 34 35 34 34 33 32 33 32 34 35 35 35 34 32 34 30 28 30 33 34 35 31 29 24 27 26 27 26 31 29 30 27 26 26 25 25
14 21 30 32 25 27 29 31 33 34 34 34 34 34 33 32 31 33 34 34 34 30 28 30 28 27 29 29 32 33 33 32 29 26 26 25 25 31 30 29 27 26 25 25 25
15 22 26 27 27 28 27 29 31 34 34 33 32 32 32 32 32 33 33 34 32 30 28 30 29 27 25 28 29 30 31 32 29 25 26 26 29 28 27 26 25 25 24 25 25
17 23 23 25 26 26 28 29 30 31 33 33 32 32 30 30 30 31 32 33 31 27 31 28 27 29 29 29 30 30 30 30 29 28 28 28 29 29 25 24 25 25 25 25 25
18 19 21 22 24 25 27 28 29 31 31 31 30 32 31 29 29 29 29 29 30 30 29 28 26 29 27 29 29 29 30 30 30 30 29 29 29 25 25 25 25 25 25 26 22
16 18 19 21 24 24 27 28 29 30 30 32 31 31 27 27 28 28 28 29 30 28 27 26 26 25 26 27 27 25 28 29 29 29 29 27 26 25 25 25 23 22 23 22 22